Darstellungsparameter: Aktuell verwendete Einstellungen:
Skalierung der Graphiken ... ?
xyx+y,   Skalierungsfaktor:      Skalierung: Modus: x, Faktor: 1
Darstellungszeitraum ... ?
Vom - - bis: - -   Zeitraum: 22.07.2014 - 21.07.2015
Min/Max/Avg-Anzeige ... ?
Zeige MMA aktuell
Zeige MMA Monat
Zeige MMA alles
Zeige --A aktuell
Zeige --A Monat
Zeige --A alles
Keine MMA-Anzeige
MMA:
Average (ber die Originaldaten)
MMA-Basis: 23.02.2003 - 03.08.2020
Quicknavigation für Darstellung... ?
Tage:      1T, 2T, 3T, 5T -1T -2T -3T -5T +1T +2T +3T +5T
Wochen: 1W, 2W, 3W -1W -2W -3W +1W +2W +3W
Monate: 1M, 3M, 6M -1M -3M -6M +1M +3M +6M
Jahre:    1J, 3J, 5J, 10J -1J -3J -5J -10J +1J +3J +5J +10J
Nutze für die Darstellung ... ?
Originaldaten oder ...
Mittelwerte Minima Maxima auf...
Stundenbasis Tagesbasis Wochenbasis
Monatsbasis Jahresbasis      Datenbasis: Mittelwerte auf Stundenbasis
Darstellen als:
Statistik (Auto) Statistik J:M      Darstellung:
Zur Graphik,    zurück zur Übersicht aller Sensoren.
 
Tabellarische Datenbersicht: ?
 
Sensor: Nr:Datum:Temp:Abs-Feuchte:Windchill:Wind:
Aussen-T/F 1 22-07-2014 00:00:00 19.63333 C 16.11 g/m*3 19.63 C 0.93333 km/h
2 22-07-2014 01:00:00 19.825 C 16.22 g/m*3 19.83 C 3.46667 km/h
3 22-07-2014 02:00:00 20.00833 C 16.25 g/m*3 20.01 C 3.33333 km/h
4 22-07-2014 03:00:00 19.94167 C 16.19 g/m*3 19.94 C 2.675 km/h
5 22-07-2014 04:00:00 19.87 C 16.12 g/m*3 19.87 C 1.12 km/h
6 22-07-2014 08:00:00 20.38 C 16.89 g/m*3 20.38 C 2.56 km/h
7 22-07-2014 09:00:00 21.20833 C 17.2 g/m*3 21.21 C 5.35 km/h
8 22-07-2014 10:00:00 22.11667 C 17.45 g/m*3 22.12 C 6.83333 km/h
9 22-07-2014 11:00:00 22.95 C 17.56 g/m*3 22.95 C 7.11667 km/h
10 22-07-2014 12:00:00 24.80833 C 18.39 g/m*3 24.81 C 6.425 km/h
11 22-07-2014 13:00:00 26.375 C 18.69 g/m*3 26.38 C 7.125 km/h
12 22-07-2014 14:00:00 25.68333 C 18.2 g/m*3 25.68 C 7.51667 km/h
13 22-07-2014 15:00:00 27.69167 C 18.74 g/m*3 27.69 C 10.63333 km/h
14 22-07-2014 16:00:00 29.13333 C 18.06 g/m*3 29.13 C 10.75833 km/h
15 22-07-2014 17:00:00 28.90833 C 17.79 g/m*3 28.91 C 13.16667 km/h
16 22-07-2014 18:00:00 28.95833 C 17.67 g/m*3 28.96 C 11.7 km/h
17 22-07-2014 19:00:00 27.325 C 17.82 g/m*3 27.33 C 7.11667 km/h
18 22-07-2014 20:00:00 25.06667 C 18.77 g/m*3 25.07 C 1.86667 km/h
19 22-07-2014 21:00:00 22.55833 C 17.1 g/m*3 22.56 C 0.4 km/h
20 22-07-2014 22:00:00 21.66667 C 16.47 g/m*3 21.67 C 0.8 km/h
21 22-07-2014 23:00:00 20.725 C 15.86 g/m*3 20.73 C 0.4 km/h
22 23-07-2014 00:00:00 20.125 C 15.61 g/m*3 20.13 C 0.13333 km/h
23 23-07-2014 01:00:00 19.66667 C 15.35 g/m*3 19.67 C 0 km/h
24 23-07-2014 02:00:00 18.96667 C 14.95 g/m*3 18.97 C 0 km/h
25 23-07-2014 03:00:00 18.3 C 14.68 g/m*3 18.3 C 0 km/h
Sensor: Nr:Datum:Temp:Abs-Feuchte:Windchill:Wind:
Aussen-T/F 26 23-07-2014 04:00:00 17.94167 C 14.53 g/m*3 17.94 C 0 km/h
27 23-07-2014 05:00:00 17.56667 C 14.27 g/m*3 17.57 C 0 km/h
28 23-07-2014 06:00:00 17.35 C 14.2 g/m*3 17.35 C 0 km/h
29 23-07-2014 07:00:00 17.875 C 14.71 g/m*3 17.88 C 0 km/h
30 23-07-2014 08:00:00 19.68333 C 15.79 g/m*3 19.68 C 0 km/h
31 23-07-2014 09:00:00 21.14167 C 16.22 g/m*3 21.14 C 0 km/h
32 23-07-2014 10:00:00 23 C 16.56 g/m*3 23 C 0.17778 km/h
33 23-07-2014 11:00:00 25.1 C 17.13 g/m*3 25.1 C 0 km/h
34 23-07-2014 12:00:00 26.30833 C 16.59 g/m*3 26.31 C 3.33333 km/h
35 23-07-2014 13:00:00 28.81667 C 14.12 g/m*3 28.82 C 8.30833 km/h
36 23-07-2014 14:00:00 29.53333 C 13.18 g/m*3 29.53 C 9.14167 km/h
37 23-07-2014 15:00:00 29.15 C 14.12 g/m*3 29.15 C 7.25833 km/h
38 23-07-2014 16:00:00 29.275 C 13.8 g/m*3 29.28 C 7.4 km/h
39 23-07-2014 17:00:00 30.775 C 13.1 g/m*3 30.78 C 8.475 km/h
40 23-07-2014 18:00:00 30.01667 C 12.62 g/m*3 30.02 C 11.7 km/h
41 23-07-2014 19:00:00 28.29167 C 13.45 g/m*3 28.29 C 6.56667 km/h
42 23-07-2014 20:00:00 24.9 C 15.78 g/m*3 24.9 C 1.2 km/h
43 23-07-2014 21:00:00 22.125 C 14.56 g/m*3 22.13 C 0.53333 km/h
44 23-07-2014 22:00:00 20.70833 C 14 g/m*3 20.71 C 0.66667 km/h
45 23-07-2014 23:00:00 20 C 13.91 g/m*3 20 C 0.53333 km/h
46 24-07-2014 00:00:00 19.34167 C 13.81 g/m*3 19.34 C 0.13333 km/h
47 24-07-2014 01:00:00 18.775 C 13.64 g/m*3 18.77 C 0 km/h
48 24-07-2014 02:00:00 18.13333 C 13.3 g/m*3 18.13 C 0 km/h
49 24-07-2014 03:00:00 17.375 C 12.99 g/m*3 17.38 C 0 km/h
50 24-07-2014 04:00:00 16.71667 C 12.74 g/m*3 16.72 C 0 km/h
Sensor: Nr:Datum:Temp:Abs-Feuchte:Windchill:Wind:
Aussen-T/F 51 24-07-2014 05:00:00 16.075 C 12.5 g/m*3 16.08 C 0 km/h
52 24-07-2014 06:00:00 16.1 C 12.61 g/m*3 16.1 C 0 km/h
53 24-07-2014 07:00:00 16.85455 C 13.2 g/m*3 16.85 C 0 km/h
54 24-07-2014 08:00:00 17.3 C 13.26 g/m*3 17.3 C 0 km/h
55 24-07-2014 10:00:00 22.84286 C 13.56 g/m*3 22.84 C 2.51429 km/h
56 24-07-2014 11:00:00 24.90833 C 12.98 g/m*3 24.91 C 5.9 km/h
57 24-07-2014 12:00:00 26.14167 C 12.8 g/m*3 26.14 C 8.86667 km/h
58 24-07-2014 13:00:00 27.40833 C 12.64 g/m*3 27.41 C 9.95 km/h
59 24-07-2014 14:00:00 28.15833 C 12.34 g/m*3 28.16 C 9.675 km/h
60 24-07-2014 15:00:00 25.025 C 12.14 g/m*3 25.03 C 10.875 km/h
61 24-07-2014 16:00:00 21.59167 C 12.8 g/m*3 21.59 C 5.08333 km/h
62 24-07-2014 17:00:00 21.36667 C 14.16 g/m*3 21.37 C 0.53333 km/h
63 24-07-2014 18:00:00 21.3 C 14.15 g/m*3 21.3 C 3.34167 km/h
64 24-07-2014 19:00:00 21.99167 C 12.53 g/m*3 21.99 C 5.08333 km/h
65 24-07-2014 20:00:00 21.34167 C 11.88 g/m*3 21.34 C 8.05 km/h
66 24-07-2014 21:00:00 18.80833 C 12.07 g/m*3 18.81 C 1.33333 km/h
67 24-07-2014 22:00:00 16.61667 C 11.9 g/m*3 16.62 C 0 km/h
68 24-07-2014 23:00:00 16.45833 C 12.15 g/m*3 16.46 C 0 km/h
69 25-07-2014 00:00:00 16.3625 C 12.86 g/m*3 16.36 C 0 km/h
70 25-07-2014 08:00:00 16.8 C 13.35 g/m*3 16.8 C 0 km/h
71 25-07-2014 09:00:00 17.28333 C 13.71 g/m*3 17.28 C 0 km/h
72 25-07-2014 10:00:00 19.53333 C 14.17 g/m*3 19.53 C 1.46667 km/h
73 25-07-2014 11:00:00 22.43333 C 14.51 g/m*3 22.43 C 3.88333 km/h
74 25-07-2014 12:00:00 23.625 C 13.99 g/m*3 23.63 C 5.63333 km/h
75 25-07-2014 13:00:00 25.05833 C 13.91 g/m*3 25.06 C 7.525 km/h
Sensor: Nr:Datum:Temp:Abs-Feuchte:Windchill:Wind:
Aussen-T/F 76 25-07-2014 14:00:00 26.25833 C 13.21 g/m*3 26.26 C 8.61667 km/h
77 25-07-2014 15:00:00 23.7 C 14.76 g/m*3 23.7 C 1.46667 km/h
78 25-07-2014 16:00:00 25.11667 C 13.63 g/m*3 25.12 C 4.4 km/h
79 25-07-2014 17:00:00 23.16667 C 14.34 g/m*3 23.17 C 3.21111 km/h
80 25-07-2014 18:00:00 25.45 C 18.77 g/m*3 25.45 C 5.6 km/h
81 25-07-2014 19:00:00 24.37778 C 13.11 g/m*3 24.38 C 5.51111 km/h
82 25-07-2014 20:00:00 22.725 C 13.35 g/m*3 22.73 C 4.40833 km/h
83 25-07-2014 21:00:00 20.43333 C 13.93 g/m*3 20.43 C 0 km/h
84 25-07-2014 22:00:00 18.225 C 13.36 g/m*3 18.23 C 0.13333 km/h
85 25-07-2014 23:00:00 17.36667 C 13.13 g/m*3 17.37 C 0 km/h
86 26-07-2014 00:00:00 16.55 C 12.89 g/m*3 16.55 C 0 km/h
87 26-07-2014 01:00:00 16.26667 C 12.92 g/m*3 16.27 C 0 km/h
88 26-07-2014 02:00:00 16.3 C 13.04 g/m*3 16.3 C 0 km/h
89 26-07-2014 08:00:00 16.86667 C 13.46 g/m*3 16.87 C 1.77778 km/h
90 26-07-2014 09:00:00 17.43333 C 13.71 g/m*3 17.43 C 2.8 km/h
91 26-07-2014 10:00:00 18.1 C 13.96 g/m*3 18.1 C 2.8 km/h
92 26-07-2014 11:00:00 19.3625 C 14.53 g/m*3 19.36 C 2.8 km/h
93 26-07-2014 14:00:00 25.67 C 15.51 g/m*3 25.67 C 7.09 km/h
94 26-07-2014 15:00:00 26.58333 C 14.08 g/m*3 26.58 C 6.45 km/h
95 26-07-2014 16:00:00 27.525 C 13.49 g/m*3 27.53 C 7.11667 km/h
96 26-07-2014 17:00:00 27.50833 C 13.61 g/m*3 27.51 C 7.25 km/h
97 26-07-2014 18:00:00 27 C 14.07 g/m*3 27 C 6.23333 km/h
98 26-07-2014 19:00:00 26.175 C 13.75 g/m*3 26.18 C 7.94167 km/h
99 26-07-2014 20:00:00 24.96667 C 14.78 g/m*3 24.97 C 1.06667 km/h
100 26-07-2014 21:00:00 20.36667 C 14.54 g/m*3 20.37 C 0 km/h
Sensor: Nr:Datum:Temp:Abs-Feuchte:Windchill:Wind:
Aussen-T/F 101 26-07-2014 22:00:00 20.01667 C 14.44 g/m*3 20.02 C 0.13333 km/h
102 26-07-2014 23:00:00 19.58333 C 14.17 g/m*3 19.58 C 0 km/h
103 27-07-2014 01:00:00 17.95 C 13.48 g/m*3 17.95 C 0 km/h
104 27-07-2014 03:00:00 16.74286 C 13.17 g/m*3 16.74 C 0 km/h
105 27-07-2014 04:00:00 16.33333 C 13 g/m*3 16.33 C 0 km/h
106 27-07-2014 05:00:00 15.85 C 12.75 g/m*3 15.85 C 0 km/h
107 27-07-2014 06:00:00 15.58333 C 12.64 g/m*3 15.58 C 0 km/h
108 27-07-2014 07:00:00 16.03333 C 13.03 g/m*3 16.03 C 0.53333 km/h
109 27-07-2014 08:00:00 17.825 C 13.76 g/m*3 17.83 C 1.6 km/h
110 27-07-2014 09:00:00 19.02857 C 14.29 g/m*3 19.03 C 4.81429 km/h
111 27-07-2014 10:00:00 21.1 C 16.03 g/m*3 21.1 C 3.2 km/h
112 27-07-2014 11:00:00 23.56 C 15.87 g/m*3 23.56 C 7.4 km/h
113 27-07-2014 12:00:00 24.23333 C 15.74 g/m*3 24.23 C 4.81667 km/h
114 27-07-2014 13:00:00 25 C 15.19 g/m*3 25 C 2.66667 km/h
115 27-07-2014 14:00:00 26.5375 C 15.62 g/m*3 26.54 C 1.6 km/h
116 27-07-2014 15:00:00 27 C 15.18 g/m*3 27 C 3.76667 km/h
117 27-07-2014 18:00:00 27.14 C 14.89 g/m*3 27.14 C 8.4 km/h
118 28-07-2014 07:00:00 17.05556 C 13.94 g/m*3 17.06 C 4.97778 km/h
119 28-07-2014 08:00:00 17.93333 C 14.56 g/m*3 17.93 C 2.26667 km/h
120 28-07-2014 09:00:00 19.4 C 15.24 g/m*3 19.4 C 0 km/h
121 28-07-2014 10:00:00 20.37143 C 15.92 g/m*3 20.37 C 0 km/h
122 28-07-2014 11:00:00 26.25714 C 15.74 g/m*3 26.26 C 4.81429 km/h
123 28-07-2014 12:00:00 26.7 C 14.68 g/m*3 26.7 C 6.4 km/h
124 28-07-2014 13:00:00 28.17273 C 17.55 g/m*3 28.17 C 4.95455 km/h
125 28-07-2014 14:00:00 26.35 C 16.53 g/m*3 26.35 C 1.6 km/h
Sensor: Nr:Datum:Temp:Abs-Feuchte:Windchill:Wind:
Aussen-T/F 126 28-07-2014 15:00:00 24.13333 C 17.1 g/m*3 24.13 C 2.4 km/h
127 28-07-2014 16:00:00 24.4 C 16.47 g/m*3 24.4 C 4.8 km/h
128 28-07-2014 17:00:00 24.3 C 15.53 g/m*3 24.3 C 10.66 km/h
129 28-07-2014 18:00:00 23.81667 C 15.75 g/m*3 23.82 C 9.25833 km/h
130 28-07-2014 19:00:00 23 C 15.59 g/m*3 23 C 7.1 km/h
131 28-07-2014 20:00:00 22.41667 C 15.06 g/m*3 22.42 C 7.65 km/h
132 28-07-2014 21:00:00 21.45833 C 14.39 g/m*3 21.46 C 4.54167 km/h
133 28-07-2014 22:00:00 20.75 C 14.49 g/m*3 20.75 C 4.14167 km/h
134 28-07-2014 23:00:00 19.94167 C 14.68 g/m*3 19.94 C 1.46667 km/h
135 29-07-2014 00:00:00 19.15833 C 15.3 g/m*3 19.16 C 0.13333 km/h
136 29-07-2014 01:00:00 18.48333 C 15.11 g/m*3 18.48 C 0 km/h
137 29-07-2014 02:00:00 18.68333 C 15.46 g/m*3 18.68 C 0 km/h
138 29-07-2014 03:00:00 18.675 C 15.51 g/m*3 18.68 C 0 km/h
139 29-07-2014 04:00:00 18.725 C 15.55 g/m*3 18.73 C 0 km/h
140 29-07-2014 05:00:00 18.28333 C 15.15 g/m*3 18.28 C 0 km/h
141 29-07-2014 06:00:00 18.33333 C 15.2 g/m*3 18.33 C 0 km/h
142 29-07-2014 07:00:00 18.56667 C 15.57 g/m*3 18.57 C 0 km/h
143 29-07-2014 08:00:00 18.70833 C 15.58 g/m*3 18.71 C 1.6 km/h
144 29-07-2014 09:00:00 19.05833 C 15.89 g/m*3 19.06 C 0.53333 km/h
145 29-07-2014 10:00:00 19.5 C 16.32 g/m*3 19.5 C 0 km/h
146 29-07-2014 11:00:00 19.83333 C 16.64 g/m*3 19.83 C 0 km/h
147 29-07-2014 12:00:00 20.9 C 17.27 g/m*3 20.9 C 3.46667 km/h
148 29-07-2014 13:00:00 21.31667 C 17.69 g/m*3 21.32 C 0 km/h
149 29-07-2014 14:00:00 20.95 C 17.23 g/m*3 20.95 C 2.68333 km/h
150 29-07-2014 15:00:00 21.5 C 17.51 g/m*3 21.5 C 2.26667 km/h
Sensor: Nr:Datum:Temp:Abs-Feuchte:Windchill:Wind:
Aussen-T/F 151 29-07-2014 16:00:00 20.625 C 17.24 g/m*3 20.63 C 0 km/h
152 29-07-2014 17:00:00 22.20833 C 18.66 g/m*3 22.21 C 1.73333 km/h
153 29-07-2014 18:00:00 23.01667 C 18.65 g/m*3 23.02 C 3.06667 km/h
154 29-07-2014 19:00:00 21.59167 C 17.91 g/m*3 21.59 C 2.675 km/h
155 29-07-2014 20:00:00 20.6 C 17.21 g/m*3 20.6 C 1.73333 km/h
156 29-07-2014 21:00:00 20.06667 C 16.68 g/m*3 20.07 C 2 km/h
157 29-07-2014 22:00:00 19.41667 C 16.17 g/m*3 19.42 C 0 km/h
158 29-07-2014 23:00:00 18.96667 C 15.78 g/m*3 18.97 C 0.13333 km/h
159 30-07-2014 00:00:00 18.91667 C 15.88 g/m*3 18.92 C 1.6 km/h
160 30-07-2014 01:00:00 18.73333 C 15.68 g/m*3 18.73 C 0 km/h
161 30-07-2014 02:00:00 18.7 C 15.69 g/m*3 18.7 C 0 km/h
162 30-07-2014 03:00:00 18.7 C 15.69 g/m*3 18.7 C 0.13333 km/h
163 30-07-2014 04:00:00 18.7 C 15.69 g/m*3 18.7 C 1.33333 km/h
164 30-07-2014 05:00:00 18.775 C 15.76 g/m*3 18.77 C 0.8 km/h
165 30-07-2014 06:00:00 18.8 C 15.78 g/m*3 18.8 C 4.14167 km/h
166 30-07-2014 07:00:00 18.55833 C 15.35 g/m*3 18.56 C 10.61667 km/h
167 30-07-2014 08:00:00 18.325 C 14.78 g/m*3 18.33 C 10.75 km/h
168 30-07-2014 09:00:00 17.925 C 14.36 g/m*3 17.93 C 7.25 km/h
169 30-07-2014 10:00:00 18.28333 C 14.47 g/m*3 18.28 C 7.1 km/h
170 30-07-2014 11:00:00 18.96667 C 14.56 g/m*3 18.97 C 9.95 km/h
171 30-07-2014 12:00:00 19.725 C 14.51 g/m*3 19.73 C 10.08333 km/h
172 30-07-2014 13:00:00 20.88333 C 14.4 g/m*3 20.88 C 10.89167 km/h
173 30-07-2014 14:00:00 21.71667 C 13.89 g/m*3 21.72 C 11.96667 km/h
174 30-07-2014 15:00:00 22.86667 C 13.46 g/m*3 22.87 C 14.63333 km/h
175 30-07-2014 16:00:00 23.48333 C 13.33 g/m*3 23.48 C 12.76667 km/h
Sensor: Nr:Datum:Temp:Abs-Feuchte:Windchill:Wind:
Aussen-T/F 176 30-07-2014 17:00:00 23.01667 C 13.03 g/m*3 23.02 C 7.375 km/h
177 30-07-2014 18:00:00 23.74167 C 12.76 g/m*3 23.74 C 6.70833 km/h
178 30-07-2014 19:00:00 22.98333 C 13 g/m*3 22.98 C 8.85833 km/h
179 30-07-2014 20:00:00 20.58333 C 14.44 g/m*3 20.58 C 2.53333 km/h
180 30-07-2014 21:00:00 19.01667 C 14.14 g/m*3 19.02 C 1.73333 km/h
181 30-07-2014 22:00:00 18.46667 C 14.03 g/m*3 18.47 C 0 km/h
182 30-07-2014 23:00:00 18.5 C 13.96 g/m*3 18.5 C 0 km/h
183 31-07-2014 00:00:00 18.4 C 13.88 g/m*3 18.4 C 0 km/h
184 31-07-2014 01:00:00 18.46667 C 13.37 g/m*3 18.47 C 0 km/h
185 31-07-2014 02:00:00 17.45 C 12.91 g/m*3 17.45 C 0.675 km/h
186 31-07-2014 03:00:00 16.225 C 12.6 g/m*3 16.23 C 0 km/h
187 31-07-2014 04:00:00 16.125 C 12.74 g/m*3 16.13 C 0 km/h
188 31-07-2014 05:00:00 16.09167 C 12.64 g/m*3 16.09 C 0 km/h
189 31-07-2014 06:00:00 16.09167 C 12.74 g/m*3 16.09 C 0 km/h
190 31-07-2014 07:00:00 16.5 C 12.84 g/m*3 16.5 C 0 km/h
191 31-07-2014 08:00:00 17.16667 C 12.79 g/m*3 17.17 C 0 km/h
192 31-07-2014 09:00:00 18.025 C 12.96 g/m*3 18.02 C 0 km/h
193 31-07-2014 10:00:00 18.93333 C 13.32 g/m*3 18.93 C 0 km/h
194 31-07-2014 11:00:00 19.90833 C 13.91 g/m*3 19.91 C 0 km/h
195 31-07-2014 12:00:00 21.5125 C 13.59 g/m*3 21.51 C 4.6125 km/h
196 31-07-2014 13:00:00 23.74286 C 12.96 g/m*3 23.74 C 7.38571 km/h
197 31-07-2014 14:00:00 25.25833 C 12.09 g/m*3 25.26 C 8.45833 km/h
198 31-07-2014 15:00:00 26.3 C 11.88 g/m*3 26.3 C 6.575 km/h
199 31-07-2014 16:00:00 27.20833 C 11.72 g/m*3 27.21 C 5.625 km/h
200 31-07-2014 17:00:00 27.74167 C 11.64 g/m*3 27.74 C 5.625 km/h
Sensor: Nr:Datum:Temp:Abs-Feuchte:Windchill:Wind:
Aussen-T/F 201 31-07-2014 18:00:00 26.85 C 14 g/m*3 26.85 C 3.6 km/h
202 31-07-2014 19:00:00 22.8 C 15.19 g/m*3 22.8 C 0.93333 km/h
203 31-07-2014 20:00:00 20.11667 C 14.28 g/m*3 20.12 C 0.93333 km/h
204 31-07-2014 21:00:00 19.4 C 14.04 g/m*3 19.4 C 0.4 km/h
205 31-07-2014 22:00:00 18.59167 C 13.5 g/m*3 18.59 C 0.13333 km/h
206 31-07-2014 23:00:00 17.95833 C 13.02 g/m*3 17.96 C 0 km/h
207 01-08-2014 00:00:00 17.325 C 12.91 g/m*3 17.33 C 0 km/h
208 01-08-2014 01:00:00 16.59167 C 12.39 g/m*3 16.59 C 0 km/h
209 01-08-2014 02:00:00 16.00833 C 12.3 g/m*3 16.01 C 0 km/h
210 01-08-2014 03:00:00 15.6 C 12.22 g/m*3 15.6 C 0 km/h
211 01-08-2014 04:00:00 15.13333 C 12.02 g/m*3 15.13 C 0 km/h
212 01-08-2014 05:00:00 14.74167 C 11.88 g/m*3 14.74 C 0 km/h
213 01-08-2014 06:00:00 14.54167 C 11.85 g/m*3 14.54 C 0 km/h
214 01-08-2014 07:00:00 14.95833 C 12.26 g/m*3 14.96 C 0 km/h
215 01-08-2014 08:00:00 16.23333 C 13.06 g/m*3 16.23 C 0 km/h
216 01-08-2014 09:00:00 17.65 C 13.68 g/m*3 17.65 C 0 km/h
217 01-08-2014 10:00:00 18.71667 C 14.52 g/m*3 18.72 C 0 km/h
218 01-08-2014 11:00:00 21.11667 C 15.54 g/m*3 21.12 C 0 km/h
219 01-08-2014 12:00:00 21.9 C 16.18 g/m*3 21.9 C 0 km/h
220 01-08-2014 13:00:00 21.78333 C 16.29 g/m*3 21.78 C 0 km/h
221 01-08-2014 14:00:00 26.54167 C 15.14 g/m*3 26.54 C 3.625 km/h
222 01-08-2014 15:00:00 27.39167 C 15.76 g/m*3 27.39 C 4.56667 km/h
223 01-08-2014 16:00:00 29.06667 C 13.31 g/m*3 29.07 C 6.43333 km/h
224 01-08-2014 17:00:00 28.61667 C 13.99 g/m*3 28.62 C 3.625 km/h
225 01-08-2014 18:00:00 25.69167 C 16.55 g/m*3 25.69 C 0 km/h
Sensor: Nr:Datum:Temp:Abs-Feuchte:Windchill:Wind:
Aussen-T/F 226 01-08-2014 19:00:00 22.45 C 15.77 g/m*3 22.45 C 0 km/h
227 01-08-2014 20:00:00 21.24167 C 15.19 g/m*3 21.24 C 0 km/h
228 01-08-2014 21:00:00 20.20833 C 14.48 g/m*3 20.21 C 0 km/h
229 01-08-2014 22:00:00 19.56667 C 14.14 g/m*3 19.57 C 0 km/h
230 01-08-2014 23:00:00 18.95 C 13.62 g/m*3 18.95 C 0 km/h
231 02-08-2014 00:00:00 18.54167 C 13.47 g/m*3 18.54 C 0 km/h
232 02-08-2014 01:00:00 17.9 C 13.32 g/m*3 17.9 C 0 km/h
233 02-08-2014 02:00:00 17.14167 C 12.83 g/m*3 17.14 C 0 km/h
234 02-08-2014 03:00:00 16.36667 C 12.49 g/m*3 16.37 C 0 km/h
235 02-08-2014 04:00:00 15.86667 C 12.36 g/m*3 15.87 C 0 km/h
236 02-08-2014 05:00:00 15.51667 C 12.35 g/m*3 15.52 C 0 km/h
237 02-08-2014 06:00:00 15.25833 C 12.24 g/m*3 15.26 C 0 km/h
238 02-08-2014 07:00:00 15.33333 C 12.41 g/m*3 15.33 C 0 km/h
239 02-08-2014 08:00:00 16.05833 C 12.95 g/m*3 16.06 C 0 km/h
240 02-08-2014 09:00:00 17.175 C 13.4 g/m*3 17.18 C 0 km/h
241 02-08-2014 10:00:00 18.875 C 14.59 g/m*3 18.88 C 0 km/h
242 02-08-2014 11:00:00 21.3 C 15.94 g/m*3 21.3 C 0 km/h
243 02-08-2014 12:00:00 23.825 C 16.17 g/m*3 23.83 C 0 km/h
244 02-08-2014 13:00:00 24.425 C 16.19 g/m*3 24.43 C 0 km/h
245 02-08-2014 14:00:00 25.44167 C 16.7 g/m*3 25.44 C 2.80833 km/h
246 02-08-2014 15:00:00 26.525 C 17 g/m*3 26.53 C 5.08333 km/h
247 02-08-2014 16:00:00 25.49167 C 16.98 g/m*3 25.49 C 4.69167 km/h
248 02-08-2014 17:00:00 23.875 C 16.09 g/m*3 23.88 C 5.08333 km/h
249 02-08-2014 18:00:00 23.93333 C 16.31 g/m*3 23.93 C 2 km/h
250 02-08-2014 19:00:00 23.39167 C 16.94 g/m*3 23.39 C 2.8 km/h
Sensor: Nr:Datum:Temp:Abs-Feuchte:Windchill:Wind:
Aussen-T/F 251 02-08-2014 20:00:00 20.94167 C 16.42 g/m*3 20.94 C 0.8 km/h
252 02-08-2014 21:00:00 19.85 C 15.65 g/m*3 19.85 C 0 km/h
253 02-08-2014 22:00:00 19.675 C 15.43 g/m*3 19.68 C 0 km/h
254 02-08-2014 23:00:00 19.9 C 15.42 g/m*3 19.9 C 0 km/h
255 03-08-2014 00:00:00 19.75 C 15.13 g/m*3 19.75 C 0 km/h
256 03-08-2014 01:00:00 19.49167 C 14.44 g/m*3 19.49 C 0 km/h
257 03-08-2014 02:00:00 19.00833 C 14.43 g/m*3 19.01 C 0 km/h
258 03-08-2014 03:00:00 18.95833 C 14.37 g/m*3 18.96 C 0 km/h
259 03-08-2014 04:00:00 18.95833 C 14.21 g/m*3 18.96 C 1.475 km/h
260 03-08-2014 05:00:00 19.275 C 14.27 g/m*3 19.27 C 4.275 km/h
261 03-08-2014 06:00:00 19.025 C 14.53 g/m*3 19.02 C 1.6 km/h
262 03-08-2014 07:00:00 18.81667 C 14.56 g/m*3 18.82 C 1.46667 km/h
263 03-08-2014 08:00:00 19.59167 C 14.92 g/m*3 19.59 C 2.40833 km/h
264 03-08-2014 09:00:00 20.83333 C 15.21 g/m*3 20.83 C 4.14167 km/h
265 03-08-2014 10:00:00 21.75833 C 15.22 g/m*3 21.76 C 1.2 km/h
266 03-08-2014 11:00:00 22.03333 C 15.83 g/m*3 22.03 C 0 km/h
267 03-08-2014 12:00:00 24.85 C 15.26 g/m*3 24.85 C 3.74167 km/h
268 03-08-2014 13:00:00 25.4 C 15.05 g/m*3 25.4 C 4.01667 km/h
269 03-08-2014 14:00:00 24.04167 C 15.54 g/m*3 24.04 C 2.4 km/h
270 03-08-2014 15:00:00 23.46667 C 15.3 g/m*3 23.47 C 4.13333 km/h
271 03-08-2014 16:00:00 24.85833 C 15.87 g/m*3 24.86 C 6.975 km/h
272 03-08-2014 17:00:00 23.43333 C 15.52 g/m*3 23.43 C 3.49167 km/h
273 03-08-2014 18:00:00 23.73333 C 15.8 g/m*3 23.73 C 3.33333 km/h
274 03-08-2014 19:00:00 24.31667 C 16.67 g/m*3 24.32 C 2.13333 km/h
275 03-08-2014 20:00:00 21.45833 C 16.08 g/m*3 21.46 C 0.13333 km/h
Sensor: Nr:Datum:Temp:Abs-Feuchte:Windchill:Wind:
Aussen-T/F 276 03-08-2014 21:00:00 19.80833 C 15.15 g/m*3 19.81 C 0 km/h
277 03-08-2014 22:00:00 19.95833 C 14.71 g/m*3 19.96 C 1.46667 km/h
278 03-08-2014 23:00:00 19.73333 C 14.72 g/m*3 19.73 C 0 km/h
279 04-08-2014 00:00:00 18.93333 C 14.23 g/m*3 18.93 C 1.48333 km/h
280 04-08-2014 01:00:00 18.65833 C 13.85 g/m*3 18.66 C 3.08333 km/h
281 04-08-2014 02:00:00 17.60833 C 13.81 g/m*3 17.61 C 0 km/h
282 04-08-2014 03:00:00 17.15833 C 13.6 g/m*3 17.16 C 0 km/h
283 04-08-2014 04:00:00 16.54167 C 13.28 g/m*3 16.54 C 0 km/h
284 04-08-2014 05:00:00 16.70833 C 13.45 g/m*3 16.71 C 0.66667 km/h
285 04-08-2014 06:00:00 16.875 C 13.5 g/m*3 16.88 C 0 km/h
286 04-08-2014 07:00:00 17.19167 C 13.72 g/m*3 17.19 C 1.06667 km/h
287 04-08-2014 08:00:00 18.04167 C 14.02 g/m*3 18.04 C 0.93333 km/h
288 04-08-2014 09:00:00 19.675 C 13.88 g/m*3 19.68 C 3.075 km/h
289 04-08-2014 10:00:00 20.68333 C 14.18 g/m*3 20.68 C 2.80833 km/h
290 04-08-2014 11:00:00 22.025 C 14.37 g/m*3 22.03 C 6.71667 km/h
291 04-08-2014 12:00:00 23.21667 C 14.62 g/m*3 23.22 C 6.05 km/h
292 04-08-2014 13:00:00 22.95833 C 14.64 g/m*3 22.96 C 2.26667 km/h
293 04-08-2014 14:00:00 21.54167 C 15.41 g/m*3 21.54 C 3.49167 km/h
294 04-08-2014 15:00:00 22.51667 C 16.04 g/m*3 22.52 C 2.66667 km/h
295 04-08-2014 16:00:00 23.03333 C 14.72 g/m*3 23.03 C 11.29167 km/h
296 04-08-2014 17:00:00 18.71667 C 13.05 g/m*3 18.72 C 3.63333 km/h
297 04-08-2014 18:00:00 17.94167 C 14.08 g/m*3 17.94 C 3.76667 km/h
298 04-08-2014 19:00:00 18.53333 C 13.95 g/m*3 18.53 C 3.75833 km/h
299 04-08-2014 20:00:00 17.375 C 13.77 g/m*3 17.38 C 0 km/h
300 04-08-2014 21:00:00 16.85833 C 13.63 g/m*3 16.86 C 0 km/h
Sensor: Nr:Datum:Temp:Abs-Feuchte:Windchill:Wind:
Aussen-T/F 301 04-08-2014 22:00:00 16.66667 C 13.57 g/m*3 16.67 C 0 km/h
302 04-08-2014 23:00:00 16.625 C 13.58 g/m*3 16.63 C 0 km/h
303 05-08-2014 00:00:00 16.16667 C 13.21 g/m*3 16.17 C 0 km/h
304 05-08-2014 01:00:00 15.86667 C 13.04 g/m*3 15.87 C 0 km/h
305 05-08-2014 02:00:00 15.58333 C 12.78 g/m*3 15.58 C 0 km/h
306 05-08-2014 03:00:00 15.55 C 12.78 g/m*3 15.55 C 0 km/h
307 05-08-2014 04:00:00 15.675 C 12.96 g/m*3 15.68 C 0 km/h
308 05-08-2014 05:00:00 15.85 C 13.09 g/m*3 15.85 C 0 km/h
309 05-08-2014 06:00:00 15.575 C 12.75 g/m*3 15.58 C 0 km/h
310 05-08-2014 07:00:00 15.64167 C 12.79 g/m*3 15.64 C 0 km/h
311 05-08-2014 08:00:00 16.64167 C 12.98 g/m*3 16.64 C 0 km/h
312 05-08-2014 09:00:00 17.74167 C 13.18 g/m*3 17.74 C 0 km/h
313 05-08-2014 10:00:00 18.90833 C 13.36 g/m*3 18.91 C 0.675 km/h
314 05-08-2014 11:00:00 20.1 C 13.47 g/m*3 20.1 C 6.975 km/h
315 05-08-2014 12:00:00 21.41667 C 13.34 g/m*3 21.42 C 5.61667 km/h
316 05-08-2014 13:00:00 22.40833 C 12.62 g/m*3 22.41 C 5.61667 km/h
317 05-08-2014 14:00:00 22.05833 C 12.87 g/m*3 22.06 C 2.275 km/h
318 05-08-2014 15:00:00 21.85 C 13.44 g/m*3 21.85 C 2.54167 km/h
319 05-08-2014 16:00:00 22.76667 C 13.05 g/m*3 22.77 C 6.56667 km/h
320 05-08-2014 17:00:00 24.09167 C 12.81 g/m*3 24.09 C 3.46667 km/h
321 05-08-2014 18:00:00 24.4 C 11.68 g/m*3 24.4 C 6.70833 km/h
322 05-08-2014 19:00:00 21.24167 C 13.56 g/m*3 21.24 C 0.53333 km/h
323 05-08-2014 20:00:00 19.89167 C 13.81 g/m*3 19.89 C 1.46667 km/h
324 05-08-2014 21:00:00 18.05833 C 13 g/m*3 18.06 C 0.53333 km/h
325 05-08-2014 22:00:00 16.925 C 12.52 g/m*3 16.93 C 0 km/h
Sensor: Nr:Datum:Temp:Abs-Feuchte:Windchill:Wind:
Aussen-T/F 326 05-08-2014 23:00:00 16.08333 C 12.08 g/m*3 16.08 C 0 km/h
327 06-08-2014 00:00:00 15.15833 C 11.77 g/m*3 15.16 C 0 km/h
328 06-08-2014 01:00:00 14.43333 C 11.45 g/m*3 14.43 C 0 km/h
329 06-08-2014 02:00:00 13.89167 C 11.18 g/m*3 13.89 C 0 km/h
330 06-08-2014 03:00:00 13.53333 C 11.07 g/m*3 13.53 C 0 km/h
331 06-08-2014 04:00:00 13.13333 C 10.86 g/m*3 13.13 C 0 km/h
332 06-08-2014 05:00:00 12.8 C 10.74 g/m*3 12.8 C 0.4 km/h
333 06-08-2014 06:00:00 12.75833 C 10.74 g/m*3 12.76 C 0.13333 km/h
334 06-08-2014 07:00:00 13.00833 C 10.98 g/m*3 13.01 C 0.53333 km/h
335 06-08-2014 08:00:00 13.45833 C 11.32 g/m*3 13.46 C 1.33333 km/h
336 06-08-2014 09:00:00 14.61667 C 11.93 g/m*3 14.62 C 3.2 km/h
337 06-08-2014 10:00:00 16.79167 C 12.87 g/m*3 16.79 C 0.53333 km/h
338 06-08-2014 11:00:00 19.925 C 14.4 g/m*3 19.93 C 1.46667 km/h
339 06-08-2014 12:00:00 22.75 C 13.8 g/m*3 22.75 C 3.73333 km/h
340 06-08-2014 13:00:00 24.55833 C 12.11 g/m*3 24.56 C 6.43333 km/h
341 06-08-2014 14:00:00 25.48333 C 11.08 g/m*3 25.48 C 8.31667 km/h
342 06-08-2014 15:00:00 25.1 C 12.64 g/m*3 25.1 C 4.15 km/h
343 06-08-2014 16:00:00 24.33333 C 13.54 g/m*3 24.33 C 2.54167 km/h
344 06-08-2014 17:00:00 21.50833 C 14.7 g/m*3 21.51 C 0.13333 km/h
345 06-08-2014 18:00:00 20.5 C 14.43 g/m*3 20.5 C 0.13333 km/h
346 06-08-2014 19:00:00 19.16667 C 13.81 g/m*3 19.17 C 5.5 km/h
347 06-08-2014 20:00:00 17.10833 C 13.3 g/m*3 17.11 C 3.73333 km/h
348 06-08-2014 21:00:00 16.41667 C 13.19 g/m*3 16.42 C 0.53333 km/h
349 06-08-2014 22:00:00 16.025 C 13.1 g/m*3 16.02 C 0.13333 km/h
350 06-08-2014 23:00:00 15.85 C 12.96 g/m*3 15.85 C 0 km/h
Sensor: Nr:Datum:Temp:Abs-Feuchte:Windchill:Wind:
Aussen-T/F 351 07-08-2014 00:00:00 15.65 C 12.81 g/m*3 15.65 C 2.40833 km/h
352 07-08-2014 01:00:00 15.58333 C 12.81 g/m*3 15.58 C 0.13333 km/h
353 07-08-2014 02:00:00 15.43333 C 12.76 g/m*3 15.43 C 0 km/h
354 07-08-2014 03:00:00 15.28333 C 12.64 g/m*3 15.28 C 0.8 km/h
355 07-08-2014 04:00:00 15.21667 C 12.6 g/m*3 15.22 C 0 km/h
356 07-08-2014 05:00:00 15.55 C 12.89 g/m*3 15.55 C 0 km/h
357 07-08-2014 06:00:00 15.8 C 13.19 g/m*3 15.8 C 0.53333 km/h
358 07-08-2014 07:00:00 16 C 13.35 g/m*3 16 C 0 km/h
359 07-08-2014 08:00:00 16.25 C 13.56 g/m*3 16.25 C 1.33333 km/h
360 07-08-2014 09:00:00 17.36667 C 13.9 g/m*3 17.37 C 3.46667 km/h
361 07-08-2014 10:00:00 18.675 C 14.07 g/m*3 18.68 C 3.075 km/h
362 07-08-2014 11:00:00 20.33333 C 14.23 g/m*3 20.33 C 4.81667 km/h
363 07-08-2014 12:00:00 22.01667 C 14 g/m*3 22.02 C 4.94167 km/h
364 07-08-2014 13:00:00 22.65 C 13.57 g/m*3 22.65 C 4.54167 km/h
365 07-08-2014 14:00:00 23.96667 C 14.1 g/m*3 23.97 C 4.95 km/h
366 07-08-2014 15:00:00 25.75 C 13.42 g/m*3 25.75 C 8.35 km/h
367 07-08-2014 16:00:00 25.43333 C 14.23 g/m*3 25.43 C 3.60833 km/h
368 07-08-2014 17:00:00 21.08333 C 15.66 g/m*3 21.08 C 0.13333 km/h
369 07-08-2014 18:00:00 22.50833 C 15.9 g/m*3 22.51 C 0.4 km/h
370 07-08-2014 19:00:00 22.38333 C 15.87 g/m*3 22.38 C 0.13333 km/h
371 07-08-2014 20:00:00 20.11667 C 14.86 g/m*3 20.12 C 0.53333 km/h
372 07-08-2014 21:00:00 18.46667 C 14.03 g/m*3 18.47 C 0.13333 km/h
373 07-08-2014 22:00:00 17.56667 C 13.52 g/m*3 17.57 C 0 km/h
374 07-08-2014 23:00:00 16.75833 C 13.13 g/m*3 16.76 C 0 km/h
375 08-08-2014 00:00:00 16.075 C 12.76 g/m*3 16.08 C 0 km/h
Sensor: Nr:Datum:Temp:Abs-Feuchte:Windchill:Wind:
Aussen-T/F 376 08-08-2014 01:00:00 15.54167 C 12.49 g/m*3 15.54 C 0 km/h
377 08-08-2014 02:00:00 15.15833 C 12.3 g/m*3 15.16 C 0 km/h
378 08-08-2014 03:00:00 14.80833 C 12.15 g/m*3 14.81 C 0 km/h
379 08-08-2014 04:00:00 14.43333 C 11.89 g/m*3 14.43 C 0 km/h
380 08-08-2014 05:00:00 14.275 C 11.88 g/m*3 14.28 C 0 km/h
381 08-08-2014 06:00:00 14.58333 C 12.13 g/m*3 14.58 C 0.93333 km/h
382 08-08-2014 07:00:00 15.04167 C 12.47 g/m*3 15.04 C 0.4 km/h
383 08-08-2014 08:00:00 15.68333 C 12.9 g/m*3 15.68 C 0 km/h
384 08-08-2014 09:00:00 16.60833 C 13.54 g/m*3 16.61 C 0 km/h
385 08-08-2014 10:00:00 18.375 C 14.7 g/m*3 18.38 C 0.93333 km/h
386 08-08-2014 11:00:00 22.93333 C 15.49 g/m*3 22.93 C 5.49167 km/h
387 08-08-2014 12:00:00 25.45 C 14.66 g/m*3 25.45 C 8.175 km/h
388 08-08-2014 13:00:00 26.50833 C 13.88 g/m*3 26.51 C 9.55 km/h
389 08-08-2014 14:00:00 26.025 C 14.99 g/m*3 26.03 C 6.44167 km/h
390 08-08-2014 15:00:00 22.73333 C 16.82 g/m*3 22.73 C 0.93333 km/h
391 08-08-2014 16:00:00 20.86667 C 16.75 g/m*3 20.87 C 0.4 km/h
392 08-08-2014 17:00:00 20.45 C 16.84 g/m*3 20.45 C 0 km/h
393 08-08-2014 18:00:00 20.625 C 17.03 g/m*3 20.63 C 0 km/h
394 08-08-2014 19:00:00 20.35 C 16.8 g/m*3 20.35 C 0 km/h
395 08-08-2014 20:00:00 20.00833 C 16.53 g/m*3 20.01 C 0.13333 km/h
396 08-08-2014 21:00:00 19.11667 C 15.71 g/m*3 19.12 C 0 km/h
397 08-08-2014 22:00:00 18.75 C 15.42 g/m*3 18.75 C 0.13333 km/h
398 08-08-2014 23:00:00 18.625 C 15.3 g/m*3 18.63 C 0.4 km/h
399 09-08-2014 00:00:00 18.64167 C 15.24 g/m*3 18.64 C 0.13333 km/h
400 09-08-2014 01:00:00 18.8 C 15.3 g/m*3 18.8 C 0 km/h
Sensor: Nr:Datum:Temp:Abs-Feuchte:Windchill:Wind:
Aussen-T/F 401 09-08-2014 02:00:00 19.40833 C 15.55 g/m*3 19.41 C 2.80833 km/h
402 09-08-2014 03:00:00 18.85 C 15.56 g/m*3 18.85 C 0.26667 km/h
403 09-08-2014 04:00:00 18.69167 C 15.52 g/m*3 18.69 C 0.26667 km/h
404 09-08-2014 05:00:00 18.35 C 15.13 g/m*3 18.35 C 5.90833 km/h
405 09-08-2014 06:00:00 18.625 C 14.66 g/m*3 18.63 C 13.01667 km/h
406 09-08-2014 07:00:00 18.69167 C 14.54 g/m*3 18.69 C 10.075 km/h
407 09-08-2014 08:00:00 19.56667 C 14.97 g/m*3 19.57 C 10.74167 km/h
408 09-08-2014 09:00:00 19.875 C 15.24 g/m*3 19.88 C 10.46667 km/h
409 09-08-2014 10:00:00 19.56667 C 14.59 g/m*3 19.57 C 9.53333 km/h
410 09-08-2014 11:00:00 20.30833 C 13.08 g/m*3 20.31 C 15.83333 km/h
411 09-08-2014 12:00:00 21.53333 C 12.37 g/m*3 21.53 C 16.1 km/h
412 09-08-2014 13:00:00 22.125 C 12.14 g/m*3 22.13 C 11.43333 km/h
413 09-08-2014 14:00:00 22.825 C 12.35 g/m*3 22.83 C 9.40833 km/h
414 09-08-2014 15:00:00 24.24167 C 12.37 g/m*3 24.24 C 12.5 km/h
415 09-08-2014 16:00:00 24.95833 C 12.08 g/m*3 24.96 C 12.75833 km/h
416 09-08-2014 17:00:00 24.71667 C 12.46 g/m*3 24.72 C 7.79167 km/h
417 09-08-2014 18:00:00 22.90833 C 14.24 g/m*3 22.91 C 1.60833 km/h
418 09-08-2014 19:00:00 21.55833 C 14.51 g/m*3 21.56 C 0.8 km/h
419 09-08-2014 20:00:00 18.9 C 13.31 g/m*3 18.9 C 1.73333 km/h
420 09-08-2014 21:00:00 17.59167 C 12.67 g/m*3 17.59 C 0.26667 km/h
421 09-08-2014 22:00:00 16.73333 C 12.4 g/m*3 16.73 C 0 km/h
422 09-08-2014 23:00:00 16.55833 C 12.35 g/m*3 16.56 C 0.26667 km/h
423 10-08-2014 00:00:00 16.25 C 12.46 g/m*3 16.25 C 0 km/h
424 10-08-2014 01:00:00 16.20833 C 12.59 g/m*3 16.21 C 0 km/h
425 10-08-2014 02:00:00 16.3 C 12.73 g/m*3 16.3 C 0 km/h
Sensor: Nr:Datum:Temp:Abs-Feuchte:Windchill:Wind:
Aussen-T/F 426 10-08-2014 03:00:00 16.34167 C 12.8 g/m*3 16.34 C 0 km/h
427 10-08-2014 04:00:00 16.175 C 12.75 g/m*3 16.18 C 0 km/h
428 10-08-2014 05:00:00 15.825 C 12.37 g/m*3 15.83 C 0 km/h
429 10-08-2014 06:00:00 15.26667 C 12.03 g/m*3 15.27 C 0.26667 km/h
430 10-08-2014 07:00:00 15.58333 C 12.41 g/m*3 15.58 C 1.61667 km/h
431 10-08-2014 08:00:00 17.63333 C 13.51 g/m*3 17.63 C 1.73333 km/h
432 10-08-2014 09:00:00 19.61667 C 14.24 g/m*3 19.62 C 2.93333 km/h
433 10-08-2014 10:00:00 21.25833 C 14.91 g/m*3 21.26 C 3.86667 km/h
434 10-08-2014 11:00:00 22.8 C 15.78 g/m*3 22.8 C 4.94167 km/h
435 10-08-2014 12:00:00 24.26667 C 15.94 g/m*3 24.27 C 6.96667 km/h
436 10-08-2014 13:00:00 23.85833 C 16.26 g/m*3 23.86 C 4.825 km/h
437 10-08-2014 14:00:00 21.55833 C 17.22 g/m*3 21.56 C 0.8 km/h
438 10-08-2014 15:00:00 20.85833 C 16.81 g/m*3 20.86 C 2.93333 km/h
439 10-08-2014 16:00:00 21.05833 C 17.29 g/m*3 21.06 C 2.26667 km/h
440 10-08-2014 17:00:00 21.00833 C 17.3 g/m*3 21.01 C 0 km/h
441 10-08-2014 18:00:00 20.25833 C 16.84 g/m*3 20.26 C 0.13333 km/h
442 10-08-2014 19:00:00 19.85 C 16.46 g/m*3 19.85 C 0 km/h
443 10-08-2014 20:00:00 19.225 C 16.02 g/m*3 19.23 C 2.68333 km/h
444 10-08-2014 21:00:00 18.975 C 15.34 g/m*3 18.98 C 3.33333 km/h
445 10-08-2014 22:00:00 18.34167 C 14.81 g/m*3 18.34 C 2 km/h
446 10-08-2014 23:00:00 17.78333 C 14.56 g/m*3 17.78 C 1.33333 km/h
447 11-08-2014 00:00:00 17.50833 C 14.06 g/m*3 17.51 C 3.20833 km/h
448 11-08-2014 01:00:00 16.31667 C 13.02 g/m*3 16.32 C 2.8 km/h
449 11-08-2014 02:00:00 15.40833 C 11.96 g/m*3 15.41 C 2.93333 km/h
450 11-08-2014 03:00:00 14.05833 C 11.45 g/m*3 14.06 C 0.53333 km/h
Sensor: Nr:Datum:Temp:Abs-Feuchte:Windchill:Wind:
Aussen-T/F 451 11-08-2014 04:00:00 13.36667 C 11.03 g/m*3 13.37 C 0.4 km/h
452 11-08-2014 05:00:00 13.14167 C 10.8 g/m*3 13.14 C 1.06667 km/h
453 11-08-2014 06:00:00 12.86667 C 10.64 g/m*3 12.87 C 0.4 km/h
454 11-08-2014 07:00:00 13.10833 C 10.83 g/m*3 13.11 C 0.66667 km/h
455 11-08-2014 08:00:00 13.86667 C 11.12 g/m*3 13.87 C 3.49167 km/h
456 11-08-2014 09:00:00 15.43333 C 11.14 g/m*3 15.43 C 12.76667 km/h
457 11-08-2014 10:00:00 16.50833 C 11.25 g/m*3 16.51 C 12.5 km/h
458 11-08-2014 11:00:00 18.25833 C 11.35 g/m*3 18.26 C 10.89167 km/h
459 11-08-2014 12:00:00 19.55 C 11.21 g/m*3 19.55 C 11.025 km/h
460 11-08-2014 13:00:00 20.375 C 11.14 g/m*3 20.38 C 13.16667 km/h
461 11-08-2014 14:00:00 20.85 C 11.38 g/m*3 20.85 C 11.96667 km/h
462 11-08-2014 15:00:00 18.66667 C 13.41 g/m*3 18.67 C 3.06667 km/h
463 11-08-2014 16:00:00 20.51667 C 13.4 g/m*3 20.52 C 6.3 km/h
464 11-08-2014 17:00:00 21.975 C 11.47 g/m*3 21.98 C 12.49167 km/h
465 11-08-2014 18:00:00 21.24167 C 11.58 g/m*3 21.24 C 6.975 km/h
466 11-08-2014 19:00:00 20.60833 C 11.83 g/m*3 20.61 C 5.625 km/h
467 11-08-2014 20:00:00 18.75833 C 11.33 g/m*3 18.76 C 3.46667 km/h
468 11-08-2014 21:00:00 16.34167 C 11.18 g/m*3 16.34 C 2.66667 km/h
469 11-08-2014 22:00:00 15.25 C 10.96 g/m*3 15.25 C 0.53333 km/h
470 11-08-2014 23:00:00 14.18333 C 10.61 g/m*3 14.18 C 0 km/h
471 12-08-2014 00:00:00 14.28333 C 10.69 g/m*3 14.28 C 0.53333 km/h
472 12-08-2014 01:00:00 16.15833 C 10.36 g/m*3 16.16 C 6.725 km/h
473 12-08-2014 02:00:00 15.51667 C 10.73 g/m*3 15.52 C 8.85833 km/h
474 12-08-2014 03:00:00 14.46667 C 10.91 g/m*3 14.47 C 2 km/h
475 12-08-2014 04:00:00 13.975 C 10.93 g/m*3 13.98 C 2.94167 km/h
Sensor: Nr:Datum:Temp:Abs-Feuchte:Windchill:Wind:
Aussen-T/F 476 12-08-2014 05:00:00 14.225 C 10.76 g/m*3 14.23 C 4.81667 km/h
477 12-08-2014 06:00:00 14.1 C 10.64 g/m*3 14.1 C 1.86667 km/h
478 12-08-2014 07:00:00 13.80833 C 10.76 g/m*3 13.81 C 0.53333 km/h
479 12-08-2014 08:00:00 14.375 C 11.11 g/m*3 14.38 C 2.54167 km/h
480 12-08-2014 09:00:00 15.88333 C 11 g/m*3 15.88 C 10.61667 km/h
481 12-08-2014 10:00:00 17.10833 C 10.63 g/m*3 17.11 C 13.56667 km/h
482 12-08-2014 11:00:00 18.5 C 10.5 g/m*3 18.5 C 13.55833 km/h
483 12-08-2014 12:00:00 19.80833 C 9.91 g/m*3 19.81 C 14.5 km/h
484 12-08-2014 13:00:00 20.46667 C 9.72 g/m*3 20.47 C 14.23333 km/h
485 12-08-2014 14:00:00 21.59167 C 9.97 g/m*3 21.59 C 14.63333 km/h
486 12-08-2014 15:00:00 22.775 C 9.93 g/m*3 22.78 C 15.96667 km/h
487 12-08-2014 16:00:00 23.30833 C 10.01 g/m*3 23.31 C 14.89167 km/h
488 12-08-2014 17:00:00 22.31667 C 9.87 g/m*3 22.32 C 14.64167 km/h
489 12-08-2014 18:00:00 22.16667 C 10.22 g/m*3 22.17 C 9.825 km/h
490 12-08-2014 19:00:00 21.04167 C 11.29 g/m*3 21.04 C 4.15 km/h
491 12-08-2014 20:00:00 18.46667 C 11.33 g/m*3 18.47 C 2 km/h
492 12-08-2014 21:00:00 17.16667 C 11.12 g/m*3 17.17 C 0.93333 km/h
493 12-08-2014 22:00:00 16.41667 C 10.86 g/m*3 16.42 C 0 km/h
494 12-08-2014 23:00:00 15.05833 C 10.64 g/m*3 15.06 C 0 km/h
495 13-08-2014 00:00:00 14.33333 C 10.8 g/m*3 14.33 C 0 km/h
496 13-08-2014 01:00:00 14.09167 C 10.93 g/m*3 14.09 C 0 km/h
497 13-08-2014 02:00:00 13.95833 C 10.95 g/m*3 13.96 C 0 km/h
498 13-08-2014 03:00:00 14.075 C 11.01 g/m*3 14.08 C 0 km/h
499 13-08-2014 04:00:00 14.125 C 11 g/m*3 14.13 C 0 km/h
500 13-08-2014 05:00:00 14.11667 C 11.06 g/m*3 14.12 C 0 km/h
Sensor: Nr:Datum:Temp:Abs-Feuchte:Windchill:Wind:
Aussen-T/F 501 13-08-2014 06:00:00 13.61667 C 10.9 g/m*3 13.62 C 0 km/h
502 13-08-2014 07:00:00 14 C 11.25 g/m*3 14 C 0 km/h
503 13-08-2014 08:00:00 14.98333 C 11.68 g/m*3 14.98 C 0 km/h
504 13-08-2014 09:00:00 16.70833 C 12.16 g/m*3 16.71 C 0 km/h
505 13-08-2014 10:00:00 18.325 C 12.21 g/m*3 18.33 C 3.75 km/h
506 13-08-2014 11:00:00 19.50833 C 12.51 g/m*3 19.51 C 3.74167 km/h
507 13-08-2014 12:00:00 19.825 C 12.67 g/m*3 19.83 C 2.8 km/h
508 13-08-2014 13:00:00 19.48333 C 13.4 g/m*3 19.48 C 0.93333 km/h
509 13-08-2014 14:00:00 18.73333 C 14.17 g/m*3 18.73 C 0 km/h
510 13-08-2014 15:00:00 17.98333 C 14.17 g/m*3 17.98 C 0 km/h
511 13-08-2014 16:00:00 17.16667 C 13.54 g/m*3 17.17 C 0.675 km/h
512 13-08-2014 17:00:00 15.85 C 12.62 g/m*3 15.85 C 4.975 km/h
513 13-08-2014 18:00:00 15.68333 C 12.8 g/m*3 15.68 C 0 km/h
514 13-08-2014 19:00:00 15.70833 C 12.86 g/m*3 15.71 C 0 km/h
515 13-08-2014 20:00:00 15.6 C 12.89 g/m*3 15.6 C 0 km/h
516 13-08-2014 21:00:00 15.28333 C 12.59 g/m*3 15.28 C 0.13333 km/h
517 13-08-2014 22:00:00 15.13333 C 12.28 g/m*3 15.13 C 0 km/h
518 13-08-2014 23:00:00 15.15 C 12.23 g/m*3 15.15 C 4.95833 km/h
519 14-08-2014 00:00:00 14.95 C 11.89 g/m*3 14.95 C 3.74167 km/h
520 14-08-2014 01:00:00 14.58333 C 11.54 g/m*3 14.58 C 2.26667 km/h
521 14-08-2014 02:00:00 13.85833 C 11.34 g/m*3 13.86 C 0 km/h
522 14-08-2014 03:00:00 13.35 C 11.14 g/m*3 13.35 C 0 km/h
523 14-08-2014 04:00:00 13.20833 C 11.14 g/m*3 13.21 C 0.13333 km/h
524 14-08-2014 05:00:00 13.06667 C 11.05 g/m*3 13.07 C 0 km/h
525 14-08-2014 06:00:00 12.91667 C 10.94 g/m*3 12.92 C 0 km/h
Sensor: Nr:Datum:Temp:Abs-Feuchte:Windchill:Wind:
Aussen-T/F 526 14-08-2014 07:00:00 13.53333 C 11.31 g/m*3 13.53 C 1.74167 km/h
527 14-08-2014 08:00:00 14.86667 C 11.36 g/m*3 14.87 C 5.36667 km/h
528 14-08-2014 09:00:00 15.51667 C 11.62 g/m*3 15.52 C 5.10833 km/h
529 14-08-2014 10:00:00 16.51667 C 11.53 g/m*3 16.52 C 11 km/h
530 14-08-2014 11:00:00 17.20833 C 11.4 g/m*3 17.21 C 11.025 km/h
531 14-08-2014 12:00:00 18.96667 C 11.63 g/m*3 18.97 C 14.76667 km/h
532 14-08-2014 13:00:00 19.525 C 11.71 g/m*3 19.52 C 13.03333 km/h
533 14-08-2014 14:00:00 19.775 C 12.07 g/m*3 19.77 C 15.03333 km/h
534 14-08-2014 15:00:00 20.125 C 11.87 g/m*3 20.13 C 12.36667 km/h
535 14-08-2014 16:00:00 19.63333 C 11.8 g/m*3 19.63 C 7.25 km/h
536 14-08-2014 17:00:00 20.83333 C 11.78 g/m*3 20.83 C 6.56667 km/h
537 14-08-2014 18:00:00 19.16667 C 11.68 g/m*3 19.17 C 10.325 km/h
538 14-08-2014 19:00:00 16.38 C 11.29 g/m*3 16.38 C 3.04 km/h
539 14-08-2014 20:00:00 15.22727 C 11.36 g/m*3 15.23 C 0.29091 km/h
540 14-08-2014 21:00:00 14.71111 C 11.32 g/m*3 14.71 C 0 km/h
541 14-08-2014 22:00:00 14.70833 C 11.42 g/m*3 14.71 C 0 km/h
542 14-08-2014 23:00:00 14.675 C 11.25 g/m*3 14.68 C 0.93333 km/h
543 15-08-2014 00:00:00 14.26667 C 10.92 g/m*3 14.27 C 0.8 km/h
544 15-08-2014 01:00:00 13.55833 C 10.61 g/m*3 13.56 C 0 km/h
545 15-08-2014 02:00:00 13.55 C 10.56 g/m*3 13.55 C 0.26667 km/h
546 15-08-2014 03:00:00 12.99167 C 10.54 g/m*3 12.99 C 0 km/h
547 15-08-2014 04:00:00 13.20833 C 10.8 g/m*3 13.21 C 0 km/h
548 15-08-2014 05:00:00 13.39167 C 10.92 g/m*3 13.39 C 0 km/h
549 15-08-2014 06:00:00 13.525 C 10.98 g/m*3 13.53 C 0 km/h
550 15-08-2014 07:00:00 13.75 C 11.11 g/m*3 13.75 C 0 km/h
Sensor: Nr:Datum:Temp:Abs-Feuchte:Windchill:Wind:
Aussen-T/F 551 15-08-2014 08:00:00 14.15 C 11.21 g/m*3 14.15 C 0.8 km/h
552 15-08-2014 09:00:00 14.68333 C 11.52 g/m*3 14.68 C 3.225 km/h
553 15-08-2014 10:00:00 15.34167 C 11.82 g/m*3 15.34 C 6.575 km/h
554 15-08-2014 11:00:00 15.69167 C 11.76 g/m*3 15.69 C 3.6 km/h
555 15-08-2014 12:00:00 15.76667 C 12.09 g/m*3 15.77 C 2.93333 km/h
556 15-08-2014 13:00:00 16.18889 C 11.82 g/m*3 16.19 C 2.48889 km/h
557 15-08-2014 14:00:00 15.68333 C 11.85 g/m*3 15.68 C 3.74167 km/h
558 15-08-2014 15:00:00 15.36667 C 12.05 g/m*3 15.37 C 1.2 km/h
559 15-08-2014 16:00:00 15.625 C 12.01 g/m*3 15.63 C 1.2 km/h
560 15-08-2014 17:00:00 14.54167 C 11.69 g/m*3 14.54 C 1.06667 km/h
561 15-08-2014 18:00:00 16.99167 C 12.87 g/m*3 16.99 C 0.66667 km/h
562 15-08-2014 19:00:00 14.875 C 11.96 g/m*3 14.88 C 0 km/h
563 15-08-2014 20:00:00 14.41667 C 11.91 g/m*3 14.42 C 0.13333 km/h
564 15-08-2014 21:00:00 14.15833 C 11.74 g/m*3 14.16 C 0.26667 km/h
565 15-08-2014 22:00:00 13.74167 C 11.51 g/m*3 13.74 C 0 km/h
566 15-08-2014 23:00:00 13.275 C 11.19 g/m*3 13.28 C 0 km/h
567 16-08-2014 00:00:00 12.83333 C 10.89 g/m*3 12.83 C 0 km/h
568 16-08-2014 01:00:00 12.725 C 10.84 g/m*3 12.73 C 0 km/h
569 16-08-2014 02:00:00 12.95833 C 11.09 g/m*3 12.96 C 0 km/h
570 16-08-2014 03:00:00 12.9 C 11.05 g/m*3 12.9 C 0 km/h
571 16-08-2014 04:00:00 12.91667 C 11.06 g/m*3 12.92 C 0 km/h
572 16-08-2014 05:00:00 12.54167 C 10.77 g/m*3 12.54 C 0 km/h
573 16-08-2014 06:00:00 12.51667 C 10.78 g/m*3 12.52 C 0 km/h
574 16-08-2014 07:00:00 12.41667 C 10.68 g/m*3 12.42 C 0 km/h
575 16-08-2014 08:00:00 13.20833 C 11.04 g/m*3 13.21 C 0 km/h
Sensor: Nr:Datum:Temp:Abs-Feuchte:Windchill:Wind:
Aussen-T/F 576 16-08-2014 09:00:00 13.975 C 11.17 g/m*3 13.98 C 3.89167 km/h
577 16-08-2014 10:00:00 15 C 11.68 g/m*3 15 C 4.83333 km/h
578 16-08-2014 11:00:00 15.09167 C 12.25 g/m*3 15.09 C 0.66667 km/h
579 16-08-2014 12:00:00 16.29167 C 12.43 g/m*3 16.29 C 3.89167 km/h
580 16-08-2014 13:00:00 17.09167 C 12.62 g/m*3 17.09 C 4.69167 km/h
581 16-08-2014 14:00:00 18.4 C 11.6 g/m*3 18.4 C 8.06667 km/h
582 16-08-2014 15:00:00 20.40833 C 11.33 g/m*3 20.41 C 11.15833 km/h
583 16-08-2014 16:00:00 20.41667 C 11.61 g/m*3 20.42 C 6.7 km/h
584 16-08-2014 17:00:00 19.56667 C 11.65 g/m*3 19.57 C 7.11667 km/h
585 16-08-2014 18:00:00 17.49167 C 11.81 g/m*3 17.49 C 4.29167 km/h
586 16-08-2014 19:00:00 15.75833 C 11.88 g/m*3 15.76 C 4.15 km/h
587 16-08-2014 20:00:00 14.68333 C 11.72 g/m*3 14.68 C 1.73333 km/h
588 16-08-2014 21:00:00 14.9 C 11.57 g/m*3 14.9 C 1.06667 km/h
589 16-08-2014 22:00:00 14.58333 C 11.73 g/m*3 14.58 C 0 km/h
590 16-08-2014 23:00:00 14.51667 C 11.83 g/m*3 14.52 C 0 km/h
591 17-08-2014 00:00:00 14.49167 C 11.63 g/m*3 14.49 C 0 km/h
592 17-08-2014 01:00:00 13.84167 C 11.19 g/m*3 13.84 C 0 km/h
593 17-08-2014 02:00:00 13.61667 C 11.13 g/m*3 13.62 C 0 km/h
594 17-08-2014 03:00:00 13.81667 C 11.2 g/m*3 13.82 C 0 km/h
595 17-08-2014 04:00:00 13.65 C 11.16 g/m*3 13.65 C 0 km/h
596 17-08-2014 05:00:00 13.525 C 11.12 g/m*3 13.53 C 0 km/h
597 17-08-2014 06:00:00 13.21667 C 10.92 g/m*3 13.22 C 0 km/h
598 17-08-2014 07:00:00 12.75 C 10.67 g/m*3 12.75 C 0 km/h
599 17-08-2014 08:00:00 13.76667 C 10.88 g/m*3 13.77 C 3.35 km/h
600 17-08-2014 09:00:00 15.525 C 10.69 g/m*3 15.53 C 10.21667 km/h
Sensor: Nr:Datum:Temp:Abs-Feuchte:Windchill:Wind:
Aussen-T/F 601 17-08-2014 10:00:00 16.61667 C 10.84 g/m*3 16.62 C 11.94167 km/h
602 17-08-2014 11:00:00 17.575 C 10.62 g/m*3 17.58 C 15.03333 km/h
603 17-08-2014 12:00:00 18.49167 C 10.19 g/m*3 18.49 C 18.5 km/h
604 17-08-2014 13:00:00 18.375 C 9.89 g/m*3 18.38 C 13.7 km/h
605 17-08-2014 14:00:00 18.09167 C 9.74 g/m*3 18.09 C 14.1 km/h
606 17-08-2014 15:00:00 18.36667 C 9.72 g/m*3 18.37 C 11.55 km/h
607 17-08-2014 16:00:00 18.66667 C 9.81 g/m*3 18.67 C 13.69167 km/h
608 17-08-2014 17:00:00 18.31667 C 9.81 g/m*3 18.32 C 8.325 km/h
609 17-08-2014 18:00:00 18.375 C 10.04 g/m*3 18.38 C 8.73333 km/h
610 17-08-2014 19:00:00 17.89167 C 10.44 g/m*3 17.89 C 6.30833 km/h
611 17-08-2014 20:00:00 17.56667 C 10.35 g/m*3 17.57 C 7.65 km/h
612 17-08-2014 21:00:00 17.18333 C 10.11 g/m*3 17.18 C 6.30833 km/h
613 17-08-2014 22:00:00 16.775 C 9.85 g/m*3 16.77 C 7.91667 km/h
614 17-08-2014 23:00:00 16.88333 C 9.91 g/m*3 16.88 C 9.13333 km/h
615 18-08-2014 00:00:00 17.05 C 10.03 g/m*3 17.05 C 12.225 km/h
616 18-08-2014 01:00:00 16.675 C 9.96 g/m*3 16.68 C 11.29167 km/h
617 18-08-2014 02:00:00 16.21667 C 9.88 g/m*3 16.22 C 10.61667 km/h
618 18-08-2014 03:00:00 15.95 C 9.94 g/m*3 15.95 C 10.35 km/h
619 18-08-2014 04:00:00 15.70833 C 10.11 g/m*3 15.71 C 11.425 km/h
620 18-08-2014 05:00:00 15.06667 C 10.34 g/m*3 15.07 C 10.74167 km/h
621 18-08-2014 06:00:00 14.95 C 10.31 g/m*3 14.95 C 10.89167 km/h
622 18-08-2014 07:00:00 14.95 C 10.39 g/m*3 14.95 C 9.55 km/h
623 18-08-2014 08:00:00 14.23333 C 10.62 g/m*3 14.23 C 8.325 km/h
624 18-08-2014 09:00:00 13.65 C 10.86 g/m*3 13.65 C 4.28333 km/h
625 18-08-2014 10:00:00 14.26667 C 11.15 g/m*3 14.27 C 6.16667 km/h
Sensor: Nr:Datum:Temp:Abs-Feuchte:Windchill:Wind:
Aussen-T/F 626 18-08-2014 11:00:00 15.84167 C 11.52 g/m*3 15.84 C 9.825 km/h
627 18-08-2014 12:00:00 17.175 C 10.98 g/m*3 17.18 C 10.89167 km/h
628 18-08-2014 13:00:00 17.4 C 10.55 g/m*3 17.4 C 13.55833 km/h
629 18-08-2014 14:00:00 16.50833 C 10.77 g/m*3 16.51 C 6.85833 km/h
630 18-08-2014 15:00:00 17.51667 C 10.96 g/m*3 17.52 C 5.75833 km/h
631 18-08-2014 16:00:00 19.4 C 10.39 g/m*3 19.4 C 11.69167 km/h
632 18-08-2014 17:00:00 20.59167 C 8.18 g/m*3 20.59 C 17.96667 km/h
633 18-08-2014 18:00:00 19.525 C 8.92 g/m*3 19.52 C 11.025 km/h
634 18-08-2014 19:00:00 18.675 C 8.78 g/m*3 18.68 C 12.35833 km/h
635 18-08-2014 20:00:00 17.03333 C 9.74 g/m*3 17.03 C 3.9 km/h
636 18-08-2014 21:00:00 14.76667 C 10.43 g/m*3 14.77 C 0.13333 km/h
637 18-08-2014 22:00:00 14.225 C 10.34 g/m*3 14.23 C 0 km/h
638 18-08-2014 23:00:00 13.925 C 10.25 g/m*3 13.93 C 0 km/h
639 19-08-2014 00:00:00 13.5 C 10.05 g/m*3 13.5 C 0 km/h
640 19-08-2014 01:00:00 12.44167 C 9.65 g/m*3 12.44 C 0 km/h
641 19-08-2014 02:00:00 11.60833 C 9.43 g/m*3 11.61 C 0 km/h
642 19-08-2014 03:00:00 10.93333 C 9.23 g/m*3 10.93 C 0 km/h
643 19-08-2014 04:00:00 10.525 C 9.07 g/m*3 10.53 C 0 km/h
644 19-08-2014 05:00:00 10.29167 C 9.06 g/m*3 10.29 C 0 km/h
645 19-08-2014 06:00:00 10.45833 C 9.19 g/m*3 10.46 C 1.46667 km/h
646 19-08-2014 07:00:00 11.00833 C 9.46 g/m*3 11.01 C 1.6 km/h
647 19-08-2014 08:00:00 12.3 C 10.01 g/m*3 12.3 C 6.96667 km/h
648 19-08-2014 09:00:00 13.99167 C 10.25 g/m*3 13.99 C 9.28333 km/h
649 19-08-2014 10:00:00 15.54167 C 10.27 g/m*3 15.54 C 14.63333 km/h
650 19-08-2014 11:00:00 16.39167 C 10.23 g/m*3 16.39 C 15.96667 km/h
Sensor: Nr:Datum:Temp:Abs-Feuchte:Windchill:Wind:
Aussen-T/F 651 19-08-2014 12:00:00 17.94167 C 10.13 g/m*3 17.94 C 15.29167 km/h
652 19-08-2014 13:00:00 19.725 C 9.92 g/m*3 19.73 C 14.625 km/h
653 19-08-2014 14:00:00 19.59167 C 10 g/m*3 19.59 C 16.63333 km/h
654 19-08-2014 15:00:00 15.925 C 10.31 g/m*3 15.93 C 12.35 km/h
655 19-08-2014 16:00:00 14.54167 C 10.94 g/m*3 14.54 C 4.175 km/h
656 19-08-2014 17:00:00 15.13333 C 11.58 g/m*3 15.13 C 0 km/h
657 19-08-2014 18:00:00 14.63333 C 11.02 g/m*3 14.63 C 4.69167 km/h
658 19-08-2014 19:00:00 13.95833 C 9.37 g/m*3 13.96 C 7.65 km/h
659 19-08-2014 20:00:00 13.89167 C 8.93 g/m*3 13.89 C 5.08333 km/h
660 19-08-2014 21:00:00 12.86667 C 9.56 g/m*3 12.87 C 1.60833 km/h
661 19-08-2014 22:00:00 11.95 C 9.56 g/m*3 11.95 C 0 km/h
662 19-08-2014 23:00:00 11.96667 C 9.3 g/m*3 11.97 C 0 km/h
663 20-08-2014 00:00:00 12.025 C 9 g/m*3 12.03 C 0 km/h
664 20-08-2014 01:00:00 11.25 C 8.73 g/m*3 11.25 C 0 km/h
665 20-08-2014 02:00:00 10.55 C 8.5 g/m*3 10.55 C 0 km/h
666 20-08-2014 03:00:00 9.49167 C 8.26 g/m*3 9.49 C 0 km/h
667 20-08-2014 04:00:00 8.61667 C 8.03 g/m*3 8.62 C 0 km/h
668 20-08-2014 05:00:00 8.33333 C 7.95 g/m*3 8.33 C 0 km/h
669 20-08-2014 06:00:00 8.14167 C 7.88 g/m*3 8.14 C 0 km/h
670 20-08-2014 07:00:00 7.98333 C 7.85 g/m*3 7.98 C 0 km/h
671 20-08-2014 08:00:00 8.675 C 8.26 g/m*3 8.68 C 1.33333 km/h
672 20-08-2014 09:00:00 10.58333 C 8.97 g/m*3 10.58 C 1.06667 km/h
673 20-08-2014 10:00:00 11.96667 C 9.42 g/m*3 11.97 C 0.4 km/h
674 20-08-2014 11:00:00 13.79167 C 9.61 g/m*3 13.79 C 0.93333 km/h
675 20-08-2014 12:00:00 16.14167 C 9.29 g/m*3 16.14 C 2.95 km/h
Sensor: Nr:Datum:Temp:Abs-Feuchte:Windchill:Wind:
Aussen-T/F 676 20-08-2014 13:00:00 14.675 C 10.52 g/m*3 14.68 C 0.675 km/h
677 20-08-2014 14:00:00 17.70833 C 8.87 g/m*3 17.71 C 6.16667 km/h
678 20-08-2014 15:00:00 17.325 C 10.52 g/m*3 17.33 C 0.66667 km/h
679 20-08-2014 16:00:00 17.79167 C 9.58 g/m*3 17.79 C 5.21667 km/h
680 20-08-2014 17:00:00 17.55833 C 10.62 g/m*3 17.56 C 0.80833 km/h
681 20-08-2014 18:00:00 17.16667 C 11.02 g/m*3 17.17 C 1.2 km/h
682 20-08-2014 19:00:00 15.01667 C 10.28 g/m*3 15.02 C 2.94167 km/h
683 20-08-2014 20:00:00 14.13333 C 10.04 g/m*3 14.13 C 0.66667 km/h
684 20-08-2014 21:00:00 12.825 C 9.13 g/m*3 12.83 C 2.28333 km/h
685 20-08-2014 22:00:00 11.83333 C 9.15 g/m*3 11.83 C 0 km/h
686 20-08-2014 23:00:00 10.9 C 8.95 g/m*3 10.9 C 0 km/h
687 21-08-2014 00:00:00 10.35833 C 8.72 g/m*3 10.36 C 0 km/h
688 21-08-2014 01:00:00 9.63333 C 8.51 g/m*3 9.63 C 0 km/h
689 21-08-2014 02:00:00 9.725 C 8.63 g/m*3 9.73 C 0 km/h
690 21-08-2014 03:00:00 9.35 C 8.41 g/m*3 9.35 C 0 km/h
691 21-08-2014 04:00:00 8.90833 C 8.26 g/m*3 8.91 C 0 km/h
692 21-08-2014 05:00:00 8.54167 C 8.13 g/m*3 8.54 C 0 km/h
693 21-08-2014 06:00:00 8.2 C 7.96 g/m*3 8.2 C 0.13333 km/h
694 21-08-2014 07:00:00 8.20833 C 8.04 g/m*3 8.21 C 0.13333 km/h
695 21-08-2014 08:00:00 8.76667 C 8.34 g/m*3 8.77 C 0.13333 km/h
696 21-08-2014 09:00:00 9.94167 C 8.92 g/m*3 9.94 C 0.4 km/h
697 21-08-2014 10:00:00 12.58333 C 9.44 g/m*3 12.58 C 6.70833 km/h
698 21-08-2014 11:00:00 14.55833 C 9.54 g/m*3 14.56 C 3.61667 km/h
699 21-08-2014 12:00:00 16.725 C 9.87 g/m*3 16.73 C 5.75833 km/h
700 21-08-2014 13:00:00 15.10833 C 10.4 g/m*3 15.11 C 1.475 km/h
Sensor: Nr:Datum:Temp:Abs-Feuchte:Windchill:Wind:
Aussen-T/F 701 21-08-2014 14:00:00 17.36667 C 9.68 g/m*3 17.37 C 3.48333 km/h
702 21-08-2014 15:00:00 17.75833 C 9.83 g/m*3 17.76 C 4.825 km/h
703 21-08-2014 16:00:00 18.6 C 9.97 g/m*3 18.6 C 4.13333 km/h
704 21-08-2014 17:00:00 18.75833 C 9.64 g/m*3 18.76 C 7.39167 km/h
705 21-08-2014 18:00:00 17.5 C 10.27 g/m*3 17.5 C 2 km/h
706 21-08-2014 19:00:00 14.91667 C 10.13 g/m*3 14.92 C 2.66667 km/h
707 21-08-2014 20:00:00 14.125 C 9.94 g/m*3 14.13 C 1.2 km/h
708 21-08-2014 21:00:00 13.75833 C 9.86 g/m*3 13.76 C 0.13333 km/h
709 21-08-2014 22:00:00 12.98333 C 9.67 g/m*3 12.98 C 0 km/h
710 21-08-2014 23:00:00 11.94167 C 9.26 g/m*3 11.94 C 0 km/h
711 22-08-2014 00:00:00 11 C 8.87 g/m*3 11 C 0 km/h
712 22-08-2014 01:00:00 10.16667 C 8.57 g/m*3 10.17 C 0 km/h
713 22-08-2014 02:00:00 9.36667 C 8.24 g/m*3 9.37 C 0 km/h
714 22-08-2014 03:00:00 8.76667 C 8.06 g/m*3 8.77 C 0 km/h
715 22-08-2014 04:00:00 8.25833 C 7.85 g/m*3 8.26 C 0 km/h
716 22-08-2014 05:00:00 8.31667 C 7.96 g/m*3 8.32 C 0 km/h
717 22-08-2014 06:00:00 9.06667 C 8.28 g/m*3 9.07 C 0 km/h
718 22-08-2014 07:00:00 10 C 8.56 g/m*3 10 C 0 km/h
719 22-08-2014 08:00:00 11.28333 C 8.76 g/m*3 11.28 C 3.35 km/h
720 22-08-2014 09:00:00 12.725 C 9.12 g/m*3 12.73 C 6.99167 km/h
721 22-08-2014 10:00:00 14.53333 C 9.66 g/m*3 14.53 C 5.61667 km/h
722 22-08-2014 11:00:00 17.275 C 9.52 g/m*3 17.27 C 10.63333 km/h
723 22-08-2014 12:00:00 18.23333 C 9.15 g/m*3 18.23 C 13.16667 km/h
724 22-08-2014 13:00:00 18.63333 C 9.13 g/m*3 18.63 C 13.03333 km/h
725 22-08-2014 14:00:00 18.51667 C 9.12 g/m*3 18.52 C 10.1 km/h
Sensor: Nr:Datum:Temp:Abs-Feuchte:Windchill:Wind:
Aussen-T/F 726 22-08-2014 15:00:00 18.81667 C 9.89 g/m*3 18.82 C 6.04167 km/h
727 22-08-2014 16:00:00 18.76667 C 10.14 g/m*3 18.77 C 7.65 km/h
728 22-08-2014 17:00:00 17.35 C 10.95 g/m*3 17.35 C 1.2 km/h
729 22-08-2014 18:00:00 18.89167 C 10.57 g/m*3 18.89 C 4.7 km/h
730 22-08-2014 19:00:00 17.70833 C 10.91 g/m*3 17.71 C 2.26667 km/h
731 22-08-2014 20:00:00 15.975 C 10.49 g/m*3 15.98 C 2 km/h
732 22-08-2014 21:00:00 14.75833 C 10.4 g/m*3 14.76 C 0.26667 km/h
733 22-08-2014 22:00:00 14.23333 C 10.32 g/m*3 14.23 C 0 km/h
734 22-08-2014 23:00:00 14.33333 C 10.52 g/m*3 14.33 C 0 km/h
735 23-08-2014 00:00:00 14.49167 C 10.27 g/m*3 14.49 C 0 km/h
736 23-08-2014 01:00:00 13.70833 C 10.27 g/m*3 13.71 C 0 km/h
737 23-08-2014 02:00:00 13.925 C 10.3 g/m*3 13.93 C 0 km/h
738 23-08-2014 03:00:00 13.93333 C 10.33 g/m*3 13.93 C 2.275 km/h
739 23-08-2014 04:00:00 13.81667 C 10.32 g/m*3 13.82 C 4.14167 km/h
740 23-08-2014 05:00:00 13.58333 C 10.37 g/m*3 13.58 C 3.20833 km/h
741 23-08-2014 06:00:00 13.28333 C 10.45 g/m*3 13.28 C 2.4 km/h
742 23-08-2014 07:00:00 13.04167 C 10.43 g/m*3 13.04 C 0.26667 km/h
743 23-08-2014 08:00:00 13.79167 C 10.61 g/m*3 13.79 C 5.35833 km/h
744 23-08-2014 09:00:00 14.85 C 10.58 g/m*3 14.85 C 10.49167 km/h
745 23-08-2014 10:00:00 16.18333 C 10.26 g/m*3 16.18 C 11.83333 km/h
746 23-08-2014 11:00:00 17.21667 C 9.61 g/m*3 17.22 C 12.5 km/h
747 23-08-2014 12:00:00 18.2 C 9.26 g/m*3 18.2 C 13.3 km/h
748 23-08-2014 13:00:00 18.79167 C 9.43 g/m*3 18.79 C 13.96667 km/h
749 23-08-2014 14:00:00 19.23333 C 9.64 g/m*3 19.23 C 13.7 km/h
750 23-08-2014 15:00:00 16.38333 C 10.04 g/m*3 16.38 C 6.55833 km/h
Sensor: Nr:Datum:Temp:Abs-Feuchte:Windchill:Wind:
Aussen-T/F 751 23-08-2014 16:00:00 14.05833 C 10.43 g/m*3 14.06 C 2.13333 km/h
752 23-08-2014 17:00:00 12.85 C 10.21 g/m*3 12.85 C 4.825 km/h
753 23-08-2014 18:00:00 13.79167 C 10.74 g/m*3 13.79 C 1.6 km/h
754 23-08-2014 19:00:00 12.54167 C 10.36 g/m*3 12.54 C 0.93333 km/h
755 23-08-2014 20:00:00 11.85833 C 9.89 g/m*3 11.86 C 1.73333 km/h
756 23-08-2014 21:00:00 11.35833 C 9.73 g/m*3 11.36 C 1.33333 km/h
757 23-08-2014 22:00:00 11.05833 C 9.55 g/m*3 11.06 C 1.06667 km/h
758 23-08-2014 23:00:00 10.5 C 9.3 g/m*3 10.5 C 0.4 km/h
759 24-08-2014 00:00:00 10.06667 C 9.06 g/m*3 10.07 C 0.26667 km/h
760 24-08-2014 01:00:00 9.725 C 8.88 g/m*3 9.73 C 0.66667 km/h
761 24-08-2014 02:00:00 10.26667 C 9.23 g/m*3 9.8 C 5.90833 km/h
762 24-08-2014 03:00:00 10.33333 C 9.09 g/m*3 10.33 C 0.8 km/h
763 24-08-2014 04:00:00 9.80833 C 8.91 g/m*3 9.81 C 0.53333 km/h
764 24-08-2014 05:00:00 8.95 C 8.44 g/m*3 8.95 C 0.26667 km/h
765 24-08-2014 06:00:00 8.90833 C 8.42 g/m*3 8.91 C 1.33333 km/h
766 24-08-2014 07:00:00 9.53333 C 8.7 g/m*3 9.53 C 2.93333 km/h
767 24-08-2014 08:00:00 10.06667 C 8.82 g/m*3 10.07 C 4.30833 km/h
768 24-08-2014 09:00:00 11.16667 C 9.11 g/m*3 11.17 C 8.89167 km/h
769 24-08-2014 10:00:00 11.93333 C 9.28 g/m*3 11.93 C 11.95833 km/h
770 24-08-2014 11:00:00 13.25833 C 9.55 g/m*3 13.26 C 11.3 km/h
771 24-08-2014 12:00:00 14.70833 C 9.92 g/m*3 14.71 C 8.59167 km/h
772 24-08-2014 13:00:00 15.66667 C 9.94 g/m*3 15.67 C 10.33333 km/h
773 24-08-2014 14:00:00 10.76667 C 9.38 g/m*3 10.77 C 1.06667 km/h
774 24-08-2014 15:00:00 12.69167 C 10.79 g/m*3 12.69 C 0.26667 km/h
775 24-08-2014 16:00:00 13.76667 C 11.42 g/m*3 13.77 C 0.13333 km/h
Sensor: Nr:Datum:Temp:Abs-Feuchte:Windchill:Wind:
Aussen-T/F 776 24-08-2014 17:00:00 13.275 C 11.11 g/m*3 13.28 C 1.2 km/h
777 24-08-2014 18:00:00 13.51667 C 11.3 g/m*3 13.52 C 0.4 km/h
778 24-08-2014 19:00:00 13.575 C 11.25 g/m*3 13.58 C 0.13333 km/h
779 24-08-2014 20:00:00 12.74167 C 10.76 g/m*3 12.74 C 0.66667 km/h
780 24-08-2014 21:00:00 11.675 C 10.11 g/m*3 11.68 C 0.26667 km/h
781 24-08-2014 22:00:00 11.225 C 9.85 g/m*3 11.23 C 0 km/h
782 24-08-2014 23:00:00 10.53333 C 9.43 g/m*3 10.53 C 0 km/h
783 25-08-2014 00:00:00 10.38333 C 9.34 g/m*3 10.38 C 0 km/h
784 25-08-2014 01:00:00 10.23333 C 9.34 g/m*3 10.23 C 0 km/h
785 25-08-2014 02:00:00 10.3 C 9.39 g/m*3 10.3 C 0 km/h
786 25-08-2014 03:00:00 10.3 C 9.39 g/m*3 10.3 C 0 km/h
787 25-08-2014 04:00:00 10.21667 C 9.34 g/m*3 10.22 C 0 km/h
788 25-08-2014 05:00:00 10.025 C 9.22 g/m*3 10.03 C 0 km/h
789 25-08-2014 06:00:00 9.75 C 9.06 g/m*3 9.75 C 0 km/h
790 25-08-2014 07:00:00 9.925 C 9.16 g/m*3 9.93 C 0 km/h
791 25-08-2014 08:00:00 10.45 C 9.47 g/m*3 10.45 C 0.26667 km/h
792 25-08-2014 09:00:00 11.16667 C 9.91 g/m*3 11.17 C 0 km/h
793 25-08-2014 10:00:00 12.775 C 10.96 g/m*3 12.78 C 0 km/h
794 25-08-2014 11:00:00 14.25833 C 11.95 g/m*3 14.26 C 0.26667 km/h
795 25-08-2014 12:00:00 15.80833 C 12.11 g/m*3 15.81 C 4.96667 km/h
796 25-08-2014 13:00:00 18.45833 C 11.44 g/m*3 18.46 C 10.88333 km/h
797 25-08-2014 14:00:00 18.25 C 11.64 g/m*3 18.25 C 6.58333 km/h
798 25-08-2014 15:00:00 16.41667 C 12.32 g/m*3 16.42 C 1.06667 km/h
799 25-08-2014 16:00:00 16.325 C 11.98 g/m*3 16.33 C 6.175 km/h
800 25-08-2014 17:00:00 16.04167 C 12.13 g/m*3 16.04 C 1.73333 km/h
Sensor: Nr:Datum:Temp:Abs-Feuchte:Windchill:Wind:
Aussen-T/F 801 25-08-2014 18:00:00 15.39167 C 12.27 g/m*3 15.39 C 0 km/h
802 25-08-2014 19:00:00 14.91667 C 12.17 g/m*3 14.92 C 0 km/h
803 25-08-2014 20:00:00 14.44167 C 11.9 g/m*3 14.44 C 0 km/h
804 25-08-2014 21:00:00 14.2 C 11.84 g/m*3 14.2 C 0 km/h
805 25-08-2014 22:00:00 14.00833 C 11.71 g/m*3 14.01 C 0 km/h
806 25-08-2014 23:00:00 13.68333 C 11.47 g/m*3 13.68 C 0.13333 km/h
807 26-08-2014 00:00:00 13.39167 C 11.27 g/m*3 13.39 C 0 km/h
808 26-08-2014 01:00:00 13.15 C 11.1 g/m*3 13.15 C 0.26667 km/h
809 26-08-2014 02:00:00 12.9 C 11.02 g/m*3 12.9 C 0.53333 km/h
810 26-08-2014 03:00:00 12.81667 C 10.94 g/m*3 12.82 C 0 km/h
811 26-08-2014 04:00:00 12.79167 C 10.97 g/m*3 12.79 C 0.26667 km/h
812 26-08-2014 05:00:00 12.7 C 10.91 g/m*3 12.7 C 0 km/h
813 26-08-2014 06:00:00 12.7 C 10.91 g/m*3 12.7 C 0 km/h
814 26-08-2014 07:00:00 12.78333 C 10.97 g/m*3 12.78 C 0 km/h
815 26-08-2014 08:00:00 13.1 C 11.18 g/m*3 13.1 C 0.13333 km/h
816 26-08-2014 09:00:00 14.13333 C 11.92 g/m*3 14.13 C 0.4 km/h
817 26-08-2014 10:00:00 15.70833 C 13.13 g/m*3 15.71 C 1.86667 km/h
818 26-08-2014 11:00:00 16.45 C 13.47 g/m*3 16.45 C 3.61667 km/h
819 26-08-2014 12:00:00 16.475 C 13.53 g/m*3 16.48 C 1.33333 km/h
820 26-08-2014 13:00:00 17.31667 C 14.07 g/m*3 17.32 C 2.675 km/h
821 26-08-2014 14:00:00 17.525 C 13.71 g/m*3 17.52 C 3.075 km/h
822 26-08-2014 15:00:00 17.425 C 14.1 g/m*3 17.43 C 1.46667 km/h
823 26-08-2014 16:00:00 16.73333 C 13.66 g/m*3 16.73 C 0.53333 km/h
824 26-08-2014 17:00:00 16.44167 C 13.51 g/m*3 16.44 C 0 km/h
825 26-08-2014 18:00:00 16.43333 C 13.57 g/m*3 16.43 C 0 km/h
Sensor: Nr:Datum:Temp:Abs-Feuchte:Windchill:Wind:
Aussen-T/F 826 26-08-2014 19:00:00 16.06667 C 13.27 g/m*3 16.07 C 0.13333 km/h
827 26-08-2014 20:00:00 15.34167 C 12.69 g/m*3 15.34 C 1.33333 km/h
828 26-08-2014 21:00:00 14.49167 C 12.06 g/m*3 14.49 C 2.66667 km/h
829 26-08-2014 22:00:00 14.24167 C 11.87 g/m*3 14.24 C 0.4 km/h
830 26-08-2014 23:00:00 13.95833 C 11.67 g/m*3 13.96 C 0.93333 km/h
831 27-08-2014 00:00:00 13.80833 C 11.61 g/m*3 13.81 C 0.66667 km/h
832 27-08-2014 01:00:00 13.64167 C 11.53 g/m*3 13.64 C 0 km/h
833 27-08-2014 02:00:00 13.59167 C 11.53 g/m*3 13.59 C 0 km/h
834 27-08-2014 03:00:00 13.55833 C 11.5 g/m*3 13.56 C 0 km/h
835 27-08-2014 04:00:00 13.4 C 11.39 g/m*3 13.4 C 0 km/h
836 27-08-2014 05:00:00 13.18333 C 11.24 g/m*3 13.18 C 0 km/h
837 27-08-2014 06:00:00 12.63333 C 10.86 g/m*3 12.63 C 0 km/h
838 27-08-2014 07:00:00 12.33333 C 10.66 g/m*3 12.33 C 0 km/h
839 27-08-2014 08:00:00 13.28182 C 11.39 g/m*3 13.28 C 0 km/h
840 27-08-2014 09:00:00 13.425 C 11.41 g/m*3 13.43 C 0 km/h
841 27-08-2014 10:00:00 14.325 C 11.98 g/m*3 14.33 C 0 km/h
842 27-08-2014 11:00:00 15.475 C 11.85 g/m*3 15.48 C 3.46667 km/h
843 27-08-2014 12:00:00 16.04167 C 12.26 g/m*3 16.04 C 2.00833 km/h
844 27-08-2014 13:00:00 18.08333 C 12.41 g/m*3 18.08 C 3.2 km/h
845 27-08-2014 14:00:00 18.33333 C 13.03 g/m*3 18.33 C 3.75 km/h
846 27-08-2014 15:00:00 20.79167 C 12.34 g/m*3 20.79 C 4.4 km/h
847 27-08-2014 16:00:00 20.48333 C 12.7 g/m*3 20.48 C 1.86667 km/h
848 27-08-2014 17:00:00 19.31667 C 13.13 g/m*3 19.32 C 1.86667 km/h
849 27-08-2014 18:00:00 17.325 C 13.27 g/m*3 17.33 C 0.13333 km/h
850 27-08-2014 19:00:00 16.75 C 12.9 g/m*3 16.75 C 0.26667 km/h
Sensor: Nr:Datum:Temp:Abs-Feuchte:Windchill:Wind:
Aussen-T/F 851 27-08-2014 20:00:00 15.01667 C 11.96 g/m*3 15.02 C 0.53333 km/h
852 27-08-2014 21:00:00 14.61667 C 11.88 g/m*3 14.62 C 0 km/h
853 27-08-2014 22:00:00 14.05833 C 11.47 g/m*3 14.06 C 0 km/h
854 27-08-2014 23:00:00 13.35833 C 11.04 g/m*3 13.36 C 0 km/h
855 28-08-2014 00:00:00 12.78333 C 10.74 g/m*3 12.78 C 0 km/h
856 28-08-2014 01:00:00 12.4 C 10.59 g/m*3 12.4 C 0 km/h
857 28-08-2014 02:00:00 12.13333 C 10.42 g/m*3 12.13 C 0 km/h
858 28-08-2014 03:00:00 12.09167 C 10.4 g/m*3 12.09 C 0 km/h
859 28-08-2014 04:00:00 11.75 C 10.19 g/m*3 11.75 C 0 km/h
860 28-08-2014 05:00:00 11.73333 C 10.19 g/m*3 11.73 C 0 km/h
861 28-08-2014 06:00:00 11.69167 C 10.24 g/m*3 11.69 C 0 km/h
862 28-08-2014 07:00:00 11.61667 C 10.19 g/m*3 11.62 C 0 km/h
863 28-08-2014 08:00:00 11.875 C 10.36 g/m*3 11.88 C 0 km/h
864 28-08-2014 09:00:00 12.79167 C 10.97 g/m*3 12.79 C 0 km/h
865 28-08-2014 10:00:00 14.7 C 12.34 g/m*3 14.7 C 0 km/h
866 28-08-2014 11:00:00 16.75 C 13.68 g/m*3 16.75 C 2 km/h
867 28-08-2014 12:00:00 19.64167 C 14.55 g/m*3 19.64 C 0.66667 km/h
868 28-08-2014 13:00:00 19.575 C 14.65 g/m*3 19.58 C 0.53333 km/h
869 28-08-2014 14:00:00 21.4 C 15.3 g/m*3 21.4 C 2.14167 km/h
870 28-08-2014 15:00:00 21.15 C 14.58 g/m*3 21.15 C 3.475 km/h
871 28-08-2014 16:00:00 20.59167 C 15.15 g/m*3 20.59 C 0.66667 km/h
872 28-08-2014 17:00:00 19.975 C 14.67 g/m*3 19.98 C 2.13333 km/h
873 28-08-2014 18:00:00 19.50833 C 14.97 g/m*3 19.51 C 0.53333 km/h
874 28-08-2014 19:00:00 18.60833 C 14.73 g/m*3 18.61 C 0 km/h
875 28-08-2014 20:00:00 17.61667 C 14.05 g/m*3 17.62 C 0 km/h
Sensor: Nr:Datum:Temp:Abs-Feuchte:Windchill:Wind:
Aussen-T/F 876 28-08-2014 21:00:00 16.8 C 13.65 g/m*3 16.8 C 0.13333 km/h
877 28-08-2014 22:00:00 16.74167 C 13.68 g/m*3 16.74 C 0 km/h
878 28-08-2014 23:00:00 16.25 C 13.31 g/m*3 16.25 C 0 km/h
879 29-08-2014 00:00:00 16.11667 C 13.25 g/m*3 16.12 C 0 km/h
880 29-08-2014 01:00:00 16.05833 C 13.26 g/m*3 16.06 C 0 km/h
881 29-08-2014 02:00:00 16.125 C 13.32 g/m*3 16.13 C 0.13333 km/h
882 29-08-2014 03:00:00 16.33333 C 13.48 g/m*3 16.33 C 0 km/h
883 29-08-2014 04:00:00 16.3 C 13.46 g/m*3 16.3 C 0 km/h
884 29-08-2014 05:00:00 16.00833 C 13.22 g/m*3 16.01 C 0 km/h
885 29-08-2014 06:00:00 15.875 C 13.12 g/m*3 15.88 C 0 km/h
886 29-08-2014 07:00:00 15.725 C 13 g/m*3 15.73 C 0 km/h
887 29-08-2014 08:00:00 16 C 13.17 g/m*3 16 C 0.26667 km/h
888 29-08-2014 09:00:00 17.15833 C 13.32 g/m*3 17.16 C 3.06667 km/h
889 29-08-2014 10:00:00 17.98333 C 13.41 g/m*3 17.98 C 2.675 km/h
890 29-08-2014 11:00:00 18.49167 C 13.35 g/m*3 18.49 C 3.75 km/h
891 29-08-2014 12:00:00 20.08333 C 13.79 g/m*3 20.08 C 3.48333 km/h
892 29-08-2014 13:00:00 22.30833 C 14.13 g/m*3 22.31 C 6.725 km/h
893 29-08-2014 14:00:00 23.80833 C 13.42 g/m*3 23.81 C 7.38333 km/h
894 29-08-2014 15:00:00 23.5 C 13.83 g/m*3 23.5 C 7.25 km/h
895 29-08-2014 16:00:00 22.725 C 14.16 g/m*3 22.73 C 9.8 km/h
896 29-08-2014 17:00:00 20.74167 C 14.38 g/m*3 20.74 C 6.58333 km/h
897 29-08-2014 18:00:00 19.06667 C 14.23 g/m*3 19.07 C 3.36667 km/h
898 29-08-2014 19:00:00 18.05 C 14.39 g/m*3 18.05 C 0.26667 km/h
899 29-08-2014 20:00:00 16.975 C 13.74 g/m*3 16.98 C 0 km/h
900 29-08-2014 21:00:00 16.33333 C 13.35 g/m*3 16.33 C 0 km/h
Sensor: Nr:Datum:Temp:Abs-Feuchte:Windchill:Wind:
Aussen-T/F 901 29-08-2014 22:00:00 15.96667 C 13.14 g/m*3 15.97 C 0.4 km/h
902 29-08-2014 23:00:00 15.53333 C 12.85 g/m*3 15.53 C 0 km/h
903 30-08-2014 00:00:00 15.36667 C 12.72 g/m*3 15.37 C 0 km/h
904 30-08-2014 01:00:00 14.54167 C 12.1 g/m*3 14.54 C 0 km/h
905 30-08-2014 02:00:00 14.475 C 12.08 g/m*3 14.48 C 0 km/h
906 30-08-2014 03:00:00 14.1 C 11.78 g/m*3 14.1 C 0 km/h
907 30-08-2014 04:00:00 13.475 C 11.33 g/m*3 13.48 C 0 km/h
908 30-08-2014 05:00:00 13.06667 C 11.09 g/m*3 13.07 C 0 km/h
909 30-08-2014 06:00:00 13.29167 C 11.31 g/m*3 13.29 C 0 km/h
910 30-08-2014 07:00:00 13.63333 C 11.47 g/m*3 13.63 C 0.4 km/h
911 30-08-2014 08:00:00 14.175 C 11.77 g/m*3 14.18 C 4.55 km/h
912 30-08-2014 09:00:00 15.44167 C 12.21 g/m*3 15.44 C 6.575 km/h
913 30-08-2014 10:00:00 17.075 C 12.62 g/m*3 17.08 C 5.49167 km/h
914 30-08-2014 11:00:00 17.98333 C 12.71 g/m*3 17.98 C 4.15 km/h
915 30-08-2014 12:00:00 19.425 C 12.71 g/m*3 19.43 C 8.48333 km/h
916 30-08-2014 13:00:00 19.78333 C 13 g/m*3 19.78 C 6.03333 km/h
917 30-08-2014 14:00:00 20.575 C 13.08 g/m*3 20.58 C 7.65833 km/h
918 30-08-2014 15:00:00 21.125 C 13.07 g/m*3 21.13 C 10.33333 km/h
919 30-08-2014 16:00:00 19.40833 C 13.05 g/m*3 19.41 C 4.15 km/h
920 30-08-2014 17:00:00 16.825 C 13.33 g/m*3 16.83 C 1.875 km/h
921 30-08-2014 18:00:00 16.475 C 13.4 g/m*3 16.48 C 0.4 km/h
922 30-08-2014 19:00:00 16.26667 C 13.29 g/m*3 16.27 C 0 km/h
923 30-08-2014 20:00:00 15.89167 C 13.08 g/m*3 15.89 C 0.13333 km/h
924 30-08-2014 21:00:00 15.73333 C 13 g/m*3 15.73 C 0 km/h
925 30-08-2014 22:00:00 15.775 C 13.04 g/m*3 15.78 C 0 km/h
Sensor: Nr:Datum:Temp:Abs-Feuchte:Windchill:Wind:
Aussen-T/F 926 30-08-2014 23:00:00 15.68333 C 13.02 g/m*3 15.68 C 2.425 km/h
927 31-08-2014 00:00:00 15.125 C 12.17 g/m*3 15.13 C 3.625 km/h
928 31-08-2014 01:00:00 14.65 C 12.05 g/m*3 14.65 C 0 km/h
929 31-08-2014 02:00:00 14.475 C 12.05 g/m*3 14.48 C 0 km/h
930 31-08-2014 03:00:00 14.375 C 11.97 g/m*3 14.38 C 0 km/h
931 31-08-2014 04:00:00 14.275 C 11.9 g/m*3 14.28 C 0 km/h
932 31-08-2014 05:00:00 13.90833 C 11.63 g/m*3 13.91 C 0 km/h
933 31-08-2014 06:00:00 13.76667 C 11.53 g/m*3 13.77 C 0 km/h
934 31-08-2014 07:00:00 13.85833 C 11.6 g/m*3 13.86 C 0 km/h
935 31-08-2014 08:00:00 13.9 C 11.63 g/m*3 13.9 C 0 km/h
936 31-08-2014 09:00:00 15 C 11.86 g/m*3 15 C 0.8 km/h
937 31-08-2014 10:00:00 16.275 C 11.73 g/m*3 16.27 C 4.14167 km/h
938 31-08-2014 11:00:00 17.25833 C 11.99 g/m*3 17.26 C 2.4 km/h
939 31-08-2014 12:00:00 17.51667 C 11.8 g/m*3 17.52 C 8.2 km/h
940 31-08-2014 13:00:00 18.06667 C 11.91 g/m*3 18.07 C 10.09167 km/h
941 31-08-2014 14:00:00 17.99167 C 12.14 g/m*3 17.99 C 3.35 km/h
942 31-08-2014 15:00:00 14.69167 C 11.37 g/m*3 14.69 C 2.55 km/h
943 31-08-2014 16:00:00 14.5 C 11.85 g/m*3 14.5 C 0 km/h
944 31-08-2014 17:00:00 14.09167 C 11.66 g/m*3 14.09 C 0 km/h
945 31-08-2014 18:00:00 13.81667 C 11.56 g/m*3 13.82 C 0 km/h
946 31-08-2014 19:00:00 13.74167 C 11.52 g/m*3 13.74 C 0 km/h
947 31-08-2014 20:00:00 13.38333 C 11.26 g/m*3 13.38 C 0.4 km/h
948 31-08-2014 21:00:00 13.175 C 11.12 g/m*3 13.18 C 0.8 km/h
949 31-08-2014 22:00:00 12.53333 C 10.69 g/m*3 12.53 C 0 km/h
950 31-08-2014 23:00:00 12.44167 C 10.69 g/m*3 12.44 C 0 km/h
Sensor: Nr:Datum:Temp:Abs-Feuchte:Windchill:Wind:
Aussen-T/F 951 01-09-2014 00:00:00 12.45 C 10.74 g/m*3 12.45 C 0 km/h
952 01-09-2014 01:00:00 12.4 C 10.71 g/m*3 12.4 C 0 km/h
953 01-09-2014 02:00:00 12.70833 C 10.91 g/m*3 12.71 C 0 km/h
954 01-09-2014 03:00:00 12.8 C 10.98 g/m*3 12.8 C 2.26667 km/h
955 01-09-2014 04:00:00 12.80833 C 10.98 g/m*3 12.81 C 0.4 km/h
956 01-09-2014 05:00:00 12.73333 C 10.93 g/m*3 12.73 C 0 km/h
957 01-09-2014 06:00:00 12.7 C 10.91 g/m*3 12.7 C 0 km/h
958 01-09-2014 07:00:00 12.76667 C 10.95 g/m*3 12.77 C 0 km/h
959 01-09-2014 08:00:00 13.225 C 11.25 g/m*3 13.23 C 0 km/h
960 01-09-2014 09:00:00 14.04167 C 11.39 g/m*3 14.04 C 2.66667 km/h
961 01-09-2014 10:00:00 14.825 C 11.29 g/m*3 14.83 C 2.66667 km/h
962 01-09-2014 11:00:00 16.00833 C 11.35 g/m*3 16.01 C 6.16667 km/h
963 01-09-2014 12:00:00 16.49167 C 11.38 g/m*3 16.49 C 4.26667 km/h
964 01-09-2014 13:00:00 17.33333 C 11.85 g/m*3 17.33 C 2 km/h
965 01-09-2014 14:00:00 18.03333 C 11.73 g/m*3 18.03 C 4.54167 km/h
966 01-09-2014 15:00:00 18.75833 C 11.66 g/m*3 18.76 C 3.06667 km/h
967 01-09-2014 16:00:00 17.325 C 12.38 g/m*3 17.33 C 0.53333 km/h
968 01-09-2014 17:00:00 15.90833 C 12.33 g/m*3 15.91 C 0 km/h
969 01-09-2014 18:00:00 15.84167 C 12.44 g/m*3 15.84 C 0 km/h
970 01-09-2014 19:00:00 15.3 C 12.25 g/m*3 15.3 C 0 km/h
971 01-09-2014 20:00:00 14.79167 C 11.88 g/m*3 14.79 C 0.4 km/h
972 01-09-2014 21:00:00 14.45833 C 11.65 g/m*3 14.46 C 0.13333 km/h
973 01-09-2014 22:00:00 13.80833 C 11.19 g/m*3 13.81 C 0 km/h
974 01-09-2014 23:00:00 13.01667 C 10.77 g/m*3 13.02 C 0 km/h
975 02-09-2014 00:00:00 12.71667 C 10.75 g/m*3 12.72 C 0 km/h
Sensor: Nr:Datum:Temp:Abs-Feuchte:Windchill:Wind:
Aussen-T/F 976 02-09-2014 01:00:00 12.45833 C 10.54 g/m*3 12.46 C 0 km/h
977 02-09-2014 02:00:00 11.70833 C 10.1 g/m*3 11.71 C 0 km/h
978 02-09-2014 03:00:00 11.375 C 9.94 g/m*3 11.38 C 0 km/h
979 02-09-2014 04:00:00 11.33333 C 9.91 g/m*3 11.33 C 0 km/h
980 02-09-2014 05:00:00 11.26667 C 9.9 g/m*3 11.27 C 0 km/h
981 02-09-2014 06:00:00 11.01667 C 9.74 g/m*3 11.02 C 0 km/h
982 02-09-2014 07:00:00 10.775 C 9.64 g/m*3 10.78 C 0 km/h
983 02-09-2014 08:00:00 10.85 C 9.72 g/m*3 10.85 C 0 km/h
984 02-09-2014 09:00:00 11.20833 C 9.94 g/m*3 11.21 C 0 km/h
985 02-09-2014 10:00:00 11.95 C 10.41 g/m*3 11.95 C 0 km/h
986 02-09-2014 11:00:00 13.73333 C 11.32 g/m*3 13.73 C 0 km/h
987 02-09-2014 12:00:00 15.81667 C 12.08 g/m*3 15.82 C 1.075 km/h
988 02-09-2014 13:00:00 20.025 C 12.16 g/m*3 20.02 C 8.45833 km/h
989 02-09-2014 14:00:00 20.84167 C 11.47 g/m*3 20.84 C 6.70833 km/h
990 02-09-2014 15:00:00 21.725 C 11.83 g/m*3 21.73 C 6.30833 km/h
991 02-09-2014 16:00:00 18.8 C 13.09 g/m*3 18.8 C 1.46667 km/h
992 02-09-2014 17:00:00 17.69167 C 13.22 g/m*3 17.69 C 0.93333 km/h
993 02-09-2014 18:00:00 17.09167 C 13.03 g/m*3 17.09 C 0.4 km/h
994 02-09-2014 19:00:00 16.45 C 12.88 g/m*3 16.45 C 0 km/h
995 02-09-2014 20:00:00 16.24167 C 12.85 g/m*3 16.24 C 0 km/h
996 02-09-2014 21:00:00 15.61667 C 12.44 g/m*3 15.62 C 0 km/h
997 02-09-2014 22:00:00 15.40833 C 12.48 g/m*3 15.41 C 0 km/h
998 02-09-2014 23:00:00 14.75833 C 11.98 g/m*3 14.76 C 0 km/h
999 03-09-2014 00:00:00 14.725 C 12.15 g/m*3 14.73 C 0 km/h
1000 03-09-2014 01:00:00 14.98333 C 12.39 g/m*3 14.98 C 0 km/h
Sensor: Nr:Datum:Temp:Abs-Feuchte:Windchill:Wind:
Aussen-T/F 1001 03-09-2014 02:00:00 15 C 12.36 g/m*3 15 C 0 km/h
1002 03-09-2014 03:00:00 14.24167 C 11.75 g/m*3 14.24 C 0 km/h
1003 03-09-2014 04:00:00 13.29167 C 11.05 g/m*3 13.29 C 0 km/h
1004 03-09-2014 05:00:00 12.475 C 10.54 g/m*3 12.48 C 0 km/h
1005 03-09-2014 06:00:00 12.00833 C 10.24 g/m*3 12.01 C 0 km/h
1006 03-09-2014 07:00:00 11.725 C 10.08 g/m*3 11.73 C 0 km/h
1007 03-09-2014 08:00:00 12.56667 C 10.67 g/m*3 12.57 C 0.26667 km/h
1008 03-09-2014 09:00:00 13.875 C 10.75 g/m*3 13.88 C 1.86667 km/h
1009 03-09-2014 10:00:00 15.06667 C 10.78 g/m*3 15.07 C 3.48333 km/h
1010 03-09-2014 11:00:00 16.00833 C 10.78 g/m*3 16.01 C 6.975 km/h
1011 03-09-2014 12:00:00 16.73333 C 11.06 g/m*3 16.73 C 7.25833 km/h
1012 03-09-2014 13:00:00 16.85 C 11.16 g/m*3 16.85 C 7.8 km/h
1013 03-09-2014 14:00:00 16.80833 C 11.35 g/m*3 16.81 C 7.24167 km/h
1014 03-09-2014 15:00:00 16.85833 C 11.61 g/m*3 16.86 C 5.90833 km/h
1015 03-09-2014 16:00:00 17.28333 C 11.96 g/m*3 17.28 C 2.66667 km/h
1016 03-09-2014 17:00:00 16.74167 C 12.5 g/m*3 16.74 C 0 km/h
1017 03-09-2014 18:00:00 16.3 C 12.75 g/m*3 16.3 C 0 km/h
1018 03-09-2014 19:00:00 16.08333 C 12.64 g/m*3 16.08 C 0 km/h
1019 03-09-2014 20:00:00 15.575 C 12.23 g/m*3 15.58 C 0 km/h
1020 03-09-2014 21:00:00 15.25 C 12.09 g/m*3 15.25 C 0 km/h
1021 03-09-2014 22:00:00 15.16667 C 12.05 g/m*3 15.17 C 0 km/h
1022 03-09-2014 23:00:00 15.175 C 12.09 g/m*3 15.18 C 0 km/h
1023 04-09-2014 00:00:00 14.98333 C 11.93 g/m*3 14.98 C 0 km/h
1024 04-09-2014 01:00:00 14.56667 C 11.6 g/m*3 14.57 C 0 km/h
1025 04-09-2014 02:00:00 14.25833 C 11.51 g/m*3 14.26 C 0 km/h
Sensor: Nr:Datum:Temp:Abs-Feuchte:Windchill:Wind:
Aussen-T/F 1026 04-09-2014 03:00:00 13.45 C 11.02 g/m*3 13.45 C 0 km/h
1027 04-09-2014 04:00:00 13.34167 C 11.12 g/m*3 13.34 C 0 km/h
1028 04-09-2014 05:00:00 13.64167 C 11.35 g/m*3 13.64 C 0 km/h
1029 04-09-2014 06:00:00 13.88333 C 11.5 g/m*3 13.88 C 0 km/h
1030 04-09-2014 07:00:00 14.31667 C 11.89 g/m*3 14.32 C 0 km/h
1031 04-09-2014 08:00:00 15.01667 C 12.33 g/m*3 15.02 C 0 km/h
1032 04-09-2014 09:00:00 16.05833 C 12.81 g/m*3 16.06 C 0 km/h
1033 04-09-2014 10:00:00 18.06667 C 13.2 g/m*3 18.07 C 0 km/h
1034 04-09-2014 11:00:00 19.38333 C 13.15 g/m*3 19.38 C 6.05 km/h
1035 04-09-2014 12:00:00 19.81667 C 13.26 g/m*3 19.82 C 8.46667 km/h
1036 04-09-2014 13:00:00 19.65 C 13.18 g/m*3 19.65 C 6.84167 km/h
1037 04-09-2014 14:00:00 20.025 C 13.49 g/m*3 20.02 C 8.20833 km/h
1038 04-09-2014 15:00:00 20.14167 C 13.5 g/m*3 20.14 C 4.825 km/h
1039 04-09-2014 16:00:00 19.68333 C 13.49 g/m*3 19.68 C 2.28333 km/h
1040 04-09-2014 17:00:00 19.05 C 14.06 g/m*3 19.05 C 0 km/h
1041 04-09-2014 18:00:00 17.90833 C 13.94 g/m*3 17.91 C 0 km/h
1042 04-09-2014 19:00:00 17.30833 C 13.71 g/m*3 17.31 C 0 km/h
1043 04-09-2014 20:00:00 17.04167 C 13.6 g/m*3 17.04 C 0 km/h
1044 04-09-2014 21:00:00 16.85 C 13.58 g/m*3 16.85 C 0 km/h
1045 04-09-2014 22:00:00 16.8 C 13.58 g/m*3 16.8 C 0 km/h
1046 04-09-2014 23:00:00 16.525 C 13.36 g/m*3 16.52 C 0 km/h
1047 05-09-2014 00:00:00 16.01667 C 13.08 g/m*3 16.02 C 0 km/h
1048 05-09-2014 01:00:00 15.7 C 12.92 g/m*3 15.7 C 0 km/h
1049 05-09-2014 02:00:00 15.88333 C 13.12 g/m*3 15.88 C 0 km/h
1050 05-09-2014 03:00:00 16 C 13.22 g/m*3 16 C 0 km/h
Sensor: Nr:Datum:Temp:Abs-Feuchte:Windchill:Wind:
Aussen-T/F 1051 05-09-2014 04:00:00 15.93333 C 13.16 g/m*3 15.93 C 0 km/h
1052 05-09-2014 05:00:00 15.88333 C 13.12 g/m*3 15.88 C 0 km/h
1053 05-09-2014 06:00:00 15.70833 C 12.98 g/m*3 15.71 C 0 km/h
1054 05-09-2014 07:00:00 15.70833 C 12.98 g/m*3 15.71 C 0 km/h
1055 05-09-2014 08:00:00 16.11667 C 13.38 g/m*3 16.12 C 0 km/h
1056 05-09-2014 09:00:00 16.7 C 13.71 g/m*3 16.7 C 0 km/h
1057 05-09-2014 10:00:00 18.025 C 14.13 g/m*3 18.02 C 0 km/h
1058 05-09-2014 11:00:00 19.48333 C 14.68 g/m*3 19.48 C 0 km/h
1059 05-09-2014 12:00:00 20.23333 C 15.02 g/m*3 20.23 C 0 km/h
1060 05-09-2014 13:00:00 22.45833 C 16.06 g/m*3 22.46 C 0 km/h
1061 05-09-2014 14:00:00 22.61667 C 16.45 g/m*3 22.62 C 0 km/h
1062 05-09-2014 15:00:00 22.25833 C 15.91 g/m*3 22.26 C 0 km/h
1063 05-09-2014 16:00:00 22.15 C 16.07 g/m*3 22.15 C 0 km/h
1064 05-09-2014 17:00:00 21.65833 C 16.1 g/m*3 21.66 C 0 km/h
1065 05-09-2014 18:00:00 20.33333 C 15.43 g/m*3 20.33 C 0 km/h
1066 05-09-2014 19:00:00 18.99167 C 14.67 g/m*3 18.99 C 0 km/h
1067 05-09-2014 20:00:00 18.125 C 14.13 g/m*3 18.13 C 0 km/h
1068 05-09-2014 21:00:00 17.29167 C 13.61 g/m*3 17.29 C 0 km/h
1069 05-09-2014 22:00:00 16.56667 C 13.19 g/m*3 16.57 C 0 km/h
1070 05-09-2014 23:00:00 15.975 C 12.88 g/m*3 15.98 C 0 km/h
1071 06-09-2014 00:00:00 15.68333 C 12.81 g/m*3 15.68 C 0 km/h
1072 06-09-2014 01:00:00 15.59167 C 12.76 g/m*3 15.59 C 0 km/h
1073 06-09-2014 02:00:00 15.125 C 12.45 g/m*3 15.13 C 0 km/h
1074 06-09-2014 03:00:00 14.73333 C 12.24 g/m*3 14.73 C 0 km/h
1075 06-09-2014 04:00:00 14.11667 C 11.78 g/m*3 14.12 C 0 km/h
Sensor: Nr:Datum:Temp:Abs-Feuchte:Windchill:Wind:
Aussen-T/F 1076 06-09-2014 05:00:00 13.925 C 11.69 g/m*3 13.93 C 0 km/h
1077 06-09-2014 06:00:00 13.85 C 11.64 g/m*3 13.85 C 0 km/h
1078 06-09-2014 07:00:00 13.76667 C 11.65 g/m*3 13.77 C 0 km/h
1079 06-09-2014 08:00:00 13.96667 C 11.8 g/m*3 13.97 C 0 km/h
1080 06-09-2014 09:00:00 14.39167 C 12.11 g/m*3 14.39 C 0 km/h
1081 06-09-2014 10:00:00 15.13333 C 12.67 g/m*3 15.13 C 0 km/h
1082 06-09-2014 11:00:00 17.11667 C 14.17 g/m*3 17.12 C 0 km/h
1083 06-09-2014 12:00:00 19.25833 C 15.03 g/m*3 19.26 C 0 km/h
1084 06-09-2014 13:00:00 20.925 C 16.08 g/m*3 20.93 C 0 km/h
1085 06-09-2014 14:00:00 21.04167 C 15.9 g/m*3 21.04 C 0 km/h
1086 06-09-2014 15:00:00 21.38333 C 16.3 g/m*3 21.38 C 0 km/h
1087 06-09-2014 16:00:00 22.90833 C 15.81 g/m*3 22.91 C 1.2 km/h
1088 06-09-2014 17:00:00 20.76667 C 15.89 g/m*3 20.77 C 0.66667 km/h
1089 06-09-2014 18:00:00 23.55 C 16.6 g/m*3 23.55 C 0.26667 km/h
1090 06-09-2014 19:00:00 20.86667 C 15.8 g/m*3 20.87 C 0.26667 km/h
1091 06-09-2014 20:00:00 18.6 C 14.76 g/m*3 18.6 C 0 km/h
1092 06-09-2014 21:00:00 17.99167 C 14.44 g/m*3 17.99 C 0 km/h
1093 06-09-2014 22:00:00 17.325 C 13.95 g/m*3 17.33 C 0 km/h
1094 06-09-2014 23:00:00 16.925 C 13.78 g/m*3 16.93 C 0 km/h
1095 07-09-2014 00:00:00 16.6 C 13.56 g/m*3 16.6 C 0 km/h
1096 07-09-2014 01:00:00 16.1 C 13.2 g/m*3 16.1 C 0 km/h
1097 07-09-2014 02:00:00 15.925 C 13.16 g/m*3 15.93 C 0 km/h
1098 07-09-2014 03:00:00 16.26667 C 13.43 g/m*3 16.27 C 1.33333 km/h
1099 07-09-2014 04:00:00 16.35833 C 13.5 g/m*3 16.36 C 0.66667 km/h
1100 07-09-2014 05:00:00 16.51667 C 13.56 g/m*3 16.52 C 0.66667 km/h
Sensor: Nr:Datum:Temp:Abs-Feuchte:Windchill:Wind:
Aussen-T/F 1101 07-09-2014 06:00:00 16.75833 C 13.7 g/m*3 16.76 C 0.26667 km/h
1102 07-09-2014 07:00:00 17.03333 C 13.91 g/m*3 17.03 C 0 km/h
1103 07-09-2014 08:00:00 17.21667 C 13.91 g/m*3 17.22 C 0 km/h
1104 07-09-2014 09:00:00 17.56667 C 13.68 g/m*3 17.57 C 2.4 km/h
1105 07-09-2014 10:00:00 18.15 C 13.56 g/m*3 18.15 C 6.16667 km/h
1106 07-09-2014 11:00:00 18 C 13.21 g/m*3 18 C 6.45 km/h
1107 07-09-2014 12:00:00 18.51667 C 13.26 g/m*3 18.52 C 3.46667 km/h
1108 07-09-2014 14:00:00 20.77143 C 14.54 g/m*3 20.77 C 3.9 km/h
1109 07-09-2014 15:00:00 22.025 C 13.69 g/m*3 22.03 C 5.09167 km/h
1110 07-09-2014 16:00:00 22.80833 C 13.82 g/m*3 22.81 C 3.73333 km/h
1111 07-09-2014 17:00:00 23.125 C 13.37 g/m*3 23.13 C 5.625 km/h
1112 07-09-2014 18:00:00 21.94167 C 13.6 g/m*3 21.94 C 5.075 km/h
1113 07-09-2014 19:00:00 18.375 C 13.61 g/m*3 18.38 C 0.13333 km/h
1114 07-09-2014 20:00:00 17.075 C 13.11 g/m*3 17.08 C 0 km/h
1115 07-09-2014 21:00:00 16.85 C 13.12 g/m*3 16.85 C 0 km/h
1116 07-09-2014 22:00:00 16.725 C 13.09 g/m*3 16.73 C 0 km/h
1117 07-09-2014 23:00:00 16.38333 C 12.89 g/m*3 16.38 C 0.13333 km/h
1118 08-09-2014 00:00:00 15.71667 C 12.5 g/m*3 15.72 C 0 km/h
1119 08-09-2014 01:00:00 15.41667 C 12.43 g/m*3 15.42 C 0 km/h
1120 08-09-2014 02:00:00 15.05 C 12.22 g/m*3 15.05 C 0 km/h
1121 08-09-2014 03:00:00 15.04167 C 12.32 g/m*3 15.04 C 0 km/h
1122 08-09-2014 04:00:00 14.83333 C 12.17 g/m*3 14.83 C 0 km/h
1123 08-09-2014 05:00:00 14.33333 C 11.88 g/m*3 14.33 C 0 km/h
1124 08-09-2014 06:00:00 14.325 C 11.94 g/m*3 14.33 C 0 km/h
1125 08-09-2014 07:00:00 14.33333 C 11.94 g/m*3 14.33 C 0 km/h
Sensor: Nr:Datum:Temp:Abs-Feuchte:Windchill:Wind:
Aussen-T/F 1126 08-09-2014 08:00:00 14.94167 C 12.39 g/m*3 14.94 C 0 km/h
1127 08-09-2014 09:00:00 16.11667 C 13.01 g/m*3 16.12 C 0.13333 km/h
1128 08-09-2014 10:00:00 17.28333 C 13.15 g/m*3 17.28 C 0.4 km/h
1129 08-09-2014 11:00:00 17.78333 C 13.49 g/m*3 17.78 C 0.13333 km/h
1130 08-09-2014 12:00:00 18.53333 C 13.71 g/m*3 18.53 C 0.53333 km/h
1131 08-09-2014 13:00:00 21.96667 C 14.16 g/m*3 21.97 C 5.375 km/h
1132 08-09-2014 14:00:00 22.85833 C 13.2 g/m*3 22.86 C 6.16667 km/h
1133 08-09-2014 15:00:00 23.36667 C 12.96 g/m*3 23.37 C 6.425 km/h
1134 08-09-2014 16:00:00 24.25833 C 12.68 g/m*3 24.26 C 7.11667 km/h
1135 08-09-2014 17:00:00 23.41667 C 12.8 g/m*3 23.42 C 5.35 km/h
1136 08-09-2014 18:00:00 22.36667 C 12.49 g/m*3 22.37 C 7.25833 km/h
1137 08-09-2014 19:00:00 21.00833 C 12.33 g/m*3 21.01 C 4.94167 km/h
1138 08-09-2014 20:00:00 17.9 C 12.53 g/m*3 17.9 C 1.86667 km/h
1139 08-09-2014 21:00:00 16.29167 C 12.02 g/m*3 16.29 C 0.93333 km/h
1140 08-09-2014 22:00:00 15.56667 C 11.82 g/m*3 15.57 C 0.13333 km/h
1141 08-09-2014 23:00:00 15.30833 C 11.8 g/m*3 15.31 C 0.4 km/h
1142 09-09-2014 00:00:00 14.48333 C 11.36 g/m*3 14.48 C 0.26667 km/h
1143 09-09-2014 01:00:00 13.825 C 11.13 g/m*3 13.83 C 0 km/h
1144 09-09-2014 02:00:00 13.4 C 10.96 g/m*3 13.4 C 0.13333 km/h
1145 09-09-2014 03:00:00 12.90833 C 10.71 g/m*3 12.91 C 0 km/h
1146 09-09-2014 04:00:00 12.50833 C 10.54 g/m*3 12.51 C 0 km/h
1147 09-09-2014 05:00:00 12.1 C 10.29 g/m*3 12.1 C 0 km/h
1148 09-09-2014 06:00:00 11.675 C 10.04 g/m*3 11.68 C 0.13333 km/h
1149 09-09-2014 07:00:00 11.6 C 10.06 g/m*3 11.6 C 0.26667 km/h
1150 09-09-2014 08:00:00 12.21667 C 10.48 g/m*3 12.22 C 0.13333 km/h
Sensor: Nr:Datum:Temp:Abs-Feuchte:Windchill:Wind:
Aussen-T/F 1151 09-09-2014 09:00:00 12.975 C 10.82 g/m*3 12.98 C 0.4 km/h
1152 09-09-2014 10:00:00 14.40833 C 11.23 g/m*3 14.41 C 2.53333 km/h
1153 09-09-2014 11:00:00 15.95833 C 11.53 g/m*3 15.96 C 2.66667 km/h
1154 09-09-2014 12:00:00 17.26667 C 11.15 g/m*3 17.27 C 4.95 km/h
1155 09-09-2014 13:00:00 19.30833 C 11.45 g/m*3 19.31 C 6.025 km/h
1156 09-09-2014 14:00:00 20.175 C 10.88 g/m*3 20.18 C 7.51667 km/h
1157 09-09-2014 15:00:00 21.025 C 10.62 g/m*3 21.03 C 7.79167 km/h
1158 09-09-2014 16:00:00 21.84167 C 10.24 g/m*3 21.84 C 8.19167 km/h
1159 09-09-2014 17:00:00 21.91667 C 9.82 g/m*3 21.92 C 8.05833 km/h
1160 09-09-2014 18:00:00 21.45 C 10.12 g/m*3 21.45 C 6.83333 km/h
1161 09-09-2014 19:00:00 19.45833 C 10.35 g/m*3 19.46 C 7.24167 km/h
1162 09-09-2014 20:00:00 15.9 C 10.54 g/m*3 15.9 C 1.74167 km/h
1163 09-09-2014 21:00:00 13.85 C 10.21 g/m*3 13.85 C 0.53333 km/h
1164 09-09-2014 22:00:00 12.975 C 10.07 g/m*3 12.98 C 0.13333 km/h
1165 09-09-2014 23:00:00 12.36667 C 9.88 g/m*3 12.37 C 0 km/h
1166 10-09-2014 00:00:00 11.675 C 9.63 g/m*3 11.68 C 0 km/h
1167 10-09-2014 01:00:00 11.56667 C 9.73 g/m*3 11.57 C 0 km/h
1168 10-09-2014 02:00:00 11.625 C 9.79 g/m*3 11.63 C 0 km/h
1169 10-09-2014 03:00:00 11.63333 C 9.8 g/m*3 11.63 C 0 km/h
1170 10-09-2014 04:00:00 11.65833 C 9.91 g/m*3 11.66 C 0.26667 km/h
1171 10-09-2014 05:00:00 11.83333 C 10.02 g/m*3 11.83 C 0.4 km/h
1172 10-09-2014 06:00:00 11.95833 C 10.1 g/m*3 11.96 C 0 km/h
1173 10-09-2014 07:00:00 12.24167 C 10.28 g/m*3 12.24 C 0.13333 km/h
1174 10-09-2014 08:00:00 12.9 C 10.68 g/m*3 12.9 C 0.66667 km/h
1175 10-09-2014 09:00:00 14.06667 C 11.14 g/m*3 14.07 C 0.8 km/h
Sensor: Nr:Datum:Temp:Abs-Feuchte:Windchill:Wind:
Aussen-T/F 1176 10-09-2014 10:00:00 15.10833 C 11.25 g/m*3 15.11 C 6.04167 km/h
1177 10-09-2014 11:00:00 15.86667 C 11.06 g/m*3 15.87 C 6.56667 km/h
1178 10-09-2014 12:00:00 16.55833 C 10.7 g/m*3 16.56 C 9.275 km/h
1179 10-09-2014 13:00:00 16.85833 C 10.51 g/m*3 16.86 C 8.20833 km/h
1180 10-09-2014 14:00:00 17.44167 C 10.16 g/m*3 17.44 C 8.61667 km/h
1181 10-09-2014 15:00:00 17.14167 C 10.01 g/m*3 17.14 C 8.88333 km/h
1182 10-09-2014 16:00:00 17.31667 C 9.7 g/m*3 17.32 C 8.60833 km/h
1183 10-09-2014 17:00:00 17.15833 C 9.11 g/m*3 17.16 C 9.00833 km/h
1184 10-09-2014 18:00:00 16.98333 C 9.08 g/m*3 16.98 C 6.975 km/h
1185 10-09-2014 19:00:00 15.84167 C 9.69 g/m*3 15.84 C 2.80833 km/h
1186 10-09-2014 20:00:00 14.5 C 10.2 g/m*3 14.5 C 0.53333 km/h
1187 10-09-2014 21:00:00 14.375 C 10.4 g/m*3 14.38 C 0.4 km/h
1188 10-09-2014 22:00:00 13.84167 C 10.31 g/m*3 13.84 C 0.26667 km/h
1189 10-09-2014 23:00:00 12.54167 C 9.98 g/m*3 12.54 C 0.26667 km/h
1190 11-09-2014 00:00:00 12.3 C 10.04 g/m*3 12.3 C 0.13333 km/h
1191 11-09-2014 01:00:00 12.10833 C 10.02 g/m*3 12.11 C 0.26667 km/h
1192 11-09-2014 02:00:00 12.00833 C 10.07 g/m*3 12.01 C 0.26667 km/h
1193 11-09-2014 03:00:00 12.14167 C 10.18 g/m*3 12.14 C 0.93333 km/h
1194 11-09-2014 04:00:00 12.56667 C 10.45 g/m*3 12.57 C 0.26667 km/h
1195 11-09-2014 05:00:00 12.60833 C 10.42 g/m*3 12.61 C 0.13333 km/h
1196 11-09-2014 06:00:00 12.54167 C 10.51 g/m*3 12.54 C 0.4 km/h
1197 11-09-2014 07:00:00 13.025 C 10.8 g/m*3 13.03 C 0.53333 km/h
1198 11-09-2014 08:00:00 13.76667 C 11.19 g/m*3 13.77 C 0.93333 km/h
1199 11-09-2014 09:00:00 14.825 C 11.52 g/m*3 14.83 C 5.75833 km/h
1200 11-09-2014 10:00:00 15.85 C 11.58 g/m*3 15.85 C 6.44167 km/h
Sensor: Nr:Datum:Temp:Abs-Feuchte:Windchill:Wind:
Aussen-T/F 1201 11-09-2014 11:00:00 16.76667 C 11.36 g/m*3 16.77 C 8.2 km/h
1202 11-09-2014 12:00:00 17.75833 C 11.28 g/m*3 17.76 C 8.45833 km/h
1203 11-09-2014 13:00:00 18.19167 C 11.13 g/m*3 18.19 C 10.23333 km/h
1204 11-09-2014 14:00:00 18.81667 C 10.85 g/m*3 18.82 C 12.76667 km/h
1205 11-09-2014 15:00:00 19.39167 C 10.58 g/m*3 19.39 C 9.275 km/h
1206 11-09-2014 16:00:00 18.91667 C 10.07 g/m*3 18.92 C 10.225 km/h
1207 11-09-2014 17:00:00 18.975 C 9.9 g/m*3 18.98 C 9.95 km/h
1208 11-09-2014 18:00:00 18.14167 C 10.87 g/m*3 18.14 C 3.48333 km/h
1209 11-09-2014 19:00:00 15.95 C 10.78 g/m*3 15.95 C 1.34167 km/h
1210 11-09-2014 20:00:00 14.675 C 9.84 g/m*3 14.68 C 1.60833 km/h
1211 11-09-2014 21:00:00 13.40833 C 9.77 g/m*3 13.41 C 1.06667 km/h
1212 11-09-2014 22:00:00 12.56667 C 9.64 g/m*3 12.57 C 0.4 km/h
1213 11-09-2014 23:00:00 11.76667 C 9.53 g/m*3 11.77 C 0 km/h
1214 12-09-2014 00:00:00 11.15833 C 9.35 g/m*3 11.16 C 0 km/h
1215 12-09-2014 01:00:00 10.54167 C 9.12 g/m*3 10.54 C 0 km/h
1216 12-09-2014 02:00:00 10.05833 C 8.95 g/m*3 10.06 C 0.13333 km/h
1217 12-09-2014 03:00:00 9.7 C 8.8 g/m*3 9.7 C 0.13333 km/h
1218 12-09-2014 04:00:00 9.825 C 8.92 g/m*3 9.82 C 0 km/h
1219 12-09-2014 05:00:00 9.40833 C 8.69 g/m*3 9.41 C 0.13333 km/h
1220 12-09-2014 06:00:00 8.93333 C 8.43 g/m*3 8.93 C 0 km/h
1221 12-09-2014 07:00:00 9.31667 C 8.73 g/m*3 9.32 C 0 km/h
1222 12-09-2014 08:00:00 10 C 9.11 g/m*3 10 C 0.26667 km/h
1223 12-09-2014 09:00:00 11.03333 C 9.71 g/m*3 11.03 C 0.26667 km/h
1224 12-09-2014 10:00:00 12.45833 C 10.09 g/m*3 12.46 C 4 km/h
1225 12-09-2014 11:00:00 14.175 C 10.54 g/m*3 14.18 C 7.50833 km/h
Sensor: Nr:Datum:Temp:Abs-Feuchte:Windchill:Wind:
Aussen-T/F 1226 12-09-2014 12:00:00 16.36667 C 11.21 g/m*3 16.37 C 9.55 km/h
1227 12-09-2014 13:00:00 18.21667 C 11.4 g/m*3 18.22 C 12.35833 km/h
1228 12-09-2014 14:00:00 19.99167 C 10.61 g/m*3 19.99 C 14.9 km/h
1229 12-09-2014 15:00:00 19.4 C 10.51 g/m*3 19.4 C 13.96667 km/h
1230 12-09-2014 16:00:00 18.95 C 10.64 g/m*3 18.95 C 10.49167 km/h
1231 12-09-2014 17:00:00 18.34167 C 10.88 g/m*3 18.34 C 12.5 km/h
1232 12-09-2014 18:00:00 17.65 C 11.27 g/m*3 17.65 C 6.975 km/h
1233 12-09-2014 19:00:00 17.20833 C 11.42 g/m*3 17.21 C 4.15 km/h
1234 12-09-2014 20:00:00 16.74167 C 11.65 g/m*3 16.74 C 3.46667 km/h
1235 12-09-2014 21:00:00 16.54167 C 11.73 g/m*3 16.54 C 3.34167 km/h
1236 12-09-2014 22:00:00 16.5 C 11.75 g/m*3 16.5 C 2.53333 km/h
1237 12-09-2014 23:00:00 16.4 C 11.84 g/m*3 16.4 C 0.8 km/h
1238 13-09-2014 00:00:00 16.14167 C 11.93 g/m*3 16.14 C 0.4 km/h
1239 13-09-2014 01:00:00 15.88333 C 11.91 g/m*3 15.88 C 0.53333 km/h
1240 13-09-2014 02:00:00 15.325 C 11.68 g/m*3 15.33 C 0.4 km/h
1241 13-09-2014 03:00:00 15.21667 C 11.8 g/m*3 15.22 C 0.13333 km/h
1242 13-09-2014 04:00:00 15.16667 C 11.97 g/m*3 15.17 C 0 km/h
1243 13-09-2014 05:00:00 14.86667 C 11.96 g/m*3 14.87 C 0 km/h
1244 13-09-2014 06:00:00 14.95833 C 11.84 g/m*3 14.96 C 0.4 km/h
1245 13-09-2014 07:00:00 15.125 C 11.76 g/m*3 15.13 C 2.80833 km/h
1246 13-09-2014 08:00:00 15.2 C 11.74 g/m*3 15.2 C 2.275 km/h
1247 13-09-2014 09:00:00 15.7 C 11.85 g/m*3 15.7 C 4.68333 km/h
1248 13-09-2014 10:00:00 15.9 C 11.87 g/m*3 15.9 C 6.84167 km/h
1249 13-09-2014 11:00:00 15.88333 C 11.91 g/m*3 15.88 C 5.75833 km/h
1250 13-09-2014 12:00:00 16.29167 C 12.12 g/m*3 16.29 C 4.675 km/h
Sensor: Nr:Datum:Temp:Abs-Feuchte:Windchill:Wind:
Aussen-T/F 1251 13-09-2014 13:00:00 17.15833 C 12.54 g/m*3 17.16 C 5.61667 km/h
1252 13-09-2014 14:00:00 17.525 C 12.64 g/m*3 17.52 C 6.83333 km/h
1253 13-09-2014 15:00:00 17.45833 C 12.73 g/m*3 17.46 C 3.875 km/h
1254 13-09-2014 16:00:00 17.56667 C 12.82 g/m*3 17.57 C 5.5 km/h
1255 13-09-2014 17:00:00 17.775 C 12.57 g/m*3 17.77 C 6.3 km/h
1256 13-09-2014 18:00:00 17.29167 C 12.56 g/m*3 17.29 C 2.4 km/h
1257 13-09-2014 19:00:00 16.41667 C 12.61 g/m*3 16.42 C 0.4 km/h
1258 13-09-2014 20:00:00 16.35 C 12.48 g/m*3 16.35 C 1.33333 km/h
1259 13-09-2014 21:00:00 16.175 C 12.45 g/m*3 16.18 C 0 km/h
1260 13-09-2014 22:00:00 15.85 C 12.31 g/m*3 15.85 C 0 km/h
1261 13-09-2014 23:00:00 15.68333 C 12.3 g/m*3 15.68 C 0 km/h
1262 14-09-2014 00:00:00 15.6 C 12.23 g/m*3 15.6 C 0 km/h
1263 14-09-2014 01:00:00 15.625 C 12.31 g/m*3 15.63 C 0 km/h
1264 14-09-2014 02:00:00 15.64167 C 12.27 g/m*3 15.64 C 0.13333 km/h
1265 14-09-2014 03:00:00 15.45 C 12.21 g/m*3 15.45 C 0 km/h
1266 14-09-2014 04:00:00 15.3 C 12.1 g/m*3 15.3 C 0 km/h
1267 14-09-2014 05:00:00 15.21667 C 11.92 g/m*3 15.22 C 0.26667 km/h
1268 14-09-2014 06:00:00 15.13333 C 11.76 g/m*3 15.13 C 0.66667 km/h
1269 14-09-2014 07:00:00 14.95833 C 11.55 g/m*3 14.96 C 0.93333 km/h
1270 14-09-2014 08:00:00 15.03333 C 11.66 g/m*3 15.03 C 0.66667 km/h
1271 14-09-2014 09:00:00 15.425 C 11.75 g/m*3 15.43 C 0.93333 km/h
1272 14-09-2014 10:00:00 16.05833 C 11.99 g/m*3 16.06 C 2.66667 km/h
1273 14-09-2014 11:00:00 16.80833 C 12.23 g/m*3 16.81 C 3.6 km/h
1274 14-09-2014 12:00:00 17.06667 C 12.43 g/m*3 17.07 C 1.46667 km/h
1275 14-09-2014 13:00:00 17.72 C 12.75 g/m*3 17.72 C 0.96 km/h
Sensor: Nr:Datum:Temp:Abs-Feuchte:Windchill:Wind:
Aussen-T/F 1276 14-09-2014 14:00:00 18.55833 C 13.24 g/m*3 18.56 C 0.93333 km/h
1277 14-09-2014 15:00:00 18.625 C 13.34 g/m*3 18.63 C 0.4 km/h
1278 14-09-2014 16:00:00 20.3 C 13.66 g/m*3 20.3 C 2.4 km/h
1279 14-09-2014 17:00:00 21.6 C 13.67 g/m*3 21.6 C 2.93333 km/h
1280 14-09-2014 18:00:00 20.7 C 14 g/m*3 20.7 C 0.93333 km/h
1281 14-09-2014 19:00:00 18.425 C 13.51 g/m*3 18.43 C 0 km/h
1282 14-09-2014 20:00:00 16.18333 C 12.59 g/m*3 16.18 C 0.26667 km/h
1283 14-09-2014 21:00:00 15.60833 C 12.3 g/m*3 15.61 C 0 km/h
1284 14-09-2014 22:00:00 15.00833 C 12.11 g/m*3 15.01 C 0 km/h
1285 14-09-2014 23:00:00 14.225 C 11.59 g/m*3 14.23 C 0 km/h
1286 15-09-2014 00:00:00 13.58333 C 11.28 g/m*3 13.58 C 0 km/h
1287 15-09-2014 01:00:00 13.05833 C 10.93 g/m*3 13.06 C 0 km/h
1288 15-09-2014 02:00:00 12.55 C 10.65 g/m*3 12.55 C 0 km/h
1289 15-09-2014 03:00:00 12.26667 C 10.51 g/m*3 12.27 C 0 km/h
1290 15-09-2014 04:00:00 12.775 C 10.86 g/m*3 12.78 C 0.13333 km/h
1291 15-09-2014 05:00:00 12.86667 C 10.99 g/m*3 12.87 C 0 km/h
1292 15-09-2014 06:00:00 12.99167 C 11.11 g/m*3 12.99 C 0 km/h
1293 15-09-2014 07:00:00 13.1 C 11.18 g/m*3 13.1 C 0.26667 km/h
1294 15-09-2014 08:00:00 13.28333 C 11.31 g/m*3 13.28 C 0 km/h
1295 15-09-2014 09:00:00 13.76667 C 11.65 g/m*3 13.77 C 0 km/h
1296 15-09-2014 10:00:00 14.22 C 11.98 g/m*3 14.22 C 0.32 km/h
1297 15-09-2014 11:00:00 16.625 C 13.29 g/m*3 16.63 C 1.86667 km/h
1298 15-09-2014 12:00:00 19.025 C 13.83 g/m*3 19.02 C 6.025 km/h
1299 15-09-2014 13:00:00 20.26667 C 14.04 g/m*3 20.27 C 3.33333 km/h
1300 15-09-2014 14:00:00 19.80833 C 14.44 g/m*3 19.81 C 1.06667 km/h
Sensor: Nr:Datum:Temp:Abs-Feuchte:Windchill:Wind:
Aussen-T/F 1301 15-09-2014 15:00:00 20.93333 C 14.29 g/m*3 20.93 C 5.48333 km/h
1302 15-09-2014 16:00:00 21.91667 C 14.49 g/m*3 21.92 C 6.29167 km/h
1303 15-09-2014 17:00:00 20.95 C 14.64 g/m*3 20.95 C 2.53333 km/h
1304 15-09-2014 18:00:00 19.51667 C 14.66 g/m*3 19.52 C 0.4 km/h
1305 15-09-2014 19:00:00 17.99167 C 13.79 g/m*3 17.99 C 0.13333 km/h
1306 15-09-2014 20:00:00 16.53333 C 13.04 g/m*3 16.53 C 0.4 km/h
1307 15-09-2014 21:00:00 16.09167 C 12.83 g/m*3 16.09 C 0.13333 km/h
1308 15-09-2014 22:00:00 15.59167 C 12.63 g/m*3 15.59 C 0 km/h
1309 15-09-2014 23:00:00 15.1 C 12.34 g/m*3 15.1 C 0 km/h
1310 16-09-2014 00:00:00 14.5 C 11.98 g/m*3 14.5 C 0 km/h
1311 16-09-2014 01:00:00 14.13333 C 11.77 g/m*3 14.13 C 0 km/h
1312 16-09-2014 02:00:00 13.66667 C 11.46 g/m*3 13.67 C 0 km/h
1313 16-09-2014 03:00:00 13.25833 C 11.18 g/m*3 13.26 C 0 km/h
1314 16-09-2014 04:00:00 13.45833 C 11.36 g/m*3 13.46 C 0 km/h
1315 16-09-2014 05:00:00 13.70833 C 11.61 g/m*3 13.71 C 0 km/h
1316 16-09-2014 06:00:00 13.775 C 11.65 g/m*3 13.78 C 0 km/h
1317 16-09-2014 07:00:00 13.9 C 11.75 g/m*3 13.9 C 0.13333 km/h
1318 16-09-2014 08:00:00 14.10833 C 11.9 g/m*3 14.11 C 0.93333 km/h
1319 16-09-2014 09:00:00 14.6 C 12.26 g/m*3 14.6 C 1.6 km/h
1320 16-09-2014 10:00:00 15.43333 C 12.9 g/m*3 15.43 C 0.8 km/h
1321 16-09-2014 11:00:00 17.20833 C 13.69 g/m*3 17.21 C 5.63333 km/h
1322 16-09-2014 12:00:00 19.05833 C 14.05 g/m*3 19.06 C 4.68333 km/h
1323 16-09-2014 13:00:00 22.09167 C 14.99 g/m*3 22.09 C 7.10833 km/h
1324 16-09-2014 14:00:00 23.09167 C 14.96 g/m*3 23.09 C 6.44167 km/h
1325 16-09-2014 15:00:00 21.69167 C 15.16 g/m*3 21.69 C 2.94167 km/h
Sensor: Nr:Datum:Temp:Abs-Feuchte:Windchill:Wind:
Aussen-T/F 1326 16-09-2014 16:00:00 24.63333 C 14.86 g/m*3 24.63 C 4.95 km/h
1327 16-09-2014 17:00:00 22.30833 C 14.98 g/m*3 22.31 C 1.2 km/h
1328 16-09-2014 18:00:00 20.45 C 14.77 g/m*3 20.45 C 0.4 km/h
1329 16-09-2014 19:00:00 18.53333 C 13.81 g/m*3 18.53 C 1.06667 km/h
1330 16-09-2014 20:00:00 16.85 C 12.94 g/m*3 16.85 C 0.26667 km/h
1331 16-09-2014 21:00:00 16.025 C 12.61 g/m*3 16.02 C 0 km/h
1332 16-09-2014 22:00:00 15.35 C 12.28 g/m*3 15.35 C 0 km/h
1333 16-09-2014 23:00:00 14.55 C 11.8 g/m*3 14.55 C 0 km/h
1334 17-09-2014 00:00:00 13.91667 C 11.5 g/m*3 13.92 C 0 km/h
1335 17-09-2014 01:00:00 13.625 C 11.33 g/m*3 13.63 C 0 km/h
1336 17-09-2014 02:00:00 13.2 C 11.09 g/m*3 13.2 C 0 km/h
1337 17-09-2014 03:00:00 12.63333 C 10.75 g/m*3 12.63 C 0 km/h
1338 17-09-2014 04:00:00 12.15 C 10.43 g/m*3 12.15 C 0 km/h
1339 17-09-2014 05:00:00 12.24167 C 10.54 g/m*3 12.24 C 0 km/h
1340 17-09-2014 06:00:00 12.35833 C 10.68 g/m*3 12.36 C 0 km/h
1341 17-09-2014 07:00:00 12.175 C 10.56 g/m*3 12.18 C 0 km/h
1342 17-09-2014 08:00:00 12.35 C 10.67 g/m*3 12.35 C 0 km/h
1343 17-09-2014 09:00:00 12.86667 C 11.02 g/m*3 12.87 C 0 km/h
1344 17-09-2014 10:00:00 13.6 C 11.53 g/m*3 13.6 C 0 km/h
1345 17-09-2014 11:00:00 14.88333 C 12.51 g/m*3 14.88 C 0 km/h
1346 17-09-2014 12:00:00 16.725 C 13.84 g/m*3 16.73 C 0.66667 km/h
1347 17-09-2014 13:00:00 20.76667 C 15.32 g/m*3 20.77 C 2.66667 km/h
1348 17-09-2014 14:00:00 22.73333 C 15.59 g/m*3 22.73 C 3.61667 km/h
1349 17-09-2014 15:00:00 22.15 C 15.5 g/m*3 22.15 C 0.94167 km/h
1350 17-09-2014 16:00:00 22.575 C 15.43 g/m*3 22.58 C 0.4 km/h
Sensor: Nr:Datum:Temp:Abs-Feuchte:Windchill:Wind:
Aussen-T/F 1351 17-09-2014 17:00:00 21.29167 C 15.34 g/m*3 21.29 C 0 km/h
1352 17-09-2014 18:00:00 20.225 C 15.15 g/m*3 20.23 C 0 km/h
1353 17-09-2014 19:00:00 18.45 C 14.13 g/m*3 18.45 C 0 km/h
1354 17-09-2014 20:00:00 17.20833 C 13.38 g/m*3 17.21 C 0 km/h
1355 17-09-2014 21:00:00 16.35833 C 12.81 g/m*3 16.36 C 0 km/h
1356 17-09-2014 22:00:00 15.64167 C 12.47 g/m*3 15.64 C 0 km/h
1357 17-09-2014 23:00:00 15.10833 C 12.21 g/m*3 15.11 C 0 km/h
1358 18-09-2014 00:00:00 14.73333 C 12.07 g/m*3 14.73 C 0 km/h
1359 18-09-2014 01:00:00 14.43333 C 11.9 g/m*3 14.43 C 0 km/h
1360 18-09-2014 02:00:00 14.28333 C 11.9 g/m*3 14.28 C 0 km/h
1361 18-09-2014 03:00:00 14.29167 C 11.91 g/m*3 14.29 C 0 km/h
1362 18-09-2014 04:00:00 14.825 C 12.35 g/m*3 14.83 C 0.4 km/h
1363 18-09-2014 05:00:00 15.08333 C 12.56 g/m*3 15.08 C 0.53333 km/h
1364 18-09-2014 06:00:00 15.2 C 12.63 g/m*3 15.2 C 0 km/h
1365 18-09-2014 07:00:00 15.21667 C 12.73 g/m*3 15.22 C 0 km/h
1366 18-09-2014 08:00:00 15.675 C 13.09 g/m*3 15.68 C 0 km/h
1367 18-09-2014 09:00:00 16.23333 C 13.54 g/m*3 16.23 C 0 km/h
1368 18-09-2014 10:00:00 17.175 C 14.33 g/m*3 17.18 C 0 km/h
1369 18-09-2014 11:00:00 17.90833 C 14.95 g/m*3 17.91 C 0 km/h
1370 18-09-2014 12:00:00 18.91667 C 15.47 g/m*3 18.92 C 0 km/h
1371 18-09-2014 13:00:00 19.83333 C 16 g/m*3 19.83 C 0 km/h
1372 18-09-2014 14:00:00 21.13333 C 16.54 g/m*3 21.13 C 0.4 km/h
1373 18-09-2014 15:00:00 22.31667 C 16.7 g/m*3 22.32 C 0.93333 km/h
1374 18-09-2014 16:00:00 21.64167 C 16.6 g/m*3 21.64 C 0.26667 km/h
1375 18-09-2014 17:00:00 20.25833 C 16.49 g/m*3 20.26 C 0 km/h
Sensor: Nr:Datum:Temp:Abs-Feuchte:Windchill:Wind:
Aussen-T/F 1376 18-09-2014 18:00:00 19.94167 C 16.43 g/m*3 19.94 C 0.4 km/h
1377 18-09-2014 19:00:00 19.04167 C 15.82 g/m*3 19.04 C 0 km/h
1378 18-09-2014 20:00:00 18.075 C 14.97 g/m*3 18.08 C 0 km/h
1379 18-09-2014 21:00:00 17.71667 C 14.76 g/m*3 17.72 C 0 km/h
1380 18-09-2014 22:00:00 17.875 C 14.94 g/m*3 17.88 C 0 km/h
1381 18-09-2014 23:00:00 17.89167 C 14.96 g/m*3 17.89 C 0 km/h
1382 19-09-2014 00:00:00 17.39167 C 14.52 g/m*3 17.39 C 0 km/h
1383 19-09-2014 01:00:00 16.9 C 14.1 g/m*3 16.9 C 0 km/h
1384 19-09-2014 02:00:00 16.475 C 13.74 g/m*3 16.48 C 0 km/h
1385 19-09-2014 03:00:00 16.14167 C 13.47 g/m*3 16.14 C 0 km/h
1386 19-09-2014 04:00:00 16.275 C 13.58 g/m*3 16.27 C 0 km/h
1387 19-09-2014 05:00:00 15.825 C 13.21 g/m*3 15.83 C 0 km/h
1388 19-09-2014 06:00:00 15.84167 C 13.3 g/m*3 15.84 C 0 km/h
1389 19-09-2014 07:00:00 16.33333 C 13.73 g/m*3 16.33 C 0.4 km/h
1390 19-09-2014 08:00:00 16.68333 C 14.06 g/m*3 16.68 C 0 km/h
1391 19-09-2014 09:00:00 17.18333 C 14.48 g/m*3 17.18 C 0.13333 km/h
1392 19-09-2014 10:00:00 17.83333 C 15.06 g/m*3 17.83 C 0.26667 km/h
1393 19-09-2014 11:00:00 18.275 C 15.46 g/m*3 18.27 C 0.13333 km/h
1394 19-09-2014 12:00:00 19.60833 C 16.51 g/m*3 19.61 C 3.35833 km/h
1395 19-09-2014 13:00:00 22.7 C 17.12 g/m*3 22.7 C 5.36667 km/h
1396 19-09-2014 14:00:00 23.00833 C 17.02 g/m*3 23.01 C 4.96667 km/h
1397 19-09-2014 15:00:00 21.70833 C 17.16 g/m*3 21.71 C 0.13333 km/h
1398 19-09-2014 16:00:00 21.45833 C 17.29 g/m*3 21.46 C 0.26667 km/h
1399 19-09-2014 17:00:00 21.70833 C 17.35 g/m*3 21.71 C 0.53333 km/h
1400 19-09-2014 18:00:00 20.76667 C 16.39 g/m*3 20.77 C 1.6 km/h
Sensor: Nr:Datum:Temp:Abs-Feuchte:Windchill:Wind:
Aussen-T/F 1401 19-09-2014 19:00:00 19.25833 C 15.35 g/m*3 19.26 C 2.66667 km/h
1402 19-09-2014 20:00:00 18.375 C 14.84 g/m*3 18.38 C 0.26667 km/h
1403 19-09-2014 21:00:00 17.8 C 14.57 g/m*3 17.8 C 0.13333 km/h
1404 19-09-2014 22:00:00 17.075 C 13.99 g/m*3 17.08 C 0 km/h
1405 19-09-2014 23:00:00 16.73333 C 13.81 g/m*3 16.73 C 0 km/h
1406 20-09-2014 00:00:00 16.53333 C 13.74 g/m*3 16.53 C 0 km/h
1407 20-09-2014 01:00:00 16.55 C 13.8 g/m*3 16.55 C 0 km/h
1408 20-09-2014 02:00:00 16.44167 C 13.71 g/m*3 16.44 C 0 km/h
1409 20-09-2014 03:00:00 15.925 C 13.29 g/m*3 15.93 C 0 km/h
1410 20-09-2014 04:00:00 15.7 C 13.11 g/m*3 15.7 C 0 km/h
1411 20-09-2014 05:00:00 15.475 C 12.93 g/m*3 15.48 C 0 km/h
1412 20-09-2014 06:00:00 15.63333 C 13.06 g/m*3 15.63 C 0.26667 km/h
1413 20-09-2014 07:00:00 15.225 C 12.74 g/m*3 15.23 C 0 km/h
1414 20-09-2014 08:00:00 16.04167 C 13.44 g/m*3 16.04 C 0 km/h
1415 20-09-2014 09:00:00 17.05 C 14.27 g/m*3 17.05 C 1.33333 km/h
1416 20-09-2014 10:00:00 18.14167 C 14.81 g/m*3 18.14 C 0.93333 km/h
1417 20-09-2014 11:00:00 19.375 C 15.17 g/m*3 19.38 C 0.4 km/h
1418 20-09-2014 12:00:00 20.5 C 15.93 g/m*3 20.5 C 0 km/h
1419 20-09-2014 13:00:00 20.63333 C 15.97 g/m*3 20.63 C 0.26667 km/h
1420 20-09-2014 14:00:00 17.66667 C 14.43 g/m*3 17.67 C 0.66667 km/h
1421 20-09-2014 15:00:00 17.33333 C 14.24 g/m*3 17.33 C 1.875 km/h
1422 20-09-2014 16:00:00 18.50833 C 15.41 g/m*3 18.51 C 0.26667 km/h
1423 20-09-2014 17:00:00 19.06667 C 15.76 g/m*3 19.07 C 0 km/h
1424 20-09-2014 18:00:00 18.25833 C 15.06 g/m*3 18.26 C 0 km/h
1425 20-09-2014 19:00:00 17.75833 C 14.69 g/m*3 17.76 C 0 km/h
Sensor: Nr:Datum:Temp:Abs-Feuchte:Windchill:Wind:
Aussen-T/F 1426 20-09-2014 20:00:00 16.63333 C 13.73 g/m*3 16.63 C 0.66667 km/h
1427 20-09-2014 21:00:00 15.65833 C 12.99 g/m*3 15.66 C 0 km/h
1428 20-09-2014 22:00:00 15.56667 C 13.01 g/m*3 15.57 C 0 km/h
1429 20-09-2014 23:00:00 15.90833 C 13.2 g/m*3 15.91 C 1.73333 km/h
1430 21-09-2014 00:00:00 15.45833 C 12.9 g/m*3 15.46 C 0 km/h
1431 21-09-2014 01:00:00 15.70833 C 13.12 g/m*3 15.71 C 1.875 km/h
1432 21-09-2014 02:00:00 15.775 C 13.17 g/m*3 15.78 C 0 km/h
1433 21-09-2014 03:00:00 15.76667 C 13.17 g/m*3 15.77 C 0 km/h
1434 21-09-2014 04:00:00 15.75833 C 13.16 g/m*3 15.76 C 0 km/h
1435 21-09-2014 05:00:00 15.8 C 13.19 g/m*3 15.8 C 0 km/h
1436 21-09-2014 06:00:00 15.675 C 13.09 g/m*3 15.68 C 0 km/h
1437 21-09-2014 07:00:00 15.40833 C 12.89 g/m*3 15.41 C 0 km/h
1438 21-09-2014 08:00:00 15.69167 C 13.15 g/m*3 15.69 C 0 km/h
1439 21-09-2014 09:00:00 15.96667 C 13.46 g/m*3 15.97 C 0 km/h
1440 21-09-2014 10:00:00 16.3 C 13.73 g/m*3 16.3 C 0 km/h
1441 21-09-2014 11:00:00 16.575 C 13.96 g/m*3 16.58 C 0 km/h
1442 21-09-2014 12:00:00 16.59167 C 13.83 g/m*3 16.59 C 3.76667 km/h
1443 21-09-2014 13:00:00 16.36667 C 13.26 g/m*3 16.37 C 7.775 km/h
1444 21-09-2014 14:00:00 16.55 C 13.2 g/m*3 16.55 C 5.91667 km/h
1445 21-09-2014 15:00:00 17.01667 C 13.25 g/m*3 17.02 C 7.25 km/h
1446 21-09-2014 16:00:00 16.80833 C 12.8 g/m*3 16.81 C 6.98333 km/h
1447 21-09-2014 17:00:00 16.425 C 12.13 g/m*3 16.43 C 7.50833 km/h
1448 21-09-2014 18:00:00 16.33333 C 11.89 g/m*3 16.33 C 4.55 km/h
1449 21-09-2014 19:00:00 14.925 C 11.57 g/m*3 14.93 C 2.95 km/h
1450 21-09-2014 20:00:00 13.45 C 10.86 g/m*3 13.45 C 0.53333 km/h
Sensor: Nr:Datum:Temp:Abs-Feuchte:Windchill:Wind:
Aussen-T/F 1451 21-09-2014 21:00:00 12.63333 C 10.53 g/m*3 12.63 C 0 km/h
1452 21-09-2014 22:00:00 12.15 C 10.18 g/m*3 12.15 C 0 km/h
1453 21-09-2014 23:00:00 11.94167 C 10.04 g/m*3 11.94 C 0 km/h
1454 22-09-2014 00:00:00 12.11667 C 10.05 g/m*3 12.12 C 0 km/h
1455 22-09-2014 01:00:00 11.95833 C 10.07 g/m*3 11.96 C 0 km/h
1456 22-09-2014 02:00:00 11.925 C 9.98 g/m*3 11.93 C 0 km/h
1457 22-09-2014 03:00:00 12.29167 C 10.08 g/m*3 12.29 C 0 km/h
1458 22-09-2014 04:00:00 12.64167 C 10.2 g/m*3 12.64 C 0.80833 km/h
1459 22-09-2014 05:00:00 12.55833 C 10.07 g/m*3 12.56 C 0.66667 km/h
1460 22-09-2014 06:00:00 12.175 C 9.82 g/m*3 12.18 C 3.61667 km/h
1461 22-09-2014 07:00:00 11.26667 C 9.49 g/m*3 11.27 C 0 km/h
1462 22-09-2014 08:00:00 11.525 C 9.53 g/m*3 11.53 C 0.26667 km/h
1463 22-09-2014 09:00:00 12.98333 C 9.5 g/m*3 12.98 C 5.1 km/h
1464 22-09-2014 10:00:00 13.63333 C 9.16 g/m*3 13.63 C 8.71667 km/h
1465 22-09-2014 11:00:00 13.69167 C 9.28 g/m*3 13.69 C 10.49167 km/h
1466 22-09-2014 12:00:00 14.39167 C 9.34 g/m*3 14.39 C 11.425 km/h
1467 22-09-2014 13:00:00 15.08333 C 9.29 g/m*3 15.08 C 14.76667 km/h
1468 22-09-2014 14:00:00 14.075 C 9.39 g/m*3 14.08 C 19.86667 km/h
1469 22-09-2014 15:00:00 12.89167 C 9.44 g/m*3 12.89 C 9.41667 km/h
1470 22-09-2014 16:00:00 13.75833 C 9.48 g/m*3 13.76 C 9.95 km/h
1471 22-09-2014 17:00:00 14.4 C 9.15 g/m*3 14.4 C 9.28333 km/h
1472 22-09-2014 18:00:00 14.65 C 9.17 g/m*3 14.65 C 5.35833 km/h
1473 22-09-2014 19:00:00 11.9 C 9.36 g/m*3 11.9 C 0.4 km/h
1474 22-09-2014 20:00:00 10.85 C 9.11 g/m*3 10.85 C 0.66667 km/h
1475 22-09-2014 21:00:00 10.25 C 8.87 g/m*3 10.25 C 0 km/h
Sensor: Nr:Datum:Temp:Abs-Feuchte:Windchill:Wind:
Aussen-T/F 1476 22-09-2014 22:00:00 9.86667 C 8.75 g/m*3 9.87 C 0 km/h
1477 22-09-2014 23:00:00 9.88333 C 8.74 g/m*3 9.88 C 0 km/h
1478 23-09-2014 00:00:00 9.11667 C 8.43 g/m*3 9.12 C 0 km/h
1479 23-09-2014 01:00:00 8.56667 C 8.19 g/m*3 8.57 C 0 km/h
1480 23-09-2014 02:00:00 8.025 C 7.95 g/m*3 8.03 C 0 km/h
1481 23-09-2014 03:00:00 7.66667 C 7.81 g/m*3 7.67 C 0 km/h
1482 23-09-2014 04:00:00 7.28333 C 7.66 g/m*3 7.28 C 0 km/h
1483 23-09-2014 05:00:00 6.75 C 7.39 g/m*3 6.75 C 0 km/h
1484 23-09-2014 06:00:00 6.875 C 7.5 g/m*3 6.88 C 1.20833 km/h
1485 23-09-2014 07:00:00 6.75833 C 7.43 g/m*3 6.76 C 2.68333 km/h
1486 23-09-2014 08:00:00 6.95 C 7.57 g/m*3 6.95 C 0.93333 km/h
1487 23-09-2014 09:00:00 7.69167 C 7.94 g/m*3 7.69 C 2.13333 km/h
1488 23-09-2014 10:00:00 8.65833 C 8.38 g/m*3 8.66 C 3.73333 km/h
1489 23-09-2014 11:00:00 9.90833 C 8.73 g/m*3 9.91 C 1.2 km/h
1490 23-09-2014 12:00:00 10.99167 C 9.22 g/m*3 10.99 C 0 km/h
1491 23-09-2014 13:00:00 13.04167 C 9.93 g/m*3 13.04 C 0 km/h
1492 23-09-2014 14:00:00 13.975 C 9.8 g/m*3 13.98 C 0.4 km/h
1493 23-09-2014 15:00:00 14.10833 C 9.34 g/m*3 14.11 C 0 km/h
1494 23-09-2014 16:00:00 16.45 C 8.83 g/m*3 16.45 C 0.53333 km/h
1495 23-09-2014 17:00:00 15.00833 C 9.44 g/m*3 15.01 C 0 km/h
1496 23-09-2014 18:00:00 12.61667 C 9.51 g/m*3 12.62 C 0 km/h
1497 23-09-2014 19:00:00 10.98333 C 8.91 g/m*3 10.98 C 0 km/h
1498 23-09-2014 20:00:00 9.95833 C 8.57 g/m*3 9.96 C 0 km/h
1499 23-09-2014 21:00:00 9.15 C 8.32 g/m*3 9.15 C 0 km/h
1500 23-09-2014 22:00:00 9.00833 C 8.31 g/m*3 9.01 C 0 km/h
Sensor: Nr:Datum:Temp:Abs-Feuchte:Windchill:Wind:
Aussen-T/F 1501 23-09-2014 23:00:00 8.33333 C 8 g/m*3 8.33 C 0 km/h
1502 24-09-2014 00:00:00 8.24167 C 8.05 g/m*3 8.24 C 0 km/h
1503 24-09-2014 01:00:00 8.325 C 8.1 g/m*3 8.32 C 0 km/h
1504 24-09-2014 02:00:00 7.96667 C 7.92 g/m*3 7.97 C 0 km/h
1505 24-09-2014 03:00:00 7.69167 C 7.79 g/m*3 7.69 C 0 km/h
1506 24-09-2014 04:00:00 7.55 C 7.74 g/m*3 7.55 C 0 km/h
1507 24-09-2014 05:00:00 7.325 C 7.68 g/m*3 7.33 C 0 km/h
1508 24-09-2014 06:00:00 7.29167 C 7.66 g/m*3 7.29 C 0 km/h
1509 24-09-2014 07:00:00 7.06667 C 7.55 g/m*3 7.07 C 0 km/h
1510 24-09-2014 08:00:00 7.2 C 7.63 g/m*3 7.2 C 0 km/h
1511 24-09-2014 09:00:00 7.7 C 7.89 g/m*3 7.7 C 0 km/h
1512 24-09-2014 10:00:00 8.475 C 8.26 g/m*3 8.48 C 0 km/h
1513 24-09-2014 11:00:00 10.15833 C 8.87 g/m*3 10.16 C 0 km/h
1514 24-09-2014 12:00:00 12.9 C 9.46 g/m*3 12.9 C 0 km/h
1515 24-09-2014 13:00:00 15.08333 C 9.81 g/m*3 15.08 C 0 km/h
1516 24-09-2014 14:00:00 15.75833 C 10.18 g/m*3 15.76 C 0 km/h
1517 24-09-2014 15:00:00 15.04167 C 10.93 g/m*3 15.04 C 0 km/h
1518 24-09-2014 16:00:00 16.25833 C 10.43 g/m*3 16.26 C 0 km/h
1519 24-09-2014 17:00:00 15.80833 C 10.54 g/m*3 15.81 C 0 km/h
1520 24-09-2014 18:00:00 14.03333 C 10.57 g/m*3 14.03 C 0 km/h
1521 24-09-2014 19:00:00 13.11667 C 10.38 g/m*3 13.12 C 0 km/h
1522 24-09-2014 20:00:00 13.69167 C 9.96 g/m*3 13.69 C 0 km/h
1523 24-09-2014 21:00:00 13.88333 C 10.01 g/m*3 13.88 C 5.5 km/h
1524 24-09-2014 22:00:00 13.04167 C 10.16 g/m*3 13.04 C 3.86667 km/h
1525 24-09-2014 23:00:00 12.9 C 10.08 g/m*3 12.9 C 3.88333 km/h
Sensor: Nr:Datum:Temp:Abs-Feuchte:Windchill:Wind:
Aussen-T/F 1526 25-09-2014 00:00:00 12.425 C 9.84 g/m*3 12.43 C 0.4 km/h
1527 25-09-2014 01:00:00 11.925 C 9.62 g/m*3 11.93 C 0.8 km/h
1528 25-09-2014 02:00:00 11.4 C 9.57 g/m*3 11.4 C 1.06667 km/h
1529 25-09-2014 03:00:00 11.39167 C 9.61 g/m*3 11.39 C 1.46667 km/h
1530 25-09-2014 04:00:00 11.41667 C 9.62 g/m*3 11.42 C 0.8 km/h
1531 25-09-2014 05:00:00 11.625 C 9.77 g/m*3 11.63 C 0.53333 km/h
1532 25-09-2014 06:00:00 11.6 C 9.7 g/m*3 11.6 C 0 km/h
1533 25-09-2014 07:00:00 11.60833 C 9.7 g/m*3 11.61 C 1.86667 km/h
1534 25-09-2014 08:00:00 12.125 C 9.83 g/m*3 12.13 C 4.00833 km/h
1535 25-09-2014 09:00:00 12.675 C 10.03 g/m*3 12.68 C 5.89167 km/h
1536 25-09-2014 10:00:00 13.65833 C 10.37 g/m*3 13.66 C 2.275 km/h
1537 25-09-2014 11:00:00 14.46667 C 10.65 g/m*3 14.47 C 4.275 km/h
1538 25-09-2014 12:00:00 15.56667 C 10.7 g/m*3 15.57 C 7.38333 km/h
1539 25-09-2014 13:00:00 16.01667 C 10.74 g/m*3 16.02 C 4.81667 km/h
1540 25-09-2014 14:00:00 16.35 C 11.19 g/m*3 16.35 C 1.33333 km/h
1541 25-09-2014 15:00:00 16.94167 C 10.68 g/m*3 16.94 C 5.09167 km/h
1542 25-09-2014 16:00:00 17.83333 C 9.72 g/m*3 17.83 C 7.79167 km/h
1543 25-09-2014 17:00:00 17.41667 C 9.77 g/m*3 17.42 C 6.575 km/h
1544 25-09-2014 18:00:00 15.9 C 10.1 g/m*3 15.9 C 3.88333 km/h
1545 25-09-2014 19:00:00 13.675 C 10.16 g/m*3 13.68 C 1.33333 km/h
1546 25-09-2014 20:00:00 13.39167 C 10.16 g/m*3 13.39 C 1.06667 km/h
1547 25-09-2014 21:00:00 13.125 C 10.15 g/m*3 13.13 C 0.66667 km/h
1548 25-09-2014 22:00:00 12.89167 C 10.12 g/m*3 12.89 C 0 km/h
1549 25-09-2014 23:00:00 12.875 C 10.03 g/m*3 12.88 C 1.06667 km/h
1550 26-09-2014 00:00:00 12.46667 C 9.86 g/m*3 12.47 C 0.53333 km/h
Sensor: Nr:Datum:Temp:Abs-Feuchte:Windchill:Wind:
Aussen-T/F 1551 26-09-2014 01:00:00 12.74167 C 9.88 g/m*3 12.74 C 0.13333 km/h
1552 26-09-2014 02:00:00 12.46667 C 9.88 g/m*3 12.47 C 0 km/h
1553 26-09-2014 03:00:00 11.90833 C 9.62 g/m*3 11.91 C 0 km/h
1554 26-09-2014 04:00:00 11.10833 C 9.31 g/m*3 11.11 C 0 km/h
1555 26-09-2014 05:00:00 10.68333 C 9.17 g/m*3 10.68 C 0 km/h
1556 26-09-2014 06:00:00 10.65833 C 9.18 g/m*3 10.66 C 0 km/h
1557 26-09-2014 07:00:00 10.925 C 9.3 g/m*3 10.93 C 0 km/h
1558 26-09-2014 08:00:00 11.74167 C 9.62 g/m*3 11.74 C 0 km/h
1559 26-09-2014 09:00:00 12.85 C 9.82 g/m*3 12.85 C 8.06667 km/h
1560 26-09-2014 10:00:00 13.85833 C 10.15 g/m*3 13.86 C 9 km/h
1561 26-09-2014 11:00:00 15.15833 C 10.77 g/m*3 15.16 C 8.20833 km/h
1562 26-09-2014 12:00:00 16.48333 C 11.18 g/m*3 16.48 C 10.48333 km/h
1563 26-09-2014 13:00:00 17.275 C 11.41 g/m*3 17.27 C 8.20833 km/h
1564 26-09-2014 14:00:00 17.975 C 11.71 g/m*3 17.98 C 7.25 km/h
1565 26-09-2014 15:00:00 17.20833 C 12.26 g/m*3 17.21 C 1.34167 km/h
1566 26-09-2014 16:00:00 16.76667 C 12.79 g/m*3 16.77 C 0.13333 km/h
1567 26-09-2014 17:00:00 16.89167 C 12.88 g/m*3 16.89 C 0.26667 km/h
1568 26-09-2014 18:00:00 16.26667 C 12.6 g/m*3 16.27 C 0.26667 km/h
1569 26-09-2014 19:00:00 15.64167 C 12.29 g/m*3 15.64 C 0.8 km/h
1570 26-09-2014 20:00:00 15.80833 C 12.44 g/m*3 15.81 C 3.46667 km/h
1571 26-09-2014 21:00:00 15.53333 C 12.32 g/m*3 15.53 C 0.8 km/h
1572 26-09-2014 22:00:00 14.925 C 12.13 g/m*3 14.93 C 0 km/h
1573 26-09-2014 23:00:00 14.63333 C 12.02 g/m*3 14.63 C 0 km/h
1574 27-09-2014 00:00:00 14.43333 C 11.89 g/m*3 14.43 C 0 km/h
1575 27-09-2014 01:00:00 14.56667 C 11.99 g/m*3 14.57 C 0 km/h
Sensor: Nr:Datum:Temp:Abs-Feuchte:Windchill:Wind:
Aussen-T/F 1576 27-09-2014 02:00:00 14.56667 C 11.99 g/m*3 14.57 C 0 km/h
1577 27-09-2014 03:00:00 14.4 C 11.87 g/m*3 14.4 C 0 km/h
1578 27-09-2014 04:00:00 14.3 C 11.79 g/m*3 14.3 C 0 km/h
1579 27-09-2014 05:00:00 14.18333 C 11.73 g/m*3 14.18 C 0 km/h
1580 27-09-2014 06:00:00 14.1 C 11.77 g/m*3 14.1 C 0 km/h
1581 27-09-2014 07:00:00 14.03333 C 11.72 g/m*3 14.03 C 0 km/h
1582 27-09-2014 08:00:00 14.06667 C 11.77 g/m*3 14.07 C 0 km/h
1583 27-09-2014 09:00:00 14.89167 C 12.28 g/m*3 14.89 C 0 km/h
1584 27-09-2014 10:00:00 16.31667 C 12.74 g/m*3 16.32 C 0 km/h
1585 27-09-2014 11:00:00 17.23333 C 12.59 g/m*3 17.23 C 0 km/h
1586 27-09-2014 12:00:00 17.59167 C 12.6 g/m*3 17.59 C 0 km/h
1587 27-09-2014 13:00:00 18.675 C 13.2 g/m*3 18.68 C 0 km/h
1588 27-09-2014 14:00:00 19.04167 C 13.55 g/m*3 19.04 C 0 km/h
1589 27-09-2014 15:00:00 18.48333 C 13.09 g/m*3 18.48 C 0 km/h
1590 27-09-2014 16:00:00 19.29167 C 12.78 g/m*3 19.29 C 1.60833 km/h
1591 27-09-2014 17:00:00 18.53333 C 13.16 g/m*3 18.53 C 0.4 km/h
1592 27-09-2014 18:00:00 17.09167 C 12.8 g/m*3 17.09 C 0.4 km/h
1593 27-09-2014 19:00:00 15.675 C 12.05 g/m*3 15.68 C 0.93333 km/h
1594 27-09-2014 20:00:00 14.56667 C 11.56 g/m*3 14.57 C 0 km/h
1595 27-09-2014 21:00:00 13.49167 C 11.02 g/m*3 13.49 C 0 km/h
1596 27-09-2014 22:00:00 12.73333 C 10.68 g/m*3 12.73 C 0 km/h
1597 27-09-2014 23:00:00 12.125 C 10.31 g/m*3 12.13 C 0 km/h
1598 28-09-2014 00:00:00 11.70833 C 10.12 g/m*3 11.71 C 0 km/h
1599 28-09-2014 01:00:00 11.38333 C 9.95 g/m*3 11.38 C 0 km/h
1600 28-09-2014 02:00:00 10.94167 C 9.67 g/m*3 10.94 C 0 km/h
Sensor: Nr:Datum:Temp:Abs-Feuchte:Windchill:Wind:
Aussen-T/F 1601 28-09-2014 03:00:00 11 C 9.77 g/m*3 11 C 0 km/h
1602 28-09-2014 04:00:00 10.8 C 9.68 g/m*3 10.8 C 0 km/h
1603 28-09-2014 05:00:00 10.58333 C 9.55 g/m*3 10.58 C 0 km/h
1604 28-09-2014 06:00:00 10.39167 C 9.44 g/m*3 10.39 C 0 km/h
1605 28-09-2014 07:00:00 10.65 C 9.6 g/m*3 10.65 C 0 km/h
1606 28-09-2014 08:00:00 10.775 C 9.67 g/m*3 10.78 C 1.06667 km/h
1607 28-09-2014 09:00:00 11.01667 C 9.82 g/m*3 11.02 C 0.93333 km/h
1608 28-09-2014 10:00:00 12.09167 C 10.54 g/m*3 12.09 C 0.66667 km/h
1609 28-09-2014 11:00:00 13.33333 C 11.37 g/m*3 13.33 C 1.46667 km/h
1610 28-09-2014 12:00:00 15.33333 C 12.38 g/m*3 15.33 C 0.13333 km/h
1611 28-09-2014 13:00:00 17.55833 C 13.7 g/m*3 17.56 C 0 km/h
1612 28-09-2014 14:00:00 18.53333 C 14.41 g/m*3 18.53 C 0.4 km/h
1613 28-09-2014 15:00:00 19.65833 C 14.88 g/m*3 19.66 C 0.53333 km/h
1614 28-09-2014 16:00:00 19.96667 C 15.03 g/m*3 19.97 C 0.26667 km/h
1615 28-09-2014 17:00:00 19 C 14.69 g/m*3 19 C 1.2 km/h
1616 28-09-2014 18:00:00 18.16667 C 14.23 g/m*3 18.17 C 0.13333 km/h
1617 28-09-2014 19:00:00 16.95833 C 13.51 g/m*3 16.96 C 0.53333 km/h
1618 28-09-2014 20:00:00 16.7 C 13.29 g/m*3 16.7 C 0.8 km/h
1619 28-09-2014 21:00:00 15.78333 C 12.74 g/m*3 15.78 C 0 km/h
1620 28-09-2014 22:00:00 14.88333 C 12.22 g/m*3 14.88 C 0 km/h
1621 28-09-2014 23:00:00 14.24167 C 11.86 g/m*3 14.24 C 0 km/h
1622 29-09-2014 00:00:00 13.75 C 11.52 g/m*3 13.75 C 0 km/h
1623 29-09-2014 01:00:00 13.075 C 11.05 g/m*3 13.08 C 0 km/h
1624 29-09-2014 02:00:00 12.69167 C 10.81 g/m*3 12.69 C 0 km/h
1625 29-09-2014 03:00:00 12.39167 C 10.69 g/m*3 12.39 C 0 km/h
Sensor: Nr:Datum:Temp:Abs-Feuchte:Windchill:Wind:
Aussen-T/F 1626 29-09-2014 04:00:00 12.44167 C 10.74 g/m*3 12.44 C 0 km/h
1627 29-09-2014 05:00:00 12.29167 C 10.64 g/m*3 12.29 C 0 km/h
1628 29-09-2014 06:00:00 12.08333 C 10.5 g/m*3 12.08 C 0 km/h
1629 29-09-2014 07:00:00 11.925 C 10.4 g/m*3 11.93 C 0 km/h
1630 29-09-2014 08:00:00 12.275 C 10.64 g/m*3 12.28 C 0 km/h
1631 29-09-2014 09:00:00 12.9 C 11.1 g/m*3 12.9 C 0 km/h
1632 29-09-2014 10:00:00 14.23333 C 12.11 g/m*3 14.23 C 0 km/h
1633 29-09-2014 11:00:00 15.85833 C 13.31 g/m*3 15.86 C 0 km/h
1634 29-09-2014 12:00:00 16.94167 C 13.85 g/m*3 16.94 C 0 km/h
1635 29-09-2014 13:00:00 19.05833 C 14.38 g/m*3 19.06 C 1.2 km/h
1636 29-09-2014 14:00:00 19.6 C 14.42 g/m*3 19.6 C 2.14167 km/h
1637 29-09-2014 15:00:00 20.35 C 14.63 g/m*3 20.35 C 2 km/h
1638 29-09-2014 16:00:00 19.44167 C 14.61 g/m*3 19.44 C 0.4 km/h
1639 29-09-2014 17:00:00 18.34167 C 14.08 g/m*3 18.34 C 0.4 km/h
1640 29-09-2014 18:00:00 17.65833 C 13.85 g/m*3 17.66 C 0.13333 km/h
1641 29-09-2014 19:00:00 17.18333 C 13.78 g/m*3 17.18 C 0.53333 km/h
1642 29-09-2014 20:00:00 17.01667 C 13.66 g/m*3 17.02 C 1.33333 km/h
1643 29-09-2014 21:00:00 16.4 C 13.45 g/m*3 16.4 C 0.13333 km/h
1644 29-09-2014 22:00:00 16.09167 C 13.29 g/m*3 16.09 C 0 km/h
1645 29-09-2014 23:00:00 15.95833 C 13.28 g/m*3 15.96 C 0 km/h
1646 30-09-2014 00:00:00 15.55833 C 12.96 g/m*3 15.56 C 0 km/h
1647 30-09-2014 01:00:00 15.325 C 12.78 g/m*3 15.33 C 0 km/h
1648 30-09-2014 02:00:00 15.29167 C 12.79 g/m*3 15.29 C 0 km/h
1649 30-09-2014 03:00:00 15.30833 C 12.8 g/m*3 15.31 C 0 km/h
1650 30-09-2014 04:00:00 15.24167 C 12.75 g/m*3 15.24 C 0 km/h
Sensor: Nr:Datum:Temp:Abs-Feuchte:Windchill:Wind:
Aussen-T/F 1651 30-09-2014 05:00:00 14.60833 C 12.27 g/m*3 14.61 C 0 km/h
1652 30-09-2014 06:00:00 14.66667 C 12.31 g/m*3 14.67 C 0 km/h
1653 30-09-2014 07:00:00 14.80833 C 12.42 g/m*3 14.81 C 0.53333 km/h
1654 30-09-2014 08:00:00 14.70833 C 12.34 g/m*3 14.71 C 0 km/h
1655 30-09-2014 09:00:00 15.05833 C 12.61 g/m*3 15.06 C 0 km/h
1656 30-09-2014 10:00:00 15.85833 C 13.15 g/m*3 15.86 C 2.275 km/h
1657 30-09-2014 11:00:00 17.725 C 13.62 g/m*3 17.73 C 4.16667 km/h
1658 30-09-2014 12:00:00 19.025 C 13.93 g/m*3 19.02 C 6.45833 km/h
1659 30-09-2014 13:00:00 19.05 C 13.84 g/m*3 19.05 C 3.75833 km/h
1660 30-09-2014 14:00:00 19.8 C 14.09 g/m*3 19.8 C 3.08333 km/h
1661 30-09-2014 15:00:00 20.38333 C 14.21 g/m*3 20.38 C 5.36667 km/h
1662 30-09-2014 16:00:00 20.41667 C 14.33 g/m*3 20.42 C 1.33333 km/h
1663 30-09-2014 17:00:00 19.91667 C 14.85 g/m*3 19.92 C 0.4 km/h
1664 30-09-2014 18:00:00 18.375 C 14.44 g/m*3 18.38 C 0 km/h
1665 30-09-2014 19:00:00 17.275 C 13.86 g/m*3 17.27 C 0 km/h
1666 30-09-2014 20:00:00 16.94167 C 13.7 g/m*3 16.94 C 0 km/h
1667 30-09-2014 21:00:00 16.70833 C 13.59 g/m*3 16.71 C 0 km/h
1668 30-09-2014 22:00:00 16.2 C 13.23 g/m*3 16.2 C 0 km/h
1669 30-09-2014 23:00:00 15.775 C 13 g/m*3 15.78 C 0 km/h
1670 01-10-2014 00:00:00 15.68333 C 12.97 g/m*3 15.68 C 0 km/h
1671 01-10-2014 01:00:00 15.425 C 12.76 g/m*3 15.43 C 0 km/h
1672 01-10-2014 02:00:00 15.19167 C 12.64 g/m*3 15.19 C 0 km/h
1673 01-10-2014 03:00:00 15.10833 C 12.63 g/m*3 15.11 C 0 km/h
1674 01-10-2014 04:00:00 14.9 C 12.48 g/m*3 14.9 C 0 km/h
1675 01-10-2014 05:00:00 14.75833 C 12.38 g/m*3 14.76 C 0 km/h
Sensor: Nr:Datum:Temp:Abs-Feuchte:Windchill:Wind:
Aussen-T/F 1676 01-10-2014 06:00:00 14.6 C 12.26 g/m*3 14.6 C 0 km/h
1677 01-10-2014 07:00:00 14.475 C 12.17 g/m*3 14.48 C 0 km/h
1678 01-10-2014 08:00:00 14.35833 C 12.08 g/m*3 14.36 C 0 km/h
1679 01-10-2014 09:00:00 14.40833 C 12.12 g/m*3 14.41 C 0 km/h
1680 01-10-2014 10:00:00 14.74167 C 12.37 g/m*3 14.74 C 0 km/h
1681 01-10-2014 11:00:00 15.55 C 12.73 g/m*3 15.55 C 0 km/h
1682 01-10-2014 12:00:00 16.36667 C 13.06 g/m*3 16.37 C 0 km/h
1683 01-10-2014 13:00:00 19.2 C 14.25 g/m*3 19.2 C 0 km/h
1684 01-10-2014 14:00:00 19.25 C 14.29 g/m*3 19.25 C 0 km/h
1685 01-10-2014 15:00:00 18.775 C 14.15 g/m*3 18.77 C 0 km/h
1686 01-10-2014 16:00:00 18.89167 C 14.1 g/m*3 18.89 C 0 km/h
1687 01-10-2014 17:00:00 17.73333 C 13.71 g/m*3 17.73 C 0 km/h
1688 01-10-2014 18:00:00 16.75833 C 13.13 g/m*3 16.76 C 0 km/h
1689 01-10-2014 19:00:00 16.25833 C 12.94 g/m*3 16.26 C 0 km/h
1690 01-10-2014 20:00:00 15.80833 C 12.69 g/m*3 15.81 C 0 km/h
1691 01-10-2014 21:00:00 14.875 C 12.11 g/m*3 14.88 C 0 km/h
1692 01-10-2014 22:00:00 14.16667 C 11.68 g/m*3 14.17 C 0 km/h
1693 01-10-2014 23:00:00 13.78333 C 11.55 g/m*3 13.78 C 0 km/h
1694 02-10-2014 00:00:00 13.5 C 11.35 g/m*3 13.5 C 0 km/h
1695 02-10-2014 01:00:00 13.425 C 11.29 g/m*3 13.43 C 0 km/h
1696 02-10-2014 02:00:00 13.26667 C 11.19 g/m*3 13.27 C 0 km/h
1697 02-10-2014 03:00:00 12.79167 C 10.91 g/m*3 12.79 C 0 km/h
1698 02-10-2014 04:00:00 12.60833 C 10.85 g/m*3 12.61 C 0 km/h
1699 02-10-2014 05:00:00 12.40833 C 10.71 g/m*3 12.41 C 0 km/h
1700 02-10-2014 06:00:00 12.24167 C 10.6 g/m*3 12.24 C 0 km/h
Sensor: Nr:Datum:Temp:Abs-Feuchte:Windchill:Wind:
Aussen-T/F 1701 02-10-2014 07:00:00 12.1 C 10.51 g/m*3 12.1 C 0 km/h
1702 02-10-2014 08:00:00 12.18333 C 10.56 g/m*3 12.18 C 0 km/h
1703 02-10-2014 09:00:00 12.34167 C 10.71 g/m*3 12.34 C 0 km/h
1704 02-10-2014 10:00:00 12.71667 C 10.99 g/m*3 12.72 C 0 km/h
1705 02-10-2014 11:00:00 13.36667 C 11.47 g/m*3 13.37 C 0 km/h
1706 02-10-2014 12:00:00 14.40833 C 12.18 g/m*3 14.41 C 0 km/h
1707 02-10-2014 13:00:00 17.19167 C 13.65 g/m*3 17.19 C 0 km/h
1708 02-10-2014 14:00:00 18.13333 C 14.24 g/m*3 18.13 C 0 km/h
1709 02-10-2014 15:00:00 18.325 C 14.11 g/m*3 18.33 C 0 km/h
1710 02-10-2014 16:00:00 18.225 C 14.02 g/m*3 18.23 C 0 km/h
1711 02-10-2014 17:00:00 17.60833 C 13.77 g/m*3 17.61 C 0 km/h
1712 02-10-2014 18:00:00 16.8 C 13.17 g/m*3 16.8 C 0 km/h
1713 02-10-2014 19:00:00 15.71667 C 12.49 g/m*3 15.72 C 0 km/h
1714 02-10-2014 20:00:00 14.89167 C 12.02 g/m*3 14.89 C 0 km/h
1715 02-10-2014 21:00:00 13.98333 C 11.49 g/m*3 13.98 C 0 km/h
1716 02-10-2014 22:00:00 13.45833 C 11.2 g/m*3 13.46 C 0 km/h
1717 02-10-2014 23:00:00 12.9 C 10.89 g/m*3 12.9 C 0 km/h
1718 03-10-2014 00:00:00 12.55833 C 10.7 g/m*3 12.56 C 0 km/h
1719 03-10-2014 01:00:00 12.03333 C 10.38 g/m*3 12.03 C 0 km/h
1720 03-10-2014 02:00:00 11.63333 C 10.16 g/m*3 11.63 C 0 km/h
1721 03-10-2014 03:00:00 11.73333 C 10.27 g/m*3 11.73 C 0 km/h
1722 03-10-2014 04:00:00 11.90833 C 10.38 g/m*3 11.91 C 0 km/h
1723 03-10-2014 05:00:00 11.975 C 10.43 g/m*3 11.98 C 0 km/h
1724 03-10-2014 06:00:00 11.625 C 10.2 g/m*3 11.63 C 0 km/h
1725 03-10-2014 07:00:00 11.125 C 9.89 g/m*3 11.13 C 0 km/h
Sensor: Nr:Datum:Temp:Abs-Feuchte:Windchill:Wind:
Aussen-T/F 1726 03-10-2014 08:00:00 11 C 9.83 g/m*3 11 C 0 km/h
1727 03-10-2014 09:00:00 11.34167 C 10.05 g/m*3 11.34 C 0 km/h
1728 03-10-2014 10:00:00 11.825 C 10.42 g/m*3 11.83 C 0 km/h
1729 03-10-2014 11:00:00 12.85 C 11.12 g/m*3 12.85 C 0 km/h
1730 03-10-2014 12:00:00 13.85 C 11.83 g/m*3 13.85 C 0 km/h
1731 03-10-2014 13:00:00 16.45 C 13.5 g/m*3 16.45 C 0 km/h
1732 03-10-2014 14:00:00 17.90833 C 14.12 g/m*3 17.91 C 0 km/h
1733 03-10-2014 15:00:00 19.15833 C 14.2 g/m*3 19.16 C 1.34167 km/h
1734 03-10-2014 16:00:00 19.18333 C 14.35 g/m*3 19.18 C 0.26667 km/h
1735 03-10-2014 17:00:00 17.60833 C 13.52 g/m*3 17.61 C 0 km/h
1736 03-10-2014 18:00:00 16.5 C 12.79 g/m*3 16.5 C 0 km/h
1737 03-10-2014 19:00:00 15.00833 C 11.87 g/m*3 15.01 C 0 km/h
1738 03-10-2014 20:00:00 14.19167 C 11.41 g/m*3 14.19 C 0 km/h
1739 03-10-2014 21:00:00 13.325 C 10.89 g/m*3 13.33 C 0.13333 km/h
1740 03-10-2014 22:00:00 12.61667 C 10.54 g/m*3 12.62 C 0 km/h
1741 03-10-2014 23:00:00 12.3 C 10.42 g/m*3 12.3 C 0 km/h
1742 04-10-2014 00:00:00 11.58333 C 9.99 g/m*3 11.58 C 0 km/h
1743 04-10-2014 01:00:00 11.125 C 9.79 g/m*3 11.13 C 0 km/h
1744 04-10-2014 02:00:00 10.69167 C 9.52 g/m*3 10.69 C 0 km/h
1745 04-10-2014 03:00:00 10.48333 C 9.45 g/m*3 10.48 C 0 km/h
1746 04-10-2014 04:00:00 10.49167 C 9.5 g/m*3 10.49 C 0 km/h
1747 04-10-2014 05:00:00 10.18333 C 9.32 g/m*3 10.18 C 0 km/h
1748 04-10-2014 06:00:00 9.94167 C 9.17 g/m*3 9.94 C 0 km/h
1749 04-10-2014 07:00:00 9.9 C 9.15 g/m*3 9.9 C 0 km/h
1750 04-10-2014 08:00:00 9.85833 C 9.13 g/m*3 9.86 C 0 km/h
Sensor: Nr:Datum:Temp:Abs-Feuchte:Windchill:Wind:
Aussen-T/F 1751 04-10-2014 09:00:00 10.35833 C 9.5 g/m*3 10.36 C 0 km/h
1752 04-10-2014 10:00:00 11 C 9.89 g/m*3 11 C 0 km/h
1753 04-10-2014 11:00:00 12.03333 C 10.57 g/m*3 12.03 C 0 km/h
1754 04-10-2014 12:00:00 13.5 C 11.58 g/m*3 13.5 C 0 km/h
1755 04-10-2014 13:00:00 16.425 C 12.49 g/m*3 16.43 C 0 km/h
1756 04-10-2014 14:00:00 17.7 C 12.07 g/m*3 17.7 C 0 km/h
1757 04-10-2014 15:00:00 18.8 C 11.6 g/m*3 18.8 C 1.88333 km/h
1758 04-10-2014 16:00:00 18.25 C 12.04 g/m*3 18.25 C 2.4 km/h
1759 04-10-2014 17:00:00 16.45 C 12.14 g/m*3 16.45 C 0.4 km/h
1760 04-10-2014 18:00:00 15.1 C 11.65 g/m*3 15.1 C 0.13333 km/h
1761 04-10-2014 19:00:00 13.98333 C 10.99 g/m*3 13.98 C 0 km/h
1762 04-10-2014 20:00:00 13.53333 C 10.88 g/m*3 13.53 C 0 km/h
1763 04-10-2014 21:00:00 13.10833 C 10.66 g/m*3 13.11 C 0 km/h
1764 04-10-2014 22:00:00 12.50833 C 10.4 g/m*3 12.51 C 0 km/h
1765 04-10-2014 23:00:00 11.86667 C 10.13 g/m*3 11.87 C 0 km/h
1766 05-10-2014 00:00:00 11.53333 C 9.97 g/m*3 11.53 C 0 km/h
1767 05-10-2014 01:00:00 11.25 C 9.86 g/m*3 11.25 C 0 km/h
1768 05-10-2014 02:00:00 10.91667 C 9.66 g/m*3 10.92 C 0.53333 km/h
1769 05-10-2014 03:00:00 10.71667 C 9.54 g/m*3 10.72 C 0 km/h
1770 05-10-2014 04:00:00 10.69167 C 9.61 g/m*3 10.69 C 0 km/h
1771 05-10-2014 05:00:00 10.975 C 9.79 g/m*3 10.98 C 0 km/h
1772 05-10-2014 06:00:00 10.95833 C 9.78 g/m*3 10.96 C 0 km/h
1773 05-10-2014 07:00:00 10.95 C 9.78 g/m*3 10.95 C 0 km/h
1774 05-10-2014 08:00:00 11.55833 C 10.16 g/m*3 11.56 C 0 km/h
1775 05-10-2014 09:00:00 12.01667 C 10.45 g/m*3 12.02 C 0 km/h
Sensor: Nr:Datum:Temp:Abs-Feuchte:Windchill:Wind:
Aussen-T/F 1776 05-10-2014 10:00:00 12.51667 C 10.76 g/m*3 12.52 C 0 km/h
1777 05-10-2014 11:00:00 13.25833 C 10.95 g/m*3 13.26 C 0.53333 km/h
1778 05-10-2014 12:00:00 14.84167 C 11.32 g/m*3 14.84 C 0.66667 km/h
1779 05-10-2014 13:00:00 15.725 C 11.52 g/m*3 15.73 C 2.4 km/h
1780 05-10-2014 14:00:00 15.75 C 11.72 g/m*3 15.75 C 5.225 km/h
1781 05-10-2014 15:00:00 15.81667 C 11.78 g/m*3 15.82 C 3.6 km/h
1782 05-10-2014 16:00:00 15.85833 C 11.73 g/m*3 15.86 C 6.01667 km/h
1783 05-10-2014 17:00:00 15.325 C 11.52 g/m*3 15.33 C 4.54167 km/h
1784 05-10-2014 18:00:00 14.53333 C 11.28 g/m*3 14.53 C 0.93333 km/h
1785 05-10-2014 19:00:00 13.34167 C 10.82 g/m*3 13.34 C 0 km/h
1786 05-10-2014 20:00:00 13.1 C 10.9 g/m*3 13.1 C 0 km/h
1787 05-10-2014 21:00:00 13.14167 C 10.87 g/m*3 13.14 C 0.13333 km/h
1788 05-10-2014 22:00:00 13.05 C 10.81 g/m*3 13.05 C 0 km/h
1789 05-10-2014 23:00:00 12.75833 C 10.69 g/m*3 12.76 C 0 km/h
1790 06-10-2014 00:00:00 12.53333 C 10.58 g/m*3 12.53 C 0 km/h
1791 06-10-2014 01:00:00 12.33333 C 10.45 g/m*3 12.33 C 0 km/h
1792 06-10-2014 02:00:00 12.20833 C 10.36 g/m*3 12.21 C 0 km/h
1793 06-10-2014 03:00:00 12.2 C 10.36 g/m*3 12.2 C 0 km/h
1794 06-10-2014 04:00:00 12.25833 C 10.4 g/m*3 12.26 C 0 km/h
1795 06-10-2014 05:00:00 12.3 C 10.42 g/m*3 12.3 C 0 km/h
1796 06-10-2014 06:00:00 12.40833 C 10.49 g/m*3 12.41 C 0 km/h
1797 06-10-2014 07:00:00 12.575 C 10.6 g/m*3 12.58 C 0 km/h
1798 06-10-2014 08:00:00 12.84167 C 10.76 g/m*3 12.84 C 0.53333 km/h
1799 06-10-2014 09:00:00 13.35833 C 10.94 g/m*3 13.36 C 2.13333 km/h
1800 06-10-2014 10:00:00 14.04167 C 11.1 g/m*3 14.04 C 5.09167 km/h
Sensor: Nr:Datum:Temp:Abs-Feuchte:Windchill:Wind:
Aussen-T/F 1801 06-10-2014 11:00:00 15.025 C 11.49 g/m*3 15.03 C 3.2 km/h
1802 06-10-2014 12:00:00 16.2 C 11.68 g/m*3 16.2 C 4.00833 km/h
1803 06-10-2014 13:00:00 17.31667 C 11.93 g/m*3 17.32 C 5.48333 km/h
1804 06-10-2014 14:00:00 17.73333 C 11.85 g/m*3 17.73 C 6.025 km/h
1805 06-10-2014 15:00:00 18.025 C 11.87 g/m*3 18.02 C 6.7 km/h
1806 06-10-2014 16:00:00 18.5 C 11.97 g/m*3 18.5 C 5.20833 km/h
1807 06-10-2014 17:00:00 17.40833 C 12.05 g/m*3 17.41 C 2.8 km/h
1808 06-10-2014 18:00:00 15.45 C 11.65 g/m*3 15.45 C 1.06667 km/h
1809 06-10-2014 19:00:00 13.83333 C 10.98 g/m*3 13.83 C 0.53333 km/h
1810 06-10-2014 20:00:00 13.16667 C 10.79 g/m*3 13.17 C 0 km/h
1811 06-10-2014 21:00:00 13.51667 C 11.01 g/m*3 13.52 C 0.66667 km/h
1812 06-10-2014 22:00:00 13.74167 C 11 g/m*3 13.74 C 1.475 km/h
1813 06-10-2014 23:00:00 14.225 C 11.05 g/m*3 14.23 C 3.86667 km/h
1814 07-10-2014 00:00:00 14.15 C 11 g/m*3 14.15 C 3.06667 km/h
1815 07-10-2014 01:00:00 13.96667 C 10.95 g/m*3 13.97 C 3.46667 km/h
1816 07-10-2014 02:00:00 13.85 C 11 g/m*3 13.85 C 2.13333 km/h
1817 07-10-2014 03:00:00 13.44167 C 11.01 g/m*3 13.44 C 2.66667 km/h
1818 07-10-2014 04:00:00 13.3 C 11.07 g/m*3 13.3 C 1.86667 km/h
1819 07-10-2014 05:00:00 13.25833 C 11.14 g/m*3 13.26 C 0.4 km/h
1820 07-10-2014 06:00:00 13.26667 C 11.18 g/m*3 13.27 C 2.26667 km/h
1821 07-10-2014 07:00:00 13.35 C 11.25 g/m*3 13.35 C 1.2 km/h
1822 07-10-2014 08:00:00 13.70833 C 11.56 g/m*3 13.71 C 2.94167 km/h
1823 07-10-2014 09:00:00 14.425 C 12.03 g/m*3 14.43 C 2.13333 km/h
1824 07-10-2014 10:00:00 15.05 C 12.35 g/m*3 15.05 C 7.78333 km/h
1825 07-10-2014 11:00:00 14.925 C 11.82 g/m*3 14.93 C 11.26667 km/h
Sensor: Nr:Datum:Temp:Abs-Feuchte:Windchill:Wind:
Aussen-T/F 1826 07-10-2014 12:00:00 14.80833 C 11.61 g/m*3 14.81 C 13.7 km/h
1827 07-10-2014 13:00:00 16.05833 C 11.67 g/m*3 16.06 C 14.36667 km/h
1828 07-10-2014 14:00:00 16.78333 C 11.32 g/m*3 16.78 C 11.7 km/h
1829 07-10-2014 15:00:00 16.04167 C 11.63 g/m*3 16.04 C 3.625 km/h
1830 07-10-2014 16:00:00 14.40833 C 10.74 g/m*3 14.41 C 7.78333 km/h
1831 07-10-2014 17:00:00 13.1 C 9.8 g/m*3 13.1 C 7.78333 km/h
1832 07-10-2014 18:00:00 12.70833 C 9.99 g/m*3 12.71 C 3.06667 km/h
1833 07-10-2014 19:00:00 12.23333 C 10.04 g/m*3 12.23 C 1.46667 km/h
1834 07-10-2014 20:00:00 12.08333 C 9.93 g/m*3 12.08 C 1.46667 km/h
1835 07-10-2014 21:00:00 11.34167 C 9.74 g/m*3 11.34 C 0.13333 km/h
1836 07-10-2014 22:00:00 11.33333 C 9.87 g/m*3 11.33 C 0 km/h
1837 07-10-2014 23:00:00 11.64167 C 10.04 g/m*3 11.64 C 1.2 km/h
1838 08-10-2014 00:00:00 11.50833 C 9.96 g/m*3 11.51 C 0.53333 km/h
1839 08-10-2014 01:00:00 11.36667 C 9.94 g/m*3 11.37 C 0 km/h
1840 08-10-2014 02:00:00 11.28333 C 9.88 g/m*3 11.28 C 0 km/h
1841 08-10-2014 03:00:00 11.075 C 9.77 g/m*3 11.08 C 0 km/h
1842 08-10-2014 04:00:00 11.05833 C 9.85 g/m*3 11.06 C 0 km/h
1843 08-10-2014 05:00:00 11.13333 C 9.89 g/m*3 11.13 C 0 km/h
1844 08-10-2014 06:00:00 11.25 C 9.96 g/m*3 11.25 C 0 km/h
1845 08-10-2014 07:00:00 11.34167 C 10.02 g/m*3 11.34 C 0 km/h
1846 08-10-2014 08:00:00 11.775 C 10.3 g/m*3 11.78 C 0 km/h
1847 08-10-2014 09:00:00 12.50833 C 10.78 g/m*3 12.51 C 0 km/h
1848 08-10-2014 10:00:00 13.425 C 11.39 g/m*3 13.43 C 0 km/h
1849 08-10-2014 11:00:00 14.39167 C 11.78 g/m*3 14.39 C 0 km/h
1850 08-10-2014 12:00:00 14.29167 C 11.74 g/m*3 14.29 C 0 km/h
Sensor: Nr:Datum:Temp:Abs-Feuchte:Windchill:Wind:
Aussen-T/F 1851 08-10-2014 13:00:00 14.14167 C 11.8 g/m*3 14.14 C 0.93333 km/h
1852 08-10-2014 14:00:00 14.17 C 11.86 g/m*3 14.17 C 0.16 km/h
1853 08-10-2014 15:00:00 15.0625 C 12.61 g/m*3 15.06 C 1.6 km/h
1854 08-10-2014 16:00:00 15.21667 C 12.72 g/m*3 15.22 C 0 km/h
1855 08-10-2014 17:00:00 15.2 C 12.72 g/m*3 15.2 C 0 km/h
1856 08-10-2014 19:00:00 15.25556 C 12.76 g/m*3 15.26 C 0.17778 km/h
1857 08-10-2014 20:00:00 15.16667 C 12.69 g/m*3 15.17 C 0 km/h
1858 08-10-2014 21:00:00 15.26667 C 12.88 g/m*3 15.27 C 0.53333 km/h
1859 08-10-2014 22:00:00 15.85833 C 13.37 g/m*3 15.86 C 0.93333 km/h
1860 08-10-2014 23:00:00 16.16667 C 13.62 g/m*3 16.17 C 0.93333 km/h
1861 09-10-2014 00:00:00 16.19167 C 13.65 g/m*3 16.19 C 0 km/h
1862 09-10-2014 01:00:00 16.35833 C 13.78 g/m*3 16.36 C 4.28333 km/h
1863 09-10-2014 02:00:00 16.80833 C 13.8 g/m*3 16.81 C 6.43333 km/h
1864 09-10-2014 03:00:00 16.00833 C 13.21 g/m*3 16.01 C 1.86667 km/h
1865 09-10-2014 04:00:00 15.61667 C 12.99 g/m*3 15.62 C 1.2 km/h
1866 09-10-2014 05:00:00 15.55 C 12.99 g/m*3 15.55 C 1.2 km/h
1867 09-10-2014 06:00:00 15.6 C 13.03 g/m*3 15.6 C 0.13333 km/h
1868 09-10-2014 07:00:00 15.61111 C 13.04 g/m*3 15.61 C 0 km/h
1869 09-10-2014 11:00:00 16.9 C 14.24 g/m*3 16.9 C 0 km/h
1870 09-10-2014 12:00:00 16.96 C 14.29 g/m*3 16.96 C 0 km/h
1871 09-10-2014 14:00:00 15.54 C 12.67 g/m*3 15.54 C 7.24 km/h
1872 09-10-2014 15:00:00 15.41667 C 12.65 g/m*3 15.42 C 0.53333 km/h
1873 09-10-2014 16:00:00 15.15 C 12.61 g/m*3 15.15 C 0.94167 km/h
1874 09-10-2014 17:00:00 14.94167 C 12.52 g/m*3 14.94 C 0.53333 km/h
1875 09-10-2014 18:00:00 14.8 C 12.41 g/m*3 14.8 C 0 km/h
Sensor: Nr:Datum:Temp:Abs-Feuchte:Windchill:Wind:
Aussen-T/F 1876 09-10-2014 19:00:00 13.625 C 11.55 g/m*3 13.63 C 0 km/h
1877 09-10-2014 20:00:00 13.4 C 11.39 g/m*3 13.4 C 0 km/h
1878 09-10-2014 21:00:00 13.65 C 11.57 g/m*3 13.65 C 0 km/h
1879 09-10-2014 22:00:00 12.88333 C 11.02 g/m*3 12.88 C 1.74167 km/h
1880 09-10-2014 23:00:00 12.375 C 10.69 g/m*3 12.38 C 0 km/h
1881 10-10-2014 00:00:00 12.15833 C 10.55 g/m*3 12.16 C 0 km/h
1882 10-10-2014 01:00:00 12.19167 C 10.57 g/m*3 12.19 C 0 km/h
1883 10-10-2014 02:00:00 12.25833 C 10.61 g/m*3 12.26 C 0 km/h
1884 10-10-2014 03:00:00 12.60833 C 10.86 g/m*3 12.61 C 0 km/h
1885 10-10-2014 04:00:00 12.65833 C 10.92 g/m*3 12.66 C 0 km/h
1886 10-10-2014 05:00:00 12.725 C 10.99 g/m*3 12.73 C 0 km/h
1887 10-10-2014 06:00:00 12.69167 C 10.91 g/m*3 12.69 C 0.13333 km/h
1888 10-10-2014 07:00:00 12.83333 C 11.1 g/m*3 12.83 C 0 km/h
1889 10-10-2014 10:00:00 14.06667 C 12.01 g/m*3 14.07 C 0 km/h
1890 10-10-2014 11:00:00 14.675 C 12.28 g/m*3 14.68 C 0.93333 km/h
1891 10-10-2014 12:00:00 15.99167 C 12.7 g/m*3 15.99 C 0.53333 km/h
1892 10-10-2014 13:00:00 17.03333 C 12.72 g/m*3 17.03 C 1.46667 km/h
1893 10-10-2014 14:00:00 17.25 C 12.93 g/m*3 17.25 C 2.13333 km/h
1894 10-10-2014 15:00:00 16.40833 C 13.11 g/m*3 16.41 C 0 km/h
1895 10-10-2014 16:00:00 15.95833 C 13 g/m*3 15.96 C 0 km/h
1896 10-10-2014 17:00:00 15.75 C 12.93 g/m*3 15.75 C 0 km/h
1897 10-10-2014 18:00:00 15.10833 C 12.52 g/m*3 15.11 C 0 km/h
1898 10-10-2014 19:00:00 14.35833 C 11.96 g/m*3 14.36 C 0 km/h
1899 10-10-2014 20:00:00 14.13333 C 11.84 g/m*3 14.13 C 0 km/h
1900 10-10-2014 21:00:00 13.81667 C 11.66 g/m*3 13.82 C 0 km/h
Sensor: Nr:Datum:Temp:Abs-Feuchte:Windchill:Wind:
Aussen-T/F 1901 10-10-2014 22:00:00 13.79167 C 11.67 g/m*3 13.79 C 0 km/h
1902 10-10-2014 23:00:00 13.71667 C 11.62 g/m*3 13.72 C 0 km/h
1903 11-10-2014 00:00:00 13.83333 C 11.7 g/m*3 13.83 C 0 km/h
1904 11-10-2014 01:00:00 14.01667 C 11.83 g/m*3 14.02 C 0 km/h
1905 11-10-2014 02:00:00 13.49167 C 11.46 g/m*3 13.49 C 0 km/h
1906 11-10-2014 03:00:00 13.48333 C 11.49 g/m*3 13.48 C 0 km/h
1907 11-10-2014 04:00:00 13.56667 C 11.56 g/m*3 13.57 C 0 km/h
1908 11-10-2014 05:00:00 13.61667 C 11.61 g/m*3 13.62 C 0.13333 km/h
1909 11-10-2014 06:00:00 13.24167 C 11.36 g/m*3 13.24 C 0 km/h
1910 11-10-2014 07:00:00 13.55 C 11.62 g/m*3 13.55 C 0 km/h
1911 11-10-2014 08:00:00 13.66667 C 11.7 g/m*3 13.67 C 0 km/h
1912 11-10-2014 09:00:00 13.98333 C 11.93 g/m*3 13.98 C 0.26667 km/h
1913 11-10-2014 10:00:00 14.13333 C 12.04 g/m*3 14.13 C 0.4 km/h
1914 11-10-2014 11:00:00 14.66667 C 12.34 g/m*3 14.67 C 0 km/h
1915 11-10-2014 12:00:00 15.975 C 13.15 g/m*3 15.98 C 1.06667 km/h
1916 11-10-2014 13:00:00 16.81667 C 13.36 g/m*3 16.82 C 0.4 km/h
1917 11-10-2014 14:00:00 17.16667 C 13.71 g/m*3 17.17 C 1.6 km/h
1918 11-10-2014 15:00:00 17.625 C 13.83 g/m*3 17.63 C 1.33333 km/h
1919 11-10-2014 16:00:00 17.71667 C 13.69 g/m*3 17.72 C 0.4 km/h
1920 11-10-2014 17:00:00 17.06667 C 13.4 g/m*3 17.07 C 0.13333 km/h
1921 11-10-2014 18:00:00 15.85833 C 12.57 g/m*3 15.86 C 0.4 km/h
1922 11-10-2014 19:00:00 14.76667 C 12.09 g/m*3 14.77 C 1.33333 km/h
1923 11-10-2014 20:00:00 14.25833 C 11.76 g/m*3 14.26 C 1.06667 km/h
1924 11-10-2014 21:00:00 14.68333 C 11.62 g/m*3 14.68 C 0.8 km/h
1925 11-10-2014 22:00:00 14.03333 C 11.28 g/m*3 14.03 C 1.73333 km/h
Sensor: Nr:Datum:Temp:Abs-Feuchte:Windchill:Wind:
Aussen-T/F 1926 11-10-2014 23:00:00 13.46667 C 10.88 g/m*3 13.47 C 0.4 km/h
1927 12-10-2014 00:00:00 12.2 C 10.4 g/m*3 12.2 C 0 km/h
1928 12-10-2014 01:00:00 11.63333 C 10.1 g/m*3 11.63 C 0 km/h
1929 12-10-2014 02:00:00 11.04167 C 9.75 g/m*3 11.04 C 0 km/h
1930 12-10-2014 03:00:00 10.325 C 9.33 g/m*3 10.33 C 0 km/h
1931 12-10-2014 04:00:00 9.975 C 9.19 g/m*3 9.98 C 0.26667 km/h
1932 12-10-2014 05:00:00 10.24167 C 9.35 g/m*3 10.24 C 0.53333 km/h
1933 12-10-2014 06:00:00 9.975 C 9.19 g/m*3 9.98 C 0.4 km/h
1934 12-10-2014 07:00:00 9.725 C 9.06 g/m*3 9.73 C 0.66667 km/h
1935 12-10-2014 08:00:00 9.70833 C 9.12 g/m*3 9.71 C 1.06667 km/h
1936 12-10-2014 09:00:00 9.96667 C 9.28 g/m*3 9.97 C 0.4 km/h
1937 12-10-2014 10:00:00 10.5 C 9.6 g/m*3 10.5 C 1.34167 km/h
1938 12-10-2014 11:00:00 11.45 C 10.19 g/m*3 11.45 C 2.80833 km/h
1939 12-10-2014 12:00:00 13.02727 C 10.95 g/m*3 13.03 C 6.12727 km/h
1940 12-10-2014 13:00:00 14.65 C 11.17 g/m*3 14.65 C 4.675 km/h
1941 12-10-2014 14:00:00 15.85 C 11.54 g/m*3 15.85 C 3.2 km/h
1942 12-10-2014 15:00:00 17.04167 C 11.82 g/m*3 17.04 C 5.625 km/h
1943 12-10-2014 16:00:00 16.65 C 12.36 g/m*3 16.65 C 1.6 km/h
1944 12-10-2014 17:00:00 15.75 C 11.89 g/m*3 15.75 C 2.15 km/h
1945 12-10-2014 18:00:00 14.4 C 11.65 g/m*3 14.4 C 0 km/h
1946 12-10-2014 19:00:00 13.7 C 11.44 g/m*3 13.7 C 0.13333 km/h
1947 12-10-2014 20:00:00 13.625 C 11.51 g/m*3 13.63 C 0.93333 km/h
1948 12-10-2014 21:00:00 13.89167 C 11.74 g/m*3 13.89 C 3.475 km/h
1949 12-10-2014 22:00:00 14.13333 C 11.89 g/m*3 14.13 C 1.33333 km/h
1950 12-10-2014 23:00:00 14.00833 C 11.83 g/m*3 14.01 C 0 km/h
Sensor: Nr:Datum:Temp:Abs-Feuchte:Windchill:Wind:
Aussen-T/F 1951 13-10-2014 00:00:00 13.99167 C 11.81 g/m*3 13.99 C 0 km/h
1952 13-10-2014 01:00:00 14.03333 C 11.85 g/m*3 14.03 C 0.13333 km/h
1953 13-10-2014 02:00:00 13.70833 C 11.61 g/m*3 13.71 C 0 km/h
1954 13-10-2014 03:00:00 13.71667 C 11.66 g/m*3 13.72 C 0 km/h
1955 13-10-2014 04:00:00 13.58333 C 11.62 g/m*3 13.58 C 0 km/h
1956 13-10-2014 05:00:00 13.775 C 11.78 g/m*3 13.78 C 0 km/h
1957 13-10-2014 06:00:00 13.91667 C 11.88 g/m*3 13.92 C 0.13333 km/h
1958 13-10-2014 07:00:00 13.8 C 11.8 g/m*3 13.8 C 0 km/h
1959 13-10-2014 08:00:00 13.88333 C 11.86 g/m*3 13.88 C 1.46667 km/h
1960 13-10-2014 09:00:00 14.78333 C 12.53 g/m*3 14.78 C 0.53333 km/h
1961 13-10-2014 10:00:00 15.54167 C 13.12 g/m*3 15.54 C 0 km/h
1962 13-10-2014 11:00:00 16.075 C 13.55 g/m*3 16.08 C 0.13333 km/h
1963 13-10-2014 12:00:00 16.675 C 14.05 g/m*3 16.68 C 0.66667 km/h
1964 13-10-2014 13:00:00 16.55 C 13.85 g/m*3 16.55 C 0.66667 km/h
1965 13-10-2014 14:00:00 16.925 C 13.95 g/m*3 16.93 C 0.93333 km/h
1966 13-10-2014 15:00:00 18.06667 C 13.56 g/m*3 18.07 C 3.21667 km/h
1967 13-10-2014 16:00:00 17.81667 C 13.04 g/m*3 17.82 C 4.16667 km/h
1968 13-10-2014 17:00:00 16.63333 C 12.98 g/m*3 16.63 C 0.93333 km/h
1969 13-10-2014 18:00:00 14.94167 C 12.12 g/m*3 14.94 C 0.13333 km/h
1970 13-10-2014 19:00:00 13.9 C 11.51 g/m*3 13.9 C 0.13333 km/h
1971 13-10-2014 20:00:00 13.325 C 11.11 g/m*3 13.33 C 0.26667 km/h
1972 13-10-2014 21:00:00 13.05 C 11.03 g/m*3 13.05 C 0.66667 km/h
1973 13-10-2014 22:00:00 12.55833 C 10.7 g/m*3 12.56 C 0 km/h
1974 13-10-2014 23:00:00 12.03333 C 10.42 g/m*3 12.03 C 0 km/h
1975 14-10-2014 00:00:00 11.69167 C 10.24 g/m*3 11.69 C 0 km/h
Sensor: Nr:Datum:Temp:Abs-Feuchte:Windchill:Wind:
Aussen-T/F 1976 14-10-2014 01:00:00 11.425 C 10.07 g/m*3 11.43 C 0 km/h
1977 14-10-2014 02:00:00 10.825 C 9.7 g/m*3 10.83 C 0 km/h
1978 14-10-2014 03:00:00 10.45 C 9.47 g/m*3 10.45 C 0 km/h
1979 14-10-2014 04:00:00 10.075 C 9.25 g/m*3 10.07 C 0 km/h
1980 14-10-2014 05:00:00 10.075 C 9.28 g/m*3 10.07 C 0.13333 km/h
1981 14-10-2014 06:00:00 10.275 C 9.46 g/m*3 10.28 C 0 km/h
1982 14-10-2014 07:00:00 10.29167 C 9.48 g/m*3 10.29 C 0 km/h
1983 14-10-2014 08:00:00 10.13333 C 9.37 g/m*3 10.13 C 0.93333 km/h
1984 14-10-2014 09:00:00 10.60833 C 9.67 g/m*3 10.61 C 0 km/h
1985 14-10-2014 10:00:00 11.6 C 10.29 g/m*3 11.6 C 0.4 km/h
1986 14-10-2014 11:00:00 12.775 C 11.07 g/m*3 12.78 C 0.26667 km/h
1987 14-10-2014 12:00:00 14.19167 C 11.88 g/m*3 14.19 C 0.66667 km/h
1988 14-10-2014 13:00:00 15.51667 C 12.37 g/m*3 15.52 C 1.34167 km/h
1989 14-10-2014 14:00:00 16.8 C 12.1 g/m*3 16.8 C 3.61667 km/h
1990 14-10-2014 15:00:00 17.25833 C 12.05 g/m*3 17.26 C 4.43333 km/h
1991 14-10-2014 16:00:00 17.23333 C 11.92 g/m*3 17.23 C 3.88333 km/h
1992 14-10-2014 17:00:00 15.65833 C 11.76 g/m*3 15.66 C 0.53333 km/h
1993 14-10-2014 18:00:00 14.10833 C 11.31 g/m*3 14.11 C 0.4 km/h
1994 14-10-2014 19:00:00 13.13333 C 10.82 g/m*3 13.13 C 0 km/h
1995 14-10-2014 20:00:00 12.37273 C 10.47 g/m*3 12.37 C 0 km/h
1996 14-10-2014 21:00:00 11.78333 C 10.18 g/m*3 11.78 C 0 km/h
1997 14-10-2014 22:00:00 11.44167 C 9.98 g/m*3 11.44 C 0 km/h
1998 14-10-2014 23:00:00 11.34167 C 10.01 g/m*3 11.34 C 0 km/h
1999 15-10-2014 00:00:00 11.45833 C 10.1 g/m*3 11.46 C 0.4 km/h
2000 15-10-2014 01:00:00 11.33333 C 10.02 g/m*3 11.33 C 1.46667 km/h
Sensor: Nr:Datum:Temp:Abs-Feuchte:Windchill:Wind:
Aussen-T/F 2001 15-10-2014 02:00:00 11.2 C 9.93 g/m*3 11.2 C 2.53333 km/h
2002 15-10-2014 03:00:00 11.025 C 9.82 g/m*3 11.03 C 0.66667 km/h
2003 15-10-2014 04:00:00 10.73333 C 9.62 g/m*3 10.73 C 0.4 km/h
2004 15-10-2014 05:00:00 10.09167 C 9.19 g/m*3 10.09 C 0.4 km/h
2005 15-10-2014 06:00:00 9.36667 C 8.77 g/m*3 9.37 C 1.86667 km/h
2006 15-10-2014 07:00:00 9.225 C 8.77 g/m*3 8.81 C 5.21667 km/h
2007 15-10-2014 08:00:00 9.28333 C 8.8 g/m*3 8.92 C 5.08333 km/h
2008 15-10-2014 09:00:00 9.40833 C 8.87 g/m*3 9.41 C 3.06667 km/h
2009 15-10-2014 10:00:00 9.5 C 8.92 g/m*3 9.5 C 0.93333 km/h
2010 15-10-2014 11:00:00 10.51667 C 9.56 g/m*3 10.52 C 0.26667 km/h
2011 15-10-2014 12:00:00 12.375 C 10.46 g/m*3 12.38 C 2.14167 km/h
2012 15-10-2014 13:00:00 14.18333 C 10.87 g/m*3 14.18 C 0.66667 km/h
2013 15-10-2014 14:00:00 15.30833 C 10.79 g/m*3 15.31 C 3.75833 km/h
2014 15-10-2014 15:00:00 14.58333 C 11.16 g/m*3 14.58 C 0 km/h
2015 15-10-2014 16:00:00 14.52 C 11.32 g/m*3 14.52 C 0.16 km/h
2016 15-10-2014 17:00:00 14.3 C 11.4 g/m*3 14.3 C 0 km/h
2017 15-10-2014 19:00:00 12.88333 C 10.58 g/m*3 12.88 C 0 km/h
2018 15-10-2014 20:00:00 12.50833 C 10.41 g/m*3 12.51 C 0 km/h
2019 15-10-2014 21:00:00 12.31667 C 10.33 g/m*3 12.32 C 0 km/h
2020 15-10-2014 22:00:00 12.1 C 10.29 g/m*3 12.1 C 0 km/h
2021 15-10-2014 23:00:00 12.11667 C 10.39 g/m*3 12.12 C 0 km/h
2022 16-10-2014 00:00:00 12.425 C 10.65 g/m*3 12.43 C 0.4 km/h
2023 16-10-2014 01:00:00 12.65833 C 10.88 g/m*3 12.66 C 0 km/h
2024 16-10-2014 02:00:00 12.575 C 10.82 g/m*3 12.58 C 0.13333 km/h
2025 16-10-2014 03:00:00 12.475 C 10.76 g/m*3 12.48 C 0 km/h
Sensor: Nr:Datum:Temp:Abs-Feuchte:Windchill:Wind:
Aussen-T/F 2026 16-10-2014 04:00:00 12.4 C 10.71 g/m*3 12.4 C 0.13333 km/h
2027 16-10-2014 05:00:00 12.625 C 10.86 g/m*3 12.63 C 0 km/h
2028 16-10-2014 06:00:00 12.69167 C 10.97 g/m*3 12.69 C 0 km/h
2029 16-10-2014 07:00:00 12.81667 C 11.1 g/m*3 12.82 C 0 km/h
2030 16-10-2014 10:00:00 14.46667 C 12.08 g/m*3 14.47 C 4.26667 km/h
2031 16-10-2014 11:00:00 16.00909 C 12.37 g/m*3 16.01 C 7.90909 km/h
2032 16-10-2014 12:00:00 16.45 C 12.46 g/m*3 16.45 C 3.8 km/h
2033 16-10-2014 13:00:00 15.58182 C 12.51 g/m*3 15.58 C 3.5 km/h
2034 16-10-2014 14:00:00 16.55 C 12.98 g/m*3 16.55 C 3.46667 km/h
2035 16-10-2014 15:00:00 16.4 C 12.7 g/m*3 16.4 C 5.65 km/h
2036 16-10-2014 16:00:00 17 C 12.43 g/m*3 17 C 4.1 km/h
2037 16-10-2014 17:00:00 16.66 C 12.38 g/m*3 16.66 C 2.56 km/h
2038 16-10-2014 18:00:00 15.5125 C 11.99 g/m*3 15.51 C 1.6 km/h
2039 16-10-2014 19:00:00 14.625 C 11.94 g/m*3 14.63 C 0.2 km/h
2040 16-10-2014 20:00:00 14.55833 C 11.76 g/m*3 14.56 C 0.13333 km/h
2041 16-10-2014 21:00:00 14.33333 C 11.53 g/m*3 14.33 C 0 km/h
2042 16-10-2014 22:00:00 13.35833 C 11.13 g/m*3 13.36 C 0 km/h
2043 16-10-2014 23:00:00 12.96667 C 10.98 g/m*3 12.97 C 0 km/h
2044 17-10-2014 00:00:00 12.79167 C 10.92 g/m*3 12.79 C 0 km/h
2045 17-10-2014 01:00:00 12.83333 C 11 g/m*3 12.83 C 0 km/h
2046 17-10-2014 02:00:00 12.825 C 10.99 g/m*3 12.83 C 0 km/h
2047 17-10-2014 03:00:00 12.81667 C 10.99 g/m*3 12.82 C 0 km/h
2048 17-10-2014 04:00:00 12.83333 C 11 g/m*3 12.83 C 0 km/h
2049 17-10-2014 05:00:00 12.9 C 11.05 g/m*3 12.9 C 0 km/h
2050 17-10-2014 06:00:00 13.075 C 11.21 g/m*3 13.08 C 0 km/h
Sensor: Nr:Datum:Temp:Abs-Feuchte:Windchill:Wind:
Aussen-T/F 2051 17-10-2014 07:00:00 12.925 C 11.06 g/m*3 12.93 C 0 km/h
2052 17-10-2014 08:00:00 12.86667 C 11.06 g/m*3 12.87 C 0 km/h
2053 17-10-2014 09:00:00 13.70833 C 11.32 g/m*3 13.71 C 4.55833 km/h
2054 17-10-2014 11:00:00 15.1 C 11.83 g/m*3 15.1 C 6.43333 km/h
2055 17-10-2014 12:00:00 15.85833 C 12.1 g/m*3 15.86 C 6.575 km/h
2056 17-10-2014 13:00:00 16.85833 C 12.42 g/m*3 16.86 C 11.025 km/h
2057 17-10-2014 14:00:00 17.13333 C 12.45 g/m*3 17.13 C 10.08333 km/h
2058 17-10-2014 15:00:00 17.075 C 12.25 g/m*3 17.08 C 7.5 km/h
2059 17-10-2014 16:00:00 17.1 C 12.48 g/m*3 17.1 C 4.55833 km/h
2060 17-10-2014 17:00:00 16.49167 C 12.16 g/m*3 16.49 C 2.53333 km/h
2061 17-10-2014 18:00:00 15.46667 C 11.85 g/m*3 15.47 C 0.66667 km/h
2062 17-10-2014 19:00:00 14.44167 C 11.53 g/m*3 14.44 C 0 km/h
2063 17-10-2014 20:00:00 13.16667 C 10.96 g/m*3 13.17 C 0 km/h
2064 17-10-2014 21:00:00 12.33333 C 10.55 g/m*3 12.33 C 0 km/h
2065 17-10-2014 22:00:00 11.7 C 10.15 g/m*3 11.7 C 0 km/h
2066 17-10-2014 23:00:00 11.25833 C 9.94 g/m*3 11.26 C 0 km/h
2067 18-10-2014 00:00:00 11.1 C 9.87 g/m*3 11.1 C 0 km/h
2068 18-10-2014 01:00:00 10.55 C 9.53 g/m*3 10.55 C 0 km/h
2069 18-10-2014 02:00:00 10.15 C 9.3 g/m*3 10.15 C 0 km/h
2070 18-10-2014 03:00:00 9.775 C 9.08 g/m*3 9.78 C 0 km/h
2071 18-10-2014 04:00:00 9.83333 C 9.11 g/m*3 9.83 C 0 km/h
2072 18-10-2014 05:00:00 9.875 C 9.14 g/m*3 9.88 C 0 km/h
2073 18-10-2014 06:00:00 9.55 C 8.96 g/m*3 9.55 C 0 km/h
2074 18-10-2014 07:00:00 9.925 C 9.23 g/m*3 9.93 C 0 km/h
2075 18-10-2014 08:00:00 10.31667 C 9.49 g/m*3 10.32 C 0 km/h
Sensor: Nr:Datum:Temp:Abs-Feuchte:Windchill:Wind:
Aussen-T/F 2076 18-10-2014 09:00:00 10.44167 C 9.57 g/m*3 10.44 C 0 km/h
2077 18-10-2014 10:00:00 10.6 C 9.66 g/m*3 10.6 C 0 km/h
2078 18-10-2014 11:00:00 11.25714 C 10.07 g/m*3 11.26 C 0 km/h
2079 18-10-2014 13:00:00 15.16667 C 12.82 g/m*3 15.17 C 0 km/h
2080 18-10-2014 14:00:00 15.875 C 13.33 g/m*3 15.88 C 0 km/h
2081 18-10-2014 15:00:00 16.45833 C 13.67 g/m*3 16.46 C 0 km/h
2082 18-10-2014 16:00:00 16.75 C 13.72 g/m*3 16.75 C 0 km/h
2083 18-10-2014 17:00:00 16.36667 C 13.37 g/m*3 16.37 C 0 km/h
2084 18-10-2014 18:00:00 15.69167 C 12.79 g/m*3 15.69 C 1.06667 km/h
2085 18-10-2014 19:00:00 15.05 C 12.23 g/m*3 15.05 C 1.73333 km/h
2086 18-10-2014 20:00:00 14.21667 C 11.81 g/m*3 14.22 C 0.53333 km/h
2087 18-10-2014 21:00:00 13.55833 C 11.43 g/m*3 13.56 C 0 km/h
2088 18-10-2014 22:00:00 13.20833 C 11.26 g/m*3 13.21 C 0 km/h
2089 18-10-2014 23:00:00 12.575 C 10.82 g/m*3 12.58 C 0 km/h
2090 19-10-2014 00:00:00 12.15833 C 10.55 g/m*3 12.16 C 0 km/h
2091 19-10-2014 01:00:00 11.71667 C 10.26 g/m*3 11.72 C 0 km/h
2092 19-10-2014 02:00:00 11.41667 C 10.1 g/m*3 11.42 C 0.26667 km/h
2093 19-10-2014 03:00:00 11.19167 C 9.95 g/m*3 11.19 C 0 km/h
2094 19-10-2014 04:00:00 10.91667 C 9.81 g/m*3 10.92 C 0 km/h
2095 19-10-2014 05:00:00 10.74167 C 9.75 g/m*3 10.74 C 0 km/h
2096 19-10-2014 06:00:00 10.43333 C 9.56 g/m*3 10.43 C 0 km/h
2097 19-10-2014 07:00:00 10.31667 C 9.49 g/m*3 10.32 C 0.13333 km/h
2098 19-10-2014 08:00:00 10.675 C 9.71 g/m*3 10.68 C 0 km/h
2099 19-10-2014 09:00:00 11.05833 C 9.95 g/m*3 11.06 C 0 km/h
2100 19-10-2014 10:00:00 11.55833 C 10.26 g/m*3 11.56 C 0 km/h
Sensor: Nr:Datum:Temp:Abs-Feuchte:Windchill:Wind:
Aussen-T/F 2101 19-10-2014 11:00:00 13.34167 C 11.47 g/m*3 13.34 C 0.93333 km/h
2102 19-10-2014 12:00:00 15.36667 C 12.99 g/m*3 15.37 C 6.7 km/h
2103 19-10-2014 13:00:00 18.25 C 14.19 g/m*3 18.25 C 5.75833 km/h
2104 19-10-2014 14:00:00 19.70833 C 14.38 g/m*3 19.71 C 10.89167 km/h
2105 19-10-2014 15:00:00 20.43333 C 14.59 g/m*3 20.43 C 10.2 km/h
2106 19-10-2014 16:00:00 19.74167 C 14.57 g/m*3 19.74 C 5.09167 km/h
2107 19-10-2014 17:00:00 19.98333 C 14.53 g/m*3 19.98 C 6.03333 km/h
2108 19-10-2014 18:00:00 19.5 C 14.25 g/m*3 19.5 C 5.76667 km/h
2109 19-10-2014 19:00:00 18.36667 C 13.92 g/m*3 18.37 C 4.28333 km/h
2110 19-10-2014 20:00:00 18.30833 C 13.75 g/m*3 18.31 C 5.90833 km/h
2111 19-10-2014 21:00:00 19.21667 C 13.7 g/m*3 19.22 C 12.89167 km/h
2112 19-10-2014 22:00:00 18.925 C 13.74 g/m*3 18.93 C 13.15833 km/h
2113 19-10-2014 23:00:00 19.00833 C 13.89 g/m*3 19.01 C 11.81667 km/h
2114 20-10-2014 00:00:00 17.85833 C 13.81 g/m*3 17.86 C 2.41667 km/h
2115 20-10-2014 01:00:00 18.16667 C 11.88 g/m*3 18.17 C 11.40833 km/h
2116 20-10-2014 02:00:00 16.8 C 11.54 g/m*3 16.8 C 4.41667 km/h
2117 20-10-2014 03:00:00 16.4 C 11.29 g/m*3 16.4 C 4.13333 km/h
2118 20-10-2014 04:00:00 15.29167 C 11.19 g/m*3 15.29 C 2.26667 km/h
2119 20-10-2014 05:00:00 14.85 C 11.12 g/m*3 14.85 C 1.2 km/h
2120 20-10-2014 06:00:00 14.19167 C 11.05 g/m*3 14.19 C 1.2 km/h
2121 20-10-2014 07:00:00 14.2 C 11.22 g/m*3 14.2 C 0.13333 km/h
2122 20-10-2014 08:00:00 13.75833 C 11.13 g/m*3 13.76 C 0.53333 km/h
2123 20-10-2014 09:00:00 14.03333 C 11.36 g/m*3 14.03 C 0 km/h
2124 20-10-2014 10:00:00 14.6 C 11.54 g/m*3 14.6 C 1.24444 km/h
2125 20-10-2014 11:00:00 16.35833 C 11.07 g/m*3 16.36 C 9.53333 km/h
Sensor: Nr:Datum:Temp:Abs-Feuchte:Windchill:Wind:
Aussen-T/F 2126 20-10-2014 12:00:00 16.88333 C 10.11 g/m*3 16.88 C 10.88333 km/h
2127 20-10-2014 13:00:00 17.7 C 10.11 g/m*3 17.7 C 9.275 km/h
2128 20-10-2014 14:00:00 17.40833 C 10.06 g/m*3 17.41 C 7.11667 km/h
2129 20-10-2014 15:00:00 17.325 C 10.2 g/m*3 17.33 C 5.09167 km/h
2130 20-10-2014 16:00:00 17.03333 C 10.25 g/m*3 17.03 C 1.6 km/h
2131 20-10-2014 18:00:00 13.88889 C 10.38 g/m*3 13.89 C 1.95556 km/h
2132 20-10-2014 19:00:00 13.18333 C 9.92 g/m*3 13.18 C 2.13333 km/h
2133 20-10-2014 20:00:00 12.2 C 9.69 g/m*3 12.2 C 0.93333 km/h
2134 20-10-2014 21:00:00 11.59167 C 9.53 g/m*3 11.59 C 1.2 km/h
2135 20-10-2014 22:00:00 11.61667 C 9.52 g/m*3 11.62 C 2.00833 km/h
2136 20-10-2014 23:00:00 12.11667 C 9.58 g/m*3 12.12 C 2.66667 km/h
2137 21-10-2014 00:00:00 12.375 C 9.5 g/m*3 12.38 C 3.2 km/h
2138 21-10-2014 01:00:00 10.89167 C 9.16 g/m*3 10.89 C 1.74167 km/h
2139 21-10-2014 02:00:00 11.04167 C 9.2 g/m*3 11.04 C 2.13333 km/h
2140 21-10-2014 03:00:00 10.775 C 9.1 g/m*3 10.78 C 3.6 km/h
2141 21-10-2014 04:00:00 10.475 C 9.05 g/m*3 9.5 C 8.33333 km/h
2142 21-10-2014 05:00:00 11.01667 C 9.14 g/m*3 11.02 C 4.80833 km/h
2143 21-10-2014 06:00:00 11.5 C 9.3 g/m*3 11.5 C 6.3 km/h
2144 21-10-2014 07:00:00 11.71667 C 9.35 g/m*3 11.72 C 1.6 km/h
2145 21-10-2014 08:00:00 11.71667 C 9.54 g/m*3 11.72 C 0.66667 km/h
2146 21-10-2014 09:00:00 12.35833 C 9.73 g/m*3 12.36 C 1.6 km/h
2147 21-10-2014 10:00:00 13.2 C 9.67 g/m*3 13.2 C 10.08333 km/h
2148 21-10-2014 11:00:00 13.32222 C 9.71 g/m*3 13.32 C 5.71111 km/h
2149 21-10-2014 12:00:00 14.00833 C 9.53 g/m*3 14.01 C 13.81667 km/h
2150 21-10-2014 13:00:00 14.175 C 9.17 g/m*3 14.18 C 17.05 km/h
Sensor: Nr:Datum:Temp:Abs-Feuchte:Windchill:Wind:
Aussen-T/F 2151 21-10-2014 14:00:00 13.79167 C 9.65 g/m*3 13.79 C 19.71667 km/h
2152 21-10-2014 15:00:00 13.54167 C 10.28 g/m*3 13.54 C 12.21667 km/h
2153 21-10-2014 16:00:00 13.70833 C 10.64 g/m*3 13.71 C 7.8 km/h
2154 21-10-2014 17:00:00 13.11667 C 9.87 g/m*3 13.12 C 17.84167 km/h
2155 21-10-2014 18:00:00 11.76667 C 8.38 g/m*3 11.77 C 12.61667 km/h
2156 21-10-2014 19:00:00 11.11667 C 7.79 g/m*3 11.12 C 16.23333 km/h
2157 21-10-2014 20:00:00 10.00833 C 7.1 g/m*3 7.87 C 15.43333 km/h
2158 21-10-2014 21:00:00 9.41667 C 7.09 g/m*3 7.52 C 12.625 km/h
2159 21-10-2014 22:00:00 9.2 C 6.99 g/m*3 7.43 C 11.43333 km/h
2160 21-10-2014 23:00:00 8.98333 C 7.01 g/m*3 6.8 C 13.96667 km/h
2161 22-10-2014 00:00:00 8.68333 C 7.12 g/m*3 6.84 C 11.28333 km/h
2162 22-10-2014 01:00:00 8.61667 C 6.97 g/m*3 6.46 C 13.16667 km/h
2163 22-10-2014 02:00:00 8.66667 C 7.14 g/m*3 6.15 C 15.96667 km/h
2164 22-10-2014 03:00:00 7.60833 C 7.19 g/m*3 5.79 C 9.94167 km/h
2165 22-10-2014 04:00:00 6.84167 C 6.93 g/m*3 4.66 C 11.025 km/h
2166 22-10-2014 05:00:00 7.01667 C 6.75 g/m*3 4.73 C 11.81667 km/h
2167 22-10-2014 06:00:00 7.21667 C 6.73 g/m*3 4.93 C 12.1 km/h
2168 22-10-2014 07:00:00 7.725 C 6.84 g/m*3 5.35 C 13.3 km/h
2169 22-10-2014 08:00:00 8.2 C 6.95 g/m*3 5.84 C 13.96667 km/h
2170 22-10-2014 09:00:00 7.875 C 7.07 g/m*3 4.94 C 17.83333 km/h
2171 22-10-2014 10:00:00 7.20833 C 7.1 g/m*3 5.23 C 10.35 km/h
2172 22-10-2014 11:00:00 7.725 C 7.46 g/m*3 6.26 C 8.33333 km/h
2173 22-10-2014 12:00:00 8.95833 C 7.59 g/m*3 6.92 C 12.89167 km/h
2174 22-10-2014 13:00:00 9.96667 C 7.67 g/m*3 7.8 C 15.56667 km/h
2175 22-10-2014 14:00:00 10.7 C 7.73 g/m*3 8.51 C 17.43333 km/h
Sensor: Nr:Datum:Temp:Abs-Feuchte:Windchill:Wind:
Aussen-T/F 2176 22-10-2014 15:00:00 10.83333 C 7.82 g/m*3 8.57 C 18.50833 km/h
2177 22-10-2014 16:00:00 11.25833 C 7.69 g/m*3 11.26 C 19.575 km/h
2178 22-10-2014 17:00:00 11.03333 C 7.81 g/m*3 11.03 C 15.96667 km/h
2179 22-10-2014 18:00:00 10.425 C 7.93 g/m*3 8.84 C 11.95 km/h
2180 22-10-2014 19:00:00 9.38333 C 8.3 g/m*3 9.38 C 3.48333 km/h
2181 22-10-2014 20:00:00 9.31667 C 8.15 g/m*3 8.44 C 6.95833 km/h
2182 22-10-2014 21:00:00 9.39167 C 8.07 g/m*3 8.69 C 6.31667 km/h
2183 22-10-2014 22:00:00 9.46667 C 8.06 g/m*3 8.67 C 6.71667 km/h
2184 22-10-2014 23:00:00 9.10833 C 8.03 g/m*3 9.11 C 2.4 km/h
2185 23-10-2014 00:00:00 8.79167 C 7.97 g/m*3 8.79 C 1.33333 km/h
2186 23-10-2014 01:00:00 9.16667 C 8.12 g/m*3 9.17 C 2.00833 km/h
2187 23-10-2014 02:00:00 9.05 C 8.11 g/m*3 9.05 C 0.93333 km/h
2188 23-10-2014 03:00:00 8.95 C 8.06 g/m*3 8.95 C 0.26667 km/h
2189 23-10-2014 04:00:00 9 C 7.88 g/m*3 9 C 0.93333 km/h
2190 23-10-2014 05:00:00 8.05833 C 7.6 g/m*3 8.06 C 0.93333 km/h
2191 23-10-2014 06:00:00 8.44167 C 7.83 g/m*3 8.44 C 0.26667 km/h
2192 23-10-2014 07:00:00 8.58333 C 7.95 g/m*3 8.58 C 0.66667 km/h
2193 23-10-2014 08:00:00 8.65833 C 8.05 g/m*3 8.66 C 0.4 km/h
2194 23-10-2014 09:00:00 9.05 C 8.1 g/m*3 9.05 C 2.26667 km/h
2195 23-10-2014 10:00:00 9.425 C 8.29 g/m*3 9.43 C 4.54167 km/h
2196 23-10-2014 11:00:00 10.24167 C 8.51 g/m*3 9.3 C 7.93333 km/h
2197 23-10-2014 12:00:00 11.15833 C 8.6 g/m*3 11.16 C 11.025 km/h
2198 23-10-2014 13:00:00 12.1 C 8.7 g/m*3 12.1 C 8.625 km/h
2199 23-10-2014 14:00:00 12.55833 C 8.71 g/m*3 12.56 C 7.79167 km/h
2200 23-10-2014 15:00:00 12.84167 C 8.9 g/m*3 12.84 C 4.94167 km/h
Sensor: Nr:Datum:Temp:Abs-Feuchte:Windchill:Wind:
Aussen-T/F 2201 23-10-2014 16:00:00 12.65833 C 8.84 g/m*3 12.66 C 5.09167 km/h
2202 23-10-2014 17:00:00 12.125 C 8.91 g/m*3 12.13 C 2.8 km/h
2203 23-10-2014 18:00:00 11.7 C 8.96 g/m*3 11.7 C 2.275 km/h
2204 23-10-2014 19:00:00 11.43333 C 8.97 g/m*3 11.43 C 0.66667 km/h
2205 23-10-2014 20:00:00 11.36667 C 9.02 g/m*3 11.37 C 0.4 km/h
2206 23-10-2014 21:00:00 11.35833 C 9.01 g/m*3 11.36 C 1.73333 km/h
2207 23-10-2014 22:00:00 11.33333 C 8.99 g/m*3 11.33 C 3.48333 km/h
2208 23-10-2014 23:00:00 11.10833 C 9.04 g/m*3 11.11 C 0.13333 km/h
2209 24-10-2014 00:00:00 10.725 C 9.08 g/m*3 10.73 C 0 km/h
2210 24-10-2014 01:00:00 10.675 C 9 g/m*3 10.68 C 0.13333 km/h
2211 24-10-2014 02:00:00 10.53333 C 8.98 g/m*3 10.53 C 0 km/h
2212 24-10-2014 03:00:00 10.34167 C 8.97 g/m*3 10.34 C 0 km/h
2213 24-10-2014 04:00:00 9.98333 C 8.82 g/m*3 9.98 C 0 km/h
2214 24-10-2014 05:00:00 9.54167 C 8.65 g/m*3 9.54 C 0.13333 km/h
2215 24-10-2014 06:00:00 8.83333 C 8.26 g/m*3 8.83 C 0 km/h
2216 24-10-2014 07:00:00 7.95 C 7.87 g/m*3 7.95 C 0 km/h
2217 24-10-2014 08:00:00 7.575 C 7.72 g/m*3 7.58 C 0 km/h
2218 24-10-2014 09:00:00 7.45 C 7.66 g/m*3 7.45 C 0 km/h
2219 24-10-2014 10:00:00 7.95833 C 7.99 g/m*3 7.96 C 0 km/h
2220 24-10-2014 11:00:00 9.00833 C 8.56 g/m*3 9.01 C 0.13333 km/h
2221 24-10-2014 12:00:00 10.71667 C 9.28 g/m*3 10.72 C 0.66667 km/h
2222 24-10-2014 13:00:00 13.15 C 9.4 g/m*3 13.15 C 4.15 km/h
2223 24-10-2014 14:00:00 14.11667 C 9.24 g/m*3 14.12 C 4.00833 km/h
2224 24-10-2014 15:00:00 14.34167 C 8.95 g/m*3 14.34 C 3.46667 km/h
2225 24-10-2014 16:00:00 13.88333 C 9.14 g/m*3 13.88 C 2 km/h
Sensor: Nr:Datum:Temp:Abs-Feuchte:Windchill:Wind:
Aussen-T/F 2226 24-10-2014 17:00:00 12.90833 C 9.19 g/m*3 12.91 C 1.73333 km/h
2227 24-10-2014 18:00:00 11.36667 C 8.89 g/m*3 11.37 C 1.06667 km/h
2228 24-10-2014 19:00:00 11.01667 C 8.97 g/m*3 11.02 C 0.66667 km/h
2229 24-10-2014 20:00:00 10.975 C 9.04 g/m*3 10.98 C 0.53333 km/h
2230 24-10-2014 21:00:00 10.59167 C 9.1 g/m*3 10.59 C 0.26667 km/h
2231 24-10-2014 22:00:00 10.30833 C 9.03 g/m*3 10.31 C 0 km/h
2232 24-10-2014 23:00:00 10.23333 C 9.06 g/m*3 10.23 C 0 km/h
2233 25-10-2014 00:00:00 10.28333 C 9.1 g/m*3 10.28 C 0 km/h
2234 25-10-2014 01:00:00 10.08333 C 9.07 g/m*3 10.08 C 0 km/h
2235 25-10-2014 02:00:00 9.875 C 9 g/m*3 9.88 C 0 km/h
2236 25-10-2014 03:00:00 10.05 C 9.14 g/m*3 10.05 C 0 km/h
2237 25-10-2014 04:00:00 10.1 C 9.17 g/m*3 10.1 C 0 km/h
2238 25-10-2014 05:00:00 9.96667 C 9.1 g/m*3 9.97 C 0 km/h
2239 25-10-2014 06:00:00 9.85833 C 8.98 g/m*3 9.86 C 0.4 km/h
2240 25-10-2014 07:00:00 9.91667 C 8.99 g/m*3 9.92 C 0 km/h
2241 25-10-2014 08:00:00 9.96667 C 9.1 g/m*3 9.97 C 0.26667 km/h
2242 25-10-2014 09:00:00 10.325 C 9.3 g/m*3 10.33 C 1.2 km/h
2243 25-10-2014 10:00:00 10.975 C 9.63 g/m*3 10.98 C 4.55833 km/h
2244 25-10-2014 11:00:00 11.825 C 9.93 g/m*3 11.83 C 8.60833 km/h
2245 25-10-2014 12:00:00 12.4 C 10.05 g/m*3 12.4 C 6.15 km/h
2246 25-10-2014 13:00:00 13.1 C 10.28 g/m*3 13.1 C 4.13333 km/h
2247 25-10-2014 14:00:00 13.39167 C 10.4 g/m*3 13.39 C 6.44167 km/h
2248 25-10-2014 15:00:00 13.325 C 10.39 g/m*3 13.33 C 6.99167 km/h
2249 25-10-2014 16:00:00 13.28333 C 10.44 g/m*3 13.28 C 2.94167 km/h
2250 25-10-2014 17:00:00 13.14167 C 10.43 g/m*3 13.14 C 1.075 km/h
Sensor: Nr:Datum:Temp:Abs-Feuchte:Windchill:Wind:
Aussen-T/F 2251 25-10-2014 18:00:00 12.825 C 10.41 g/m*3 12.83 C 0.93333 km/h
2252 25-10-2014 19:00:00 12.64167 C 10.39 g/m*3 12.64 C 0.66667 km/h
2253 25-10-2014 20:00:00 12.50833 C 10.4 g/m*3 12.51 C 0 km/h
2254 25-10-2014 21:00:00 12.35 C 10.44 g/m*3 12.35 C 0 km/h
2255 25-10-2014 22:00:00 12.26667 C 10.47 g/m*3 12.27 C 0 km/h
2256 25-10-2014 23:00:00 12.275 C 10.52 g/m*3 12.28 C 0.26667 km/h
2257 26-10-2014 00:00:00 12.21667 C 10.51 g/m*3 12.22 C 0 km/h
2258 26-10-2014 01:00:00 12.2 C 10.54 g/m*3 12.2 C 0 km/h
2259 26-10-2014 02:00:00 11.98333 C 10.4 g/m*3 11.98 C 0 km/h
2260 26-10-2014 04:00:00 10.87391 C 9.72 g/m*3 10.87 C 0 km/h
2261 26-10-2014 05:00:00 11.01538 C 9.82 g/m*3 11.02 C 0 km/h
2262 26-10-2014 06:00:00 10.8 C 9.69 g/m*3 10.8 C 0.13333 km/h
2263 26-10-2014 07:00:00 10.65833 C 9.6 g/m*3 10.66 C 0.8 km/h
2264 26-10-2014 08:00:00 11 C 9.81 g/m*3 11 C 1.33333 km/h
2265 26-10-2014 09:00:00 11.61667 C 10.03 g/m*3 11.62 C 3.2 km/h
2266 26-10-2014 10:00:00 12.18333 C 10.04 g/m*3 12.18 C 4.13333 km/h
2267 26-10-2014 11:00:00 12.50833 C 10.12 g/m*3 12.51 C 0.4 km/h
2268 26-10-2014 12:00:00 13.15 C 10.52 g/m*3 13.15 C 0.13333 km/h
2269 26-10-2014 13:00:00 12.875 C 10.24 g/m*3 12.88 C 0.4 km/h
2270 26-10-2014 14:00:00 13.3 C 10.52 g/m*3 13.3 C 0.26667 km/h
2271 26-10-2014 15:00:00 13.16667 C 10.42 g/m*3 13.17 C 0 km/h
2272 26-10-2014 16:00:00 12.65833 C 10.22 g/m*3 12.66 C 0.26667 km/h
2273 26-10-2014 17:00:00 11.74167 C 9.8 g/m*3 11.74 C 0.4 km/h
2274 26-10-2014 18:00:00 10.95833 C 9.49 g/m*3 10.96 C 0 km/h
2275 26-10-2014 19:00:00 10.25 C 9.16 g/m*3 10.25 C 0 km/h
Sensor: Nr:Datum:Temp:Abs-Feuchte:Windchill:Wind:
Aussen-T/F 2276 26-10-2014 20:00:00 9.6 C 8.85 g/m*3 9.6 C 0 km/h
2277 26-10-2014 21:00:00 9.10833 C 8.61 g/m*3 9.11 C 0 km/h
2278 26-10-2014 22:00:00 8.925 C 8.57 g/m*3 8.93 C 0.26667 km/h
2279 26-10-2014 23:00:00 8.875 C 8.56 g/m*3 8.88 C 0.13333 km/h
2280 27-10-2014 00:00:00 8.525 C 8.38 g/m*3 8.53 C 0 km/h
2281 27-10-2014 01:00:00 8.39167 C 8.31 g/m*3 8.39 C 0.13333 km/h
2282 27-10-2014 02:00:00 8.08333 C 8.15 g/m*3 8.08 C 0.13333 km/h
2283 27-10-2014 03:00:00 7.99167 C 8.1 g/m*3 7.99 C 0 km/h
2284 27-10-2014 04:00:00 7.85833 C 8.03 g/m*3 7.86 C 0.53333 km/h
2285 27-10-2014 05:00:00 8.01667 C 8.11 g/m*3 8.02 C 0.8 km/h
2286 27-10-2014 06:00:00 8.19167 C 8.27 g/m*3 8.19 C 0.13333 km/h
2287 27-10-2014 07:00:00 8.45 C 8.38 g/m*3 8.45 C 0 km/h
2288 27-10-2014 08:00:00 8.71667 C 8.57 g/m*3 8.72 C 1.2 km/h
2289 27-10-2014 09:00:00 8.8 C 8.62 g/m*3 8.8 C 4.53333 km/h
2290 27-10-2014 10:00:00 9.05 C 8.76 g/m*3 9.05 C 3.06667 km/h
2291 27-10-2014 11:00:00 9.8 C 9.19 g/m*3 9.8 C 0.66667 km/h
2292 27-10-2014 12:00:00 10.80833 C 9.79 g/m*3 10.81 C 0.66667 km/h
2293 27-10-2014 13:00:00 11.85 C 9.88 g/m*3 11.85 C 4.81667 km/h
2294 27-10-2014 14:00:00 12.59167 C 9.72 g/m*3 12.59 C 3.46667 km/h
2295 27-10-2014 15:00:00 12.21667 C 9.39 g/m*3 12.22 C 2 km/h
2296 27-10-2014 16:00:00 11.14167 C 8.96 g/m*3 11.14 C 3.475 km/h
2297 27-10-2014 17:00:00 9.86667 C 8.49 g/m*3 9.87 C 1.33333 km/h
2298 27-10-2014 18:00:00 8.4 C 8.06 g/m*3 8.4 C 0 km/h
2299 27-10-2014 19:00:00 8.08333 C 7.99 g/m*3 8.08 C 0 km/h
2300 27-10-2014 20:00:00 8.36667 C 8.21 g/m*3 8.37 C 0 km/h
Sensor: Nr:Datum:Temp:Abs-Feuchte:Windchill:Wind:
Aussen-T/F 2301 27-10-2014 21:00:00 8.69167 C 8.38 g/m*3 8.69 C 0 km/h
2302 27-10-2014 22:00:00 8.76667 C 8.37 g/m*3 8.77 C 0.66667 km/h
2303 27-10-2014 23:00:00 8.81667 C 8.36 g/m*3 8.82 C 0 km/h
2304 28-10-2014 00:00:00 8.8 C 8.31 g/m*3 8.8 C 0 km/h
2305 28-10-2014 01:00:00 8.775 C 8.23 g/m*3 8.78 C 1.73333 km/h
2306 28-10-2014 02:00:00 8.75 C 7.92 g/m*3 8.75 C 1.6 km/h
2307 28-10-2014 03:00:00 8.44167 C 7.62 g/m*3 8.44 C 2.26667 km/h
2308 28-10-2014 04:00:00 8.275 C 7.53 g/m*3 8.28 C 1.06667 km/h
2309 28-10-2014 05:00:00 8.11667 C 7.36 g/m*3 8.12 C 2.54167 km/h
2310 28-10-2014 06:00:00 7.93333 C 7.35 g/m*3 7.93 C 1.33333 km/h
2311 28-10-2014 07:00:00 7.81667 C 7.31 g/m*3 7.82 C 1.46667 km/h
2312 28-10-2014 08:00:00 7.95 C 7.22 g/m*3 7.95 C 1.6 km/h
2313 28-10-2014 09:00:00 8.26667 C 7.26 g/m*3 8.27 C 3.2 km/h
2314 28-10-2014 10:00:00 8.425 C 7.24 g/m*3 8.43 C 3.46667 km/h
2315 28-10-2014 11:00:00 8.425 C 7.14 g/m*3 8.43 C 4.28333 km/h
2316 28-10-2014 12:00:00 8.66667 C 7.17 g/m*3 7.58 C 7.39167 km/h
2317 28-10-2014 13:00:00 8.525 C 7.07 g/m*3 7.73 C 6.15833 km/h
2318 28-10-2014 14:00:00 8.45 C 7.07 g/m*3 7.64 C 6.15833 km/h
2319 28-10-2014 15:00:00 8.31667 C 7.12 g/m*3 8.32 C 3.33333 km/h
2320 28-10-2014 16:00:00 8.05 C 7.06 g/m*3 8.05 C 1.46667 km/h
2321 28-10-2014 17:00:00 7.63333 C 6.98 g/m*3 7.63 C 1.33333 km/h
2322 28-10-2014 18:00:00 6.11667 C 6.69 g/m*3 6.12 C 0 km/h
2323 28-10-2014 19:00:00 5.04167 C 6.42 g/m*3 5.04 C 0.53333 km/h
2324 28-10-2014 20:00:00 6.425 C 6.9 g/m*3 6.43 C 1.73333 km/h
2325 28-10-2014 21:00:00 7.4 C 7.16 g/m*3 7.4 C 1.86667 km/h
Sensor: Nr:Datum:Temp:Abs-Feuchte:Windchill:Wind:
Aussen-T/F 2326 28-10-2014 22:00:00 7.8 C 7.22 g/m*3 7.8 C 2.14167 km/h
2327 28-10-2014 23:00:00 8.08333 C 7.37 g/m*3 8.08 C 1.46667 km/h
2328 29-10-2014 00:00:00 8.6 C 7.56 g/m*3 8.6 C 1.33333 km/h
2329 29-10-2014 01:00:00 8.79167 C 7.66 g/m*3 8.79 C 1.46667 km/h
2330 29-10-2014 02:00:00 8.85833 C 7.73 g/m*3 8.86 C 0.13333 km/h
2331 29-10-2014 03:00:00 8.70833 C 7.84 g/m*3 8.71 C 0 km/h
2332 29-10-2014 04:00:00 9.1 C 7.97 g/m*3 9.1 C 1.33333 km/h
2333 29-10-2014 05:00:00 8.6 C 7.73 g/m*3 8.6 C 0.4 km/h
2334 29-10-2014 06:00:00 7.11667 C 7.29 g/m*3 7.12 C 0.13333 km/h
2335 29-10-2014 07:00:00 6.04167 C 6.93 g/m*3 6.04 C 0 km/h
2336 29-10-2014 08:00:00 5.81667 C 6.9 g/m*3 5.82 C 0 km/h
2337 29-10-2014 09:00:00 6.89167 C 7.45 g/m*3 6.89 C 0.8 km/h
2338 29-10-2014 10:00:00 8.325 C 7.85 g/m*3 8.32 C 3.08333 km/h
2339 29-10-2014 11:00:00 9.74167 C 8.31 g/m*3 9.74 C 2.81667 km/h
2340 29-10-2014 12:00:00 10.14167 C 8.64 g/m*3 10.14 C 0.26667 km/h
2341 29-10-2014 13:00:00 11.775 C 8.95 g/m*3 11.78 C 3.74167 km/h
2342 29-10-2014 14:00:00 12.80833 C 9.09 g/m*3 12.81 C 9.00833 km/h
2343 29-10-2014 15:00:00 12.075 C 8.99 g/m*3 12.08 C 6.70833 km/h
2344 29-10-2014 16:00:00 11.71667 C 8.95 g/m*3 11.72 C 6.025 km/h
2345 29-10-2014 17:00:00 11.14167 C 9.1 g/m*3 11.14 C 0.8 km/h
2346 29-10-2014 18:00:00 10.48333 C 9.22 g/m*3 10.48 C 0 km/h
2347 29-10-2014 19:00:00 10.31667 C 9.26 g/m*3 10.32 C 0 km/h
2348 29-10-2014 20:00:00 10.35 C 9.32 g/m*3 10.35 C 0 km/h
2349 29-10-2014 21:00:00 10.4 C 9.35 g/m*3 10.4 C 0 km/h
2350 29-10-2014 22:00:00 10.35 C 9.32 g/m*3 10.35 C 0 km/h
Sensor: Nr:Datum:Temp:Abs-Feuchte:Windchill:Wind:
Aussen-T/F 2351 29-10-2014 23:00:00 9.98333 C 9.16 g/m*3 9.98 C 0 km/h
2352 30-10-2014 00:00:00 10.35 C 9.42 g/m*3 10.35 C 0 km/h
2353 30-10-2014 01:00:00 10.4 C 9.44 g/m*3 10.4 C 0 km/h
2354 30-10-2014 02:00:00 10.55 C 9.53 g/m*3 10.55 C 0.13333 km/h
2355 30-10-2014 03:00:00 10.6 C 9.57 g/m*3 10.6 C 0.13333 km/h
2356 30-10-2014 04:00:00 10.6 C 9.57 g/m*3 10.6 C 0 km/h
2357 30-10-2014 05:00:00 10.7 C 9.63 g/m*3 10.7 C 0 km/h
2358 30-10-2014 06:00:00 10.74167 C 9.65 g/m*3 10.74 C 0 km/h
2359 30-10-2014 07:00:00 10.64167 C 9.6 g/m*3 10.64 C 0 km/h
2360 30-10-2014 08:00:00 11 C 9.88 g/m*3 11 C 0 km/h
2361 30-10-2014 09:00:00 11.40833 C 10.14 g/m*3 11.41 C 0 km/h
2362 30-10-2014 10:00:00 11.85833 C 10.4 g/m*3 11.86 C 0 km/h
2363 30-10-2014 11:00:00 12.74167 C 10.91 g/m*3 12.74 C 0.66667 km/h
2364 30-10-2014 12:00:00 13.74167 C 11.2 g/m*3 13.74 C 0.26667 km/h
2365 30-10-2014 13:00:00 14.575 C 11.44 g/m*3 14.58 C 0.26667 km/h
2366 30-10-2014 14:00:00 15.125 C 11.62 g/m*3 15.13 C 0.53333 km/h
2367 30-10-2014 15:00:00 14.90833 C 11.88 g/m*3 14.91 C 0 km/h
2368 30-10-2014 16:00:00 13.96667 C 11.46 g/m*3 13.97 C 0 km/h
2369 30-10-2014 17:00:00 12.80833 C 10.76 g/m*3 12.81 C 0 km/h
2370 30-10-2014 18:00:00 12.225 C 10.51 g/m*3 12.23 C 0 km/h
2371 30-10-2014 19:00:00 12.58333 C 10.83 g/m*3 12.58 C 0 km/h
2372 30-10-2014 20:00:00 12.73333 C 10.93 g/m*3 12.73 C 0 km/h
2373 30-10-2014 21:00:00 12.33333 C 10.66 g/m*3 12.33 C 0 km/h
2374 30-10-2014 22:00:00 12.11667 C 10.52 g/m*3 12.12 C 0 km/h
2375 30-10-2014 23:00:00 11.84167 C 10.34 g/m*3 11.84 C 0 km/h
Sensor: Nr:Datum:Temp:Abs-Feuchte:Windchill:Wind:
Aussen-T/F 2376 31-10-2014 00:00:00 11.68333 C 10.24 g/m*3 11.68 C 0 km/h
2377 31-10-2014 01:00:00 11.16667 C 9.91 g/m*3 11.17 C 0 km/h
2378 31-10-2014 02:00:00 10.55833 C 9.54 g/m*3 10.56 C 0 km/h
2379 31-10-2014 03:00:00 10.35 C 9.42 g/m*3 10.35 C 0.13333 km/h
2380 31-10-2014 04:00:00 10.64167 C 9.61 g/m*3 10.64 C 0 km/h
2381 31-10-2014 05:00:00 10.8 C 9.79 g/m*3 10.8 C 0.53333 km/h
2382 31-10-2014 06:00:00 10.63333 C 9.61 g/m*3 10.63 C 0.13333 km/h
2383 31-10-2014 07:00:00 10.25833 C 9.4 g/m*3 10.26 C 0 km/h
2384 31-10-2014 08:00:00 10.275 C 9.47 g/m*3 10.28 C 0 km/h
2385 31-10-2014 09:00:00 10.69167 C 9.72 g/m*3 10.69 C 0.26667 km/h
2386 31-10-2014 10:00:00 11.79167 C 10.41 g/m*3 11.79 C 0 km/h
2387 31-10-2014 11:00:00 13.14167 C 11.33 g/m*3 13.14 C 0.26667 km/h
2388 31-10-2014 12:00:00 14.71667 C 12.09 g/m*3 14.72 C 1.06667 km/h
2389 31-10-2014 13:00:00 16.3 C 12.58 g/m*3 16.3 C 0 km/h
2390 31-10-2014 14:00:00 16.21667 C 12.76 g/m*3 16.22 C 0 km/h
2391 31-10-2014 15:00:00 15.85 C 12.69 g/m*3 15.85 C 0 km/h
2392 31-10-2014 16:00:00 14.91667 C 12.06 g/m*3 14.92 C 0 km/h
2393 31-10-2014 17:00:00 13.425 C 11.09 g/m*3 13.43 C 0.13333 km/h
2394 31-10-2014 18:00:00 12.24167 C 10.44 g/m*3 12.24 C 0 km/h
2395 31-10-2014 19:00:00 11.71667 C 10.17 g/m*3 11.72 C 0 km/h
2396 31-10-2014 20:00:00 11.46667 C 10.06 g/m*3 11.47 C 0 km/h
2397 31-10-2014 21:00:00 10.74167 C 9.63 g/m*3 10.74 C 0 km/h
2398 31-10-2014 22:00:00 10.20833 C 9.33 g/m*3 10.21 C 0 km/h
2399 31-10-2014 23:00:00 9.625 C 8.99 g/m*3 9.63 C 0 km/h
2400 01-11-2014 00:00:00 9.51667 C 8.93 g/m*3 9.52 C 0 km/h
Sensor: Nr:Datum:Temp:Abs-Feuchte:Windchill:Wind:
Aussen-T/F 2401 01-11-2014 01:00:00 9.55 C 8.95 g/m*3 9.55 C 0.26667 km/h
2402 01-11-2014 02:00:00 9.63333 C 9.03 g/m*3 9.63 C 0 km/h
2403 01-11-2014 03:00:00 9.76667 C 9.17 g/m*3 9.77 C 0 km/h
2404 01-11-2014 04:00:00 9.48333 C 8.94 g/m*3 9.48 C 0.26667 km/h
2405 01-11-2014 05:00:00 9.1 C 8.74 g/m*3 9.1 C 0 km/h
2406 01-11-2014 06:00:00 8.79167 C 8.6 g/m*3 8.79 C 0 km/h
2407 01-11-2014 07:00:00 8.60833 C 8.5 g/m*3 8.61 C 0 km/h
2408 01-11-2014 08:00:00 8.73333 C 8.58 g/m*3 8.73 C 0.26667 km/h
2409 01-11-2014 09:00:00 9.275 C 8.88 g/m*3 9.28 C 0.26667 km/h
2410 01-11-2014 10:00:00 9.95 C 9.27 g/m*3 9.95 C 0.53333 km/h
2411 01-11-2014 11:00:00 11.13333 C 9.99 g/m*3 11.13 C 0.26667 km/h
2412 01-11-2014 12:00:00 12.14167 C 10.64 g/m*3 12.14 C 0.4 km/h
2413 01-11-2014 13:00:00 13.2 C 11.37 g/m*3 13.2 C 0 km/h
2414 01-11-2014 14:00:00 14.425 C 12.26 g/m*3 14.43 C 0.13333 km/h
2415 01-11-2014 15:00:00 15.275 C 12.88 g/m*3 15.28 C 0 km/h
2416 01-11-2014 16:00:00 14.775 C 12.31 g/m*3 14.78 C 0 km/h
2417 01-11-2014 17:00:00 13.8 C 11.56 g/m*3 13.8 C 0 km/h
2418 01-11-2014 18:00:00 12.74167 C 10.83 g/m*3 12.74 C 0 km/h
2419 01-11-2014 19:00:00 11.75 C 10.18 g/m*3 11.75 C 0 km/h
2420 01-11-2014 20:00:00 11.075 C 9.76 g/m*3 11.08 C 0.13333 km/h
2421 01-11-2014 21:00:00 10.33333 C 9.35 g/m*3 10.33 C 0 km/h
2422 01-11-2014 22:00:00 9.88333 C 9.14 g/m*3 9.88 C 0 km/h
2423 01-11-2014 23:00:00 9.3 C 8.81 g/m*3 9.3 C 0 km/h
2424 02-11-2014 00:00:00 9.04167 C 8.66 g/m*3 9.04 C 0 km/h
2425 02-11-2014 01:00:00 8.9 C 8.58 g/m*3 8.9 C 0 km/h
Sensor: Nr:Datum:Temp:Abs-Feuchte:Windchill:Wind:
Aussen-T/F 2426 02-11-2014 02:00:00 8.66667 C 8.46 g/m*3 8.67 C 0 km/h
2427 02-11-2014 03:00:00 8.69167 C 8.47 g/m*3 8.69 C 0 km/h
2428 02-11-2014 04:00:00 8.74167 C 8.53 g/m*3 8.74 C 0 km/h
2429 02-11-2014 05:00:00 8.8 C 8.62 g/m*3 8.8 C 0 km/h
2430 02-11-2014 06:00:00 8.91667 C 8.68 g/m*3 8.92 C 0 km/h
2431 02-11-2014 07:00:00 8.9 C 8.67 g/m*3 8.9 C 0 km/h
2432 02-11-2014 08:00:00 9.20833 C 8.85 g/m*3 9.21 C 0.13333 km/h
2433 02-11-2014 09:00:00 10.11667 C 9.37 g/m*3 10.12 C 0.13333 km/h
2434 02-11-2014 10:00:00 10.65 C 9.69 g/m*3 10.65 C 0 km/h
2435 02-11-2014 11:00:00 11.675 C 10.34 g/m*3 11.68 C 0.53333 km/h
2436 02-11-2014 12:00:00 12.65833 C 10.81 g/m*3 12.66 C 0.26667 km/h
2437 02-11-2014 13:00:00 13.775 C 11.07 g/m*3 13.78 C 1.46667 km/h
2438 02-11-2014 14:00:00 14.81667 C 11.74 g/m*3 14.82 C 1.2 km/h
2439 02-11-2014 15:00:00 14.85833 C 11.81 g/m*3 14.86 C 0.8 km/h
2440 02-11-2014 16:00:00 13.84167 C 11.32 g/m*3 13.84 C 0 km/h
2441 02-11-2014 17:00:00 12.59167 C 10.64 g/m*3 12.59 C 0.13333 km/h
2442 02-11-2014 18:00:00 12.1 C 10.4 g/m*3 12.1 C 0 km/h
2443 02-11-2014 19:00:00 11.75 C 10.21 g/m*3 11.75 C 0 km/h
2444 02-11-2014 20:00:00 11.59167 C 10.18 g/m*3 11.59 C 0.26667 km/h
2445 02-11-2014 21:00:00 12.2 C 10.58 g/m*3 12.2 C 0.4 km/h
2446 02-11-2014 22:00:00 12.69167 C 10.9 g/m*3 12.69 C 0.93333 km/h
2447 02-11-2014 23:00:00 13.2 C 11.07 g/m*3 13.2 C 1.86667 km/h
2448 03-11-2014 00:00:00 13.45833 C 11.14 g/m*3 13.46 C 2.93333 km/h
2449 03-11-2014 01:00:00 13.38333 C 11.16 g/m*3 13.38 C 1.33333 km/h
2450 03-11-2014 02:00:00 13.55 C 11.27 g/m*3 13.55 C 2.66667 km/h
Sensor: Nr:Datum:Temp:Abs-Feuchte:Windchill:Wind:
Aussen-T/F 2451 03-11-2014 03:00:00 13.7 C 11.24 g/m*3 13.7 C 3.08333 km/h
2452 03-11-2014 04:00:00 14.09167 C 11.08 g/m*3 14.09 C 4.425 km/h
2453 03-11-2014 05:00:00 13.375 C 10.68 g/m*3 13.38 C 1.46667 km/h
2454 03-11-2014 06:00:00 13.43333 C 10.51 g/m*3 13.43 C 2.4 km/h
2455 03-11-2014 07:00:00 13.56667 C 10.59 g/m*3 13.57 C 2.26667 km/h
2456 03-11-2014 08:00:00 13.15 C 10.59 g/m*3 13.15 C 4.68333 km/h
2457 03-11-2014 09:00:00 12.68333 C 10.37 g/m*3 12.68 C 3.48333 km/h
2458 03-11-2014 10:00:00 13.05 C 10.86 g/m*3 13.05 C 0 km/h
2459 03-11-2014 11:00:00 13.98333 C 11.55 g/m*3 13.98 C 2.13333 km/h
2460 03-11-2014 12:00:00 15.35 C 11.63 g/m*3 15.35 C 3.06667 km/h
2461 03-11-2014 13:00:00 16.01667 C 11.42 g/m*3 16.02 C 7.36667 km/h
2462 03-11-2014 14:00:00 16 C 11.1 g/m*3 16 C 7.10833 km/h
2463 03-11-2014 15:00:00 15.45833 C 10.7 g/m*3 15.46 C 8.2 km/h
2464 03-11-2014 16:00:00 14.85 C 10.65 g/m*3 14.85 C 4.4 km/h
2465 03-11-2014 17:00:00 13.7 C 10.3 g/m*3 13.7 C 3.33333 km/h
2466 03-11-2014 18:00:00 13.44167 C 10.06 g/m*3 13.44 C 2.93333 km/h
2467 03-11-2014 19:00:00 13.89167 C 10.09 g/m*3 13.89 C 4.96667 km/h
2468 03-11-2014 20:00:00 14.01667 C 10.2 g/m*3 14.02 C 8.59167 km/h
2469 03-11-2014 21:00:00 13.35833 C 10.32 g/m*3 13.36 C 5.75833 km/h
2470 03-11-2014 22:00:00 12.575 C 10.41 g/m*3 12.58 C 2.94167 km/h
2471 03-11-2014 23:00:00 12.08333 C 10.35 g/m*3 12.08 C 1.46667 km/h
2472 04-11-2014 00:00:00 11.83333 C 10.23 g/m*3 11.83 C 2.4 km/h
2473 04-11-2014 01:00:00 12.125 C 10.39 g/m*3 12.13 C 4.29167 km/h
2474 04-11-2014 02:00:00 11.85 C 10.13 g/m*3 11.85 C 3.74167 km/h
2475 04-11-2014 03:00:00 11.33333 C 9.88 g/m*3 11.33 C 0.93333 km/h
Sensor: Nr:Datum:Temp:Abs-Feuchte:Windchill:Wind:
Aussen-T/F 2476 04-11-2014 04:00:00 11.24167 C 9.88 g/m*3 11.24 C 2.94167 km/h
2477 04-11-2014 05:00:00 11.34167 C 9.92 g/m*3 11.34 C 2.95 km/h
2478 04-11-2014 06:00:00 11.24167 C 9.86 g/m*3 11.24 C 2.8 km/h
2479 04-11-2014 07:00:00 11.20833 C 9.87 g/m*3 11.21 C 0.53333 km/h
2480 04-11-2014 08:00:00 11.34167 C 10.02 g/m*3 11.34 C 0 km/h
2481 04-11-2014 09:00:00 11.76667 C 10.28 g/m*3 11.77 C 2.81667 km/h
2482 04-11-2014 10:00:00 12.775 C 10.33 g/m*3 12.78 C 5.23333 km/h
2483 04-11-2014 11:00:00 12.575 C 10.23 g/m*3 12.58 C 1.34167 km/h
2484 04-11-2014 12:00:00 12.35833 C 10.37 g/m*3 12.36 C 0 km/h
2485 04-11-2014 13:00:00 12.325 C 10.21 g/m*3 12.33 C 0.26667 km/h
2486 04-11-2014 14:00:00 12.06667 C 10.21 g/m*3 12.07 C 0 km/h
2487 04-11-2014 15:00:00 11.7 C 10.13 g/m*3 11.7 C 0.13333 km/h
2488 04-11-2014 16:00:00 11.41667 C 9.97 g/m*3 11.42 C 0 km/h
2489 04-11-2014 17:00:00 10.725 C 9.54 g/m*3 10.73 C 0 km/h
2490 04-11-2014 18:00:00 10.38333 C 9.39 g/m*3 10.38 C 0 km/h
2491 04-11-2014 19:00:00 10.25833 C 9.36 g/m*3 10.26 C 0 km/h
2492 04-11-2014 20:00:00 9.525 C 8.86 g/m*3 9.53 C 0.13333 km/h
2493 04-11-2014 21:00:00 9.3 C 8.77 g/m*3 9.3 C 0 km/h
2494 04-11-2014 22:00:00 9.3 C 8.81 g/m*3 9.3 C 0 km/h
2495 04-11-2014 23:00:00 9.3 C 8.81 g/m*3 9.3 C 0 km/h
2496 05-11-2014 00:00:00 9.3 C 8.81 g/m*3 9.3 C 0 km/h
2497 05-11-2014 01:00:00 9.36667 C 8.84 g/m*3 9.37 C 0 km/h
2498 05-11-2014 02:00:00 9.41667 C 8.87 g/m*3 9.42 C 0.13333 km/h
2499 05-11-2014 03:00:00 9.3 C 8.81 g/m*3 9.3 C 0 km/h
2500 05-11-2014 04:00:00 9.175 C 8.74 g/m*3 9.18 C 0.13333 km/h
Sensor: Nr:Datum:Temp:Abs-Feuchte:Windchill:Wind:
Aussen-T/F 2501 05-11-2014 05:00:00 9.075 C 8.68 g/m*3 9.07 C 0 km/h
2502 05-11-2014 06:00:00 8.84167 C 8.55 g/m*3 8.84 C 0 km/h
2503 05-11-2014 07:00:00 8.90833 C 8.6 g/m*3 8.91 C 0 km/h
2504 05-11-2014 08:00:00 8.91667 C 8.59 g/m*3 8.92 C 0 km/h
2505 05-11-2014 09:00:00 8.84167 C 8.55 g/m*3 8.84 C 2.00833 km/h
2506 05-11-2014 10:00:00 9.3 C 8.57 g/m*3 8.85 C 5.35833 km/h
2507 05-11-2014 11:00:00 9.99167 C 8.7 g/m*3 9.28 C 6.725 km/h
2508 05-11-2014 12:00:00 10.49167 C 8.7 g/m*3 9.83 C 6.85 km/h
2509 05-11-2014 13:00:00 10.725 C 8.67 g/m*3 9.9 C 7.78333 km/h
2510 05-11-2014 14:00:00 10.8 C 8.67 g/m*3 10.8 C 2.94167 km/h
2511 05-11-2014 15:00:00 10.79167 C 8.9 g/m*3 10.79 C 0.66667 km/h
2512 05-11-2014 16:00:00 9.825 C 8.8 g/m*3 9.82 C 0 km/h
2513 05-11-2014 17:00:00 9.26667 C 8.61 g/m*3 9.27 C 0 km/h
2514 05-11-2014 18:00:00 8.9 C 8.45 g/m*3 8.9 C 0.4 km/h
2515 05-11-2014 19:00:00 8.75 C 8.39 g/m*3 8.75 C 0 km/h
2516 05-11-2014 20:00:00 8.60833 C 8.3 g/m*3 8.61 C 0.26667 km/h
2517 05-11-2014 21:00:00 8.625 C 8.21 g/m*3 8.63 C 0.8 km/h
2518 05-11-2014 22:00:00 8.45 C 7.99 g/m*3 8.45 C 2.13333 km/h
2519 05-11-2014 23:00:00 8.30833 C 7.77 g/m*3 8.31 C 2.53333 km/h
2520 06-11-2014 00:00:00 7.625 C 7.52 g/m*3 7.63 C 0.26667 km/h
2521 06-11-2014 01:00:00 7.01667 C 7.34 g/m*3 7.02 C 0.4 km/h
2522 06-11-2014 02:00:00 6.8 C 7.27 g/m*3 6.8 C 0 km/h
2523 06-11-2014 03:00:00 6.71667 C 7.3 g/m*3 6.72 C 0 km/h
2524 06-11-2014 04:00:00 6.6 C 7.24 g/m*3 6.6 C 0 km/h
2525 06-11-2014 05:00:00 6.11667 C 7.01 g/m*3 6.12 C 1.06667 km/h
Sensor: Nr:Datum:Temp:Abs-Feuchte:Windchill:Wind:
Aussen-T/F 2526 06-11-2014 06:00:00 5.93333 C 6.88 g/m*3 5.93 C 1.73333 km/h
2527 06-11-2014 07:00:00 5.225 C 6.62 g/m*3 5.23 C 0.13333 km/h
2528 06-11-2014 08:00:00 4.51667 C 6.36 g/m*3 4.52 C 0 km/h
2529 06-11-2014 09:00:00 4.73333 C 6.49 g/m*3 4.73 C 0 km/h
2530 06-11-2014 10:00:00 6.66667 C 7.22 g/m*3 6.67 C 4.025 km/h
2531 06-11-2014 11:00:00 8.61667 C 7.48 g/m*3 8.62 C 4.00833 km/h
2532 06-11-2014 12:00:00 9.2 C 7.59 g/m*3 8.73 C 5.36667 km/h
2533 06-11-2014 13:00:00 8.98333 C 7.6 g/m*3 7.86 C 7.775 km/h
2534 06-11-2014 14:00:00 9.225 C 7.59 g/m*3 7.94 C 8.73333 km/h
2535 06-11-2014 15:00:00 9.29167 C 7.51 g/m*3 9.29 C 4.81667 km/h
2536 06-11-2014 16:00:00 8.95833 C 7.36 g/m*3 8.38 C 5.625 km/h
2537 06-11-2014 17:00:00 8.11667 C 7.36 g/m*3 8.12 C 1.6 km/h
2538 06-11-2014 18:00:00 6.575 C 6.98 g/m*3 6.58 C 1.46667 km/h
2539 06-11-2014 19:00:00 5.49167 C 6.65 g/m*3 5.49 C 0.26667 km/h
2540 06-11-2014 20:00:00 4.79167 C 6.43 g/m*3 4.79 C 0 km/h
2541 06-11-2014 21:00:00 4.2 C 6.2 g/m*3 4.2 C 0 km/h
2542 06-11-2014 22:00:00 3.625 C 6.01 g/m*3 3.63 C 0 km/h
2543 06-11-2014 23:00:00 3.25833 C 5.87 g/m*3 3.26 C 0 km/h
2544 07-11-2014 00:00:00 3.19167 C 5.85 g/m*3 3.19 C 0.13333 km/h
2545 07-11-2014 01:00:00 3.2 C 5.91 g/m*3 3.2 C 1.2 km/h
2546 07-11-2014 02:00:00 2.725 C 5.72 g/m*3 2.73 C 2.4 km/h
2547 07-11-2014 03:00:00 2.55833 C 5.66 g/m*3 2.56 C 0.4 km/h
2548 07-11-2014 04:00:00 2.44167 C 5.61 g/m*3 2.44 C 0 km/h
2549 07-11-2014 05:00:00 2.59167 C 5.67 g/m*3 2.59 C 0.13333 km/h
2550 07-11-2014 06:00:00 2.60833 C 5.67 g/m*3 2.61 C 0 km/h
Sensor: Nr:Datum:Temp:Abs-Feuchte:Windchill:Wind:
Aussen-T/F 2551 07-11-2014 07:00:00 2.15833 C 5.5 g/m*3 2.16 C 0 km/h
2552 07-11-2014 08:00:00 2.675 C 5.73 g/m*3 2.68 C 0 km/h
2553 07-11-2014 09:00:00 3.775 C 6.2 g/m*3 3.78 C 0.66667 km/h
2554 07-11-2014 10:00:00 4.81667 C 6.63 g/m*3 4.82 C 4.95 km/h
2555 07-11-2014 11:00:00 6.01667 C 6.96 g/m*3 6.02 C 3.46667 km/h
2556 07-11-2014 12:00:00 7.325 C 7.1 g/m*3 7.33 C 3.86667 km/h
2557 07-11-2014 13:00:00 8.09167 C 7.22 g/m*3 8.09 C 3.46667 km/h
2558 07-11-2014 14:00:00 8.2 C 7.26 g/m*3 8.2 C 2 km/h
2559 07-11-2014 15:00:00 8.19167 C 7.3 g/m*3 8.19 C 1.73333 km/h
2560 07-11-2014 16:00:00 8.075 C 7.4 g/m*3 8.07 C 1.46667 km/h
2561 07-11-2014 17:00:00 8.15 C 7.53 g/m*3 8.15 C 2 km/h
2562 07-11-2014 18:00:00 8.1 C 7.82 g/m*3 8.1 C 0.8 km/h
2563 07-11-2014 19:00:00 8.13333 C 7.93 g/m*3 8.13 C 0 km/h
2564 07-11-2014 20:00:00 7.925 C 7.84 g/m*3 7.93 C 1.46667 km/h
2565 07-11-2014 21:00:00 7.60833 C 7.69 g/m*3 7.61 C 0.8 km/h
2566 07-11-2014 22:00:00 7.9 C 7.87 g/m*3 7.9 C 2.80833 km/h
2567 07-11-2014 23:00:00 7.99167 C 7.86 g/m*3 7.99 C 0.4 km/h
2568 08-11-2014 00:00:00 7.18333 C 7.56 g/m*3 7.18 C 0.53333 km/h
2569 08-11-2014 01:00:00 7.49167 C 7.78 g/m*3 7.49 C 0.93333 km/h
2570 08-11-2014 02:00:00 8.80833 C 8.42 g/m*3 8.81 C 1.6 km/h
2571 08-11-2014 03:00:00 9.19167 C 8.37 g/m*3 9.19 C 1.33333 km/h
2572 08-11-2014 04:00:00 8.90833 C 8.32 g/m*3 8.91 C 1.46667 km/h
2573 08-11-2014 05:00:00 9.66667 C 8.44 g/m*3 9.67 C 1.86667 km/h
2574 08-11-2014 06:00:00 9.125 C 8.13 g/m*3 9.13 C 1.46667 km/h
2575 08-11-2014 07:00:00 8.19167 C 7.87 g/m*3 8.19 C 1.33333 km/h
Sensor: Nr:Datum:Temp:Abs-Feuchte:Windchill:Wind:
Aussen-T/F 2576 08-11-2014 08:00:00 7.775 C 7.77 g/m*3 7.78 C 1.33333 km/h
2577 08-11-2014 09:00:00 8.55 C 8.03 g/m*3 8.55 C 2.13333 km/h
2578 08-11-2014 10:00:00 9.85 C 7.99 g/m*3 8.68 C 8.74167 km/h
2579 08-11-2014 11:00:00 11.03333 C 8.13 g/m*3 11.03 C 9 km/h
2580 08-11-2014 12:00:00 11.975 C 8.38 g/m*3 11.98 C 5.225 km/h
2581 08-11-2014 13:00:00 12.25833 C 8.84 g/m*3 12.26 C 2.68333 km/h
2582 08-11-2014 14:00:00 12.53333 C 8.93 g/m*3 12.53 C 1.875 km/h
2583 08-11-2014 15:00:00 11.79167 C 8.94 g/m*3 11.79 C 1.33333 km/h
2584 08-11-2014 16:00:00 10.43333 C 8.35 g/m*3 10.43 C 1.875 km/h
2585 08-11-2014 17:00:00 8.325 C 7.84 g/m*3 8.32 C 1.73333 km/h
2586 08-11-2014 18:00:00 7.64167 C 7.61 g/m*3 7.64 C 2.13333 km/h
2587 08-11-2014 19:00:00 6.975 C 7.37 g/m*3 6.98 C 1.6 km/h
2588 08-11-2014 20:00:00 6.75 C 7.32 g/m*3 6.75 C 0.26667 km/h
2589 08-11-2014 21:00:00 6.45833 C 7.25 g/m*3 6.46 C 0.53333 km/h
2590 08-11-2014 22:00:00 6.55 C 7.3 g/m*3 6.55 C 0.8 km/h
2591 08-11-2014 23:00:00 5.99167 C 7.04 g/m*3 5.99 C 0 km/h
2592 09-11-2014 00:00:00 5.69167 C 6.93 g/m*3 5.69 C 0.13333 km/h
2593 09-11-2014 01:00:00 5.34167 C 6.78 g/m*3 5.34 C 0 km/h
2594 09-11-2014 02:00:00 5.23333 C 6.76 g/m*3 5.23 C 0 km/h
2595 09-11-2014 03:00:00 5.06667 C 6.69 g/m*3 5.07 C 0.26667 km/h
2596 09-11-2014 04:00:00 4.675 C 6.52 g/m*3 4.68 C 0.53333 km/h
2597 09-11-2014 05:00:00 4.40833 C 6.4 g/m*3 4.41 C 0 km/h
2598 09-11-2014 06:00:00 4.125 C 6.28 g/m*3 4.13 C 0.13333 km/h
2599 09-11-2014 07:00:00 3.89167 C 6.19 g/m*3 3.89 C 0 km/h
2600 09-11-2014 08:00:00 4.25833 C 6.34 g/m*3 4.26 C 0 km/h
Sensor: Nr:Datum:Temp:Abs-Feuchte:Windchill:Wind:
Aussen-T/F 2601 09-11-2014 09:00:00 4.7 C 6.55 g/m*3 4.7 C 0 km/h
2602 09-11-2014 10:00:00 5.325 C 6.85 g/m*3 5.33 C 0.66667 km/h
2603 09-11-2014 11:00:00 6.075 C 7.22 g/m*3 6.08 C 0.13333 km/h
2604 09-11-2014 12:00:00 7.225 C 7.78 g/m*3 7.23 C 0.4 km/h
2605 09-11-2014 13:00:00 8.6 C 8.51 g/m*3 8.6 C 0.13333 km/h
2606 09-11-2014 14:00:00 9.55 C 8.88 g/m*3 9.55 C 0.53333 km/h
2607 09-11-2014 15:00:00 10.25833 C 8.64 g/m*3 10.26 C 2 km/h
2608 09-11-2014 16:00:00 9.875 C 8.25 g/m*3 9.88 C 1.86667 km/h
2609 09-11-2014 17:00:00 7.91667 C 7.72 g/m*3 7.92 C 0.93333 km/h
2610 09-11-2014 18:00:00 7.78333 C 7.73 g/m*3 7.78 C 1.6 km/h
2611 09-11-2014 19:00:00 7.45833 C 7.66 g/m*3 7.46 C 0.13333 km/h
2612 09-11-2014 20:00:00 7.83333 C 7.93 g/m*3 7.83 C 0.26667 km/h
2613 09-11-2014 21:00:00 7.875 C 7.93 g/m*3 7.88 C 0.13333 km/h
2614 09-11-2014 22:00:00 7.875 C 7.95 g/m*3 7.88 C 0 km/h
2615 09-11-2014 23:00:00 7.9 C 7.97 g/m*3 7.9 C 0 km/h
2616 10-11-2014 00:00:00 8.08333 C 8.06 g/m*3 8.08 C 0 km/h
2617 10-11-2014 01:00:00 8.05 C 8.05 g/m*3 8.05 C 0 km/h
2618 10-11-2014 02:00:00 7.9 C 8.03 g/m*3 7.9 C 0 km/h
2619 10-11-2014 03:00:00 7.99167 C 8.1 g/m*3 7.99 C 0 km/h
2620 10-11-2014 04:00:00 8.18333 C 8.2 g/m*3 8.18 C 0 km/h
2621 10-11-2014 05:00:00 8.26667 C 8.24 g/m*3 8.27 C 0.4 km/h
2622 10-11-2014 06:00:00 8.44167 C 8.34 g/m*3 8.44 C 0.4 km/h
2623 10-11-2014 07:00:00 8.56667 C 8.4 g/m*3 8.57 C 2.66667 km/h
2624 10-11-2014 08:00:00 8.775 C 8.52 g/m*3 8.78 C 0.4 km/h
2625 10-11-2014 09:00:00 9.3 C 8.81 g/m*3 9.3 C 0.53333 km/h
Sensor: Nr:Datum:Temp:Abs-Feuchte:Windchill:Wind:
Aussen-T/F 2626 10-11-2014 10:00:00 9.95833 C 9.17 g/m*3 9.96 C 1.33333 km/h
2627 10-11-2014 11:00:00 10.81667 C 9.39 g/m*3 10.82 C 1.06667 km/h
2628 10-11-2014 12:00:00 11.71667 C 9.54 g/m*3 11.72 C 0.66667 km/h
2629 10-11-2014 13:00:00 11.95833 C 9.48 g/m*3 11.96 C 0.93333 km/h
2630 10-11-2014 14:00:00 11.78333 C 9.64 g/m*3 11.78 C 0.26667 km/h
2631 10-11-2014 15:00:00 11.275 C 9.62 g/m*3 11.28 C 0 km/h
2632 10-11-2014 16:00:00 10.625 C 9.3 g/m*3 10.63 C 2.13333 km/h
2633 10-11-2014 17:00:00 8.90833 C 8.39 g/m*3 8.91 C 3.06667 km/h
2634 10-11-2014 18:00:00 7.925 C 7.94 g/m*3 7.93 C 1.06667 km/h
2635 10-11-2014 19:00:00 7.30833 C 7.67 g/m*3 7.31 C 0.8 km/h
2636 10-11-2014 20:00:00 6.825 C 7.48 g/m*3 6.83 C 0.8 km/h
2637 10-11-2014 21:00:00 6.50833 C 7.35 g/m*3 6.51 C 0 km/h
2638 10-11-2014 22:00:00 5.85 C 7.04 g/m*3 5.85 C 0 km/h
2639 10-11-2014 23:00:00 5.31667 C 6.8 g/m*3 5.32 C 1.06667 km/h
2640 11-11-2014 00:00:00 5.46667 C 6.87 g/m*3 5.47 C 0.26667 km/h
2641 11-11-2014 01:00:00 5.55833 C 6.92 g/m*3 5.56 C 0 km/h
2642 11-11-2014 02:00:00 6.04167 C 7.17 g/m*3 6.04 C 0 km/h
2643 11-11-2014 03:00:00 6.25 C 7.3 g/m*3 6.25 C 0 km/h
2644 11-11-2014 04:00:00 7.31667 C 7.83 g/m*3 7.32 C 0 km/h
2645 11-11-2014 05:00:00 7.225 C 7.78 g/m*3 7.23 C 0.4 km/h
2646 11-11-2014 06:00:00 7.275 C 7.81 g/m*3 7.28 C 1.2 km/h
2647 11-11-2014 07:00:00 7.725 C 8.04 g/m*3 7.73 C 0.8 km/h
2648 11-11-2014 08:00:00 7.85 C 8.11 g/m*3 7.85 C 0 km/h
2649 11-11-2014 09:00:00 8.54167 C 8.48 g/m*3 8.54 C 0.26667 km/h
2650 11-11-2014 10:00:00 8.81667 C 8.63 g/m*3 8.82 C 2.4 km/h
Sensor: Nr:Datum:Temp:Abs-Feuchte:Windchill:Wind:
Aussen-T/F 2651 11-11-2014 11:00:00 9.14286 C 8.86 g/m*3 9.14 C 2.05714 km/h
2652 11-11-2014 12:00:00 10.90909 C 9.12 g/m*3 10.91 C 4.52727 km/h
2653 11-11-2014 13:00:00 11.41667 C 9.08 g/m*3 11.42 C 5.08333 km/h
2654 11-11-2014 14:00:00 11.61667 C 8.95 g/m*3 11.62 C 5.35 km/h
2655 11-11-2014 15:00:00 10.83333 C 8.55 g/m*3 10.29 C 6.58333 km/h
2656 11-11-2014 16:00:00 9.80833 C 8.22 g/m*3 9.81 C 3.46667 km/h
2657 11-11-2014 17:00:00 9.2 C 8.13 g/m*3 9.2 C 0.66667 km/h
2658 11-11-2014 18:00:00 9.04167 C 8.15 g/m*3 9.04 C 0.66667 km/h
2659 11-11-2014 19:00:00 8.85833 C 8.17 g/m*3 8.86 C 0.26667 km/h
2660 11-11-2014 20:00:00 8.8 C 8.17 g/m*3 8.8 C 0.4 km/h
2661 11-11-2014 21:00:00 8.8 C 8.21 g/m*3 8.8 C 0 km/h
2662 11-11-2014 22:00:00 8.7 C 8.22 g/m*3 8.7 C 0 km/h
2663 11-11-2014 23:00:00 8.7 C 8.2 g/m*3 8.7 C 0 km/h
2664 12-11-2014 00:00:00 8.65 C 8.19 g/m*3 8.65 C 0 km/h
2665 12-11-2014 01:00:00 8.40833 C 8.11 g/m*3 8.41 C 0 km/h
2666 12-11-2014 02:00:00 8.39167 C 8.14 g/m*3 8.39 C 0.26667 km/h
2667 12-11-2014 03:00:00 8.49167 C 8.19 g/m*3 8.49 C 0 km/h
2668 12-11-2014 04:00:00 8.675 C 8.25 g/m*3 8.68 C 0.26667 km/h
2669 12-11-2014 05:00:00 8.7 C 8.22 g/m*3 8.7 C 0.53333 km/h
2670 12-11-2014 06:00:00 8.7 C 8.22 g/m*3 8.7 C 0.13333 km/h
2671 12-11-2014 07:00:00 8.7 C 8.22 g/m*3 8.7 C 0.13333 km/h
2672 12-11-2014 08:00:00 8.9 C 8.26 g/m*3 8.9 C 0.66667 km/h
2673 12-11-2014 09:00:00 9.275 C 8.37 g/m*3 9.28 C 1.33333 km/h
2674 12-11-2014 10:00:00 9.4 C 8.42 g/m*3 9.4 C 2 km/h
2675 12-11-2014 11:00:00 9.63333 C 8.54 g/m*3 9.63 C 0.4 km/h
Sensor: Nr:Datum:Temp:Abs-Feuchte:Windchill:Wind:
Aussen-T/F 2676 12-11-2014 12:00:00 10.20833 C 8.8 g/m*3 10.21 C 0.53333 km/h
2677 12-11-2014 13:00:00 10.91667 C 9.06 g/m*3 10.92 C 0.26667 km/h
2678 12-11-2014 14:00:00 11.16667 C 9.27 g/m*3 11.17 C 0 km/h
2679 12-11-2014 15:00:00 10.925 C 9.41 g/m*3 10.93 C 0 km/h
2680 12-11-2014 16:00:00 10.45833 C 9.33 g/m*3 10.46 C 0.13333 km/h
2681 12-11-2014 17:00:00 10.15833 C 9.21 g/m*3 10.16 C 1.33333 km/h
2682 12-11-2014 18:00:00 10.03333 C 9.15 g/m*3 10.03 C 1.06667 km/h
2683 12-11-2014 19:00:00 9.88333 C 9.1 g/m*3 9.88 C 0.13333 km/h
2684 12-11-2014 20:00:00 9.78333 C 9.05 g/m*3 9.78 C 0.53333 km/h
2685 12-11-2014 21:00:00 9.68333 C 9.02 g/m*3 9.68 C 0 km/h
2686 12-11-2014 22:00:00 9.575 C 8.96 g/m*3 9.57 C 0.26667 km/h
2687 12-11-2014 23:00:00 9.30833 C 8.81 g/m*3 9.31 C 0.26667 km/h
2688 13-11-2014 00:00:00 9.36667 C 8.84 g/m*3 9.37 C 0 km/h
2689 13-11-2014 01:00:00 9.28333 C 8.8 g/m*3 9.28 C 0 km/h
2690 13-11-2014 02:00:00 9.20833 C 8.76 g/m*3 9.21 C 0 km/h
2691 13-11-2014 03:00:00 9.3 C 8.81 g/m*3 9.3 C 0 km/h
2692 13-11-2014 04:00:00 9.10833 C 8.7 g/m*3 9.11 C 0 km/h
2693 13-11-2014 05:00:00 9.00833 C 8.65 g/m*3 9.01 C 1.46667 km/h
2694 13-11-2014 06:00:00 8.975 C 8.64 g/m*3 8.98 C 4.40833 km/h
2695 13-11-2014 07:00:00 8.75 C 8.5 g/m*3 8.75 C 1.46667 km/h
2696 13-11-2014 08:00:00 8.28333 C 8.25 g/m*3 8.28 C 3.06667 km/h
2697 13-11-2014 09:00:00 8.46667 C 8.35 g/m*3 8.47 C 3.88333 km/h
2698 13-11-2014 10:00:00 8.44167 C 8.34 g/m*3 7.32 C 7.4 km/h
2699 13-11-2014 11:00:00 8.88333 C 8.56 g/m*3 8.88 C 3.74167 km/h
2700 13-11-2014 12:00:00 9.79167 C 8.95 g/m*3 9.79 C 2.53333 km/h
Sensor: Nr:Datum:Temp:Abs-Feuchte:Windchill:Wind:
Aussen-T/F 2701 13-11-2014 13:00:00 10.36667 C 9.15 g/m*3 10.37 C 0.8 km/h
2702 13-11-2014 14:00:00 10.775 C 9.29 g/m*3 10.78 C 1.6 km/h
2703 13-11-2014 15:00:00 10.8 C 9.29 g/m*3 10.8 C 1.2 km/h
2704 13-11-2014 16:00:00 10.63333 C 9.26 g/m*3 10.63 C 0 km/h
2705 13-11-2014 17:00:00 10.31667 C 9.23 g/m*3 10.32 C 0.8 km/h
2706 13-11-2014 18:00:00 10.3 C 9.28 g/m*3 10.3 C 0.26667 km/h
2707 13-11-2014 19:00:00 10.3 C 9.29 g/m*3 10.3 C 0 km/h
2708 13-11-2014 20:00:00 10.4 C 9.26 g/m*3 10.4 C 0.53333 km/h
2709 13-11-2014 21:00:00 10.525 C 9.19 g/m*3 10.53 C 1.73333 km/h
2710 13-11-2014 22:00:00 10.54167 C 9.1 g/m*3 10.54 C 0.8 km/h
2711 13-11-2014 23:00:00 10.19167 C 9.07 g/m*3 10.19 C 0.4 km/h
2712 14-11-2014 00:00:00 10.09167 C 9.03 g/m*3 10.09 C 1.06667 km/h
2713 14-11-2014 01:00:00 10.13333 C 8.89 g/m*3 10.13 C 0.93333 km/h
2714 14-11-2014 02:00:00 9.925 C 8.78 g/m*3 9.93 C 1.06667 km/h
2715 14-11-2014 03:00:00 9.9 C 8.7 g/m*3 9.9 C 1.46667 km/h
2716 14-11-2014 04:00:00 9.85833 C 8.58 g/m*3 9.86 C 0.66667 km/h
2717 14-11-2014 05:00:00 9.59167 C 8.6 g/m*3 9.59 C 0 km/h
2718 14-11-2014 06:00:00 9.41667 C 8.54 g/m*3 9.42 C 0 km/h
2719 14-11-2014 07:00:00 9.39167 C 8.59 g/m*3 9.39 C 0.66667 km/h
2720 14-11-2014 08:00:00 9.68333 C 8.78 g/m*3 9.68 C 0 km/h
2721 14-11-2014 09:00:00 10.10833 C 8.96 g/m*3 10.11 C 0 km/h
2722 14-11-2014 10:00:00 10.975 C 9.05 g/m*3 10.98 C 0.4 km/h
2723 14-11-2014 11:00:00 11.925 C 9.1 g/m*3 11.93 C 3.475 km/h
2724 14-11-2014 12:00:00 12.4 C 8.88 g/m*3 12.4 C 6.45 km/h
2725 14-11-2014 13:00:00 12.675 C 8.88 g/m*3 12.68 C 6.30833 km/h
Sensor: Nr:Datum:Temp:Abs-Feuchte:Windchill:Wind:
Aussen-T/F 2726 14-11-2014 14:00:00 12.55 C 8.99 g/m*3 12.55 C 3.74167 km/h
2727 14-11-2014 15:00:00 12.08333 C 8.87 g/m*3 12.08 C 2.93333 km/h
2728 14-11-2014 16:00:00 11.11667 C 8.78 g/m*3 11.12 C 2.40833 km/h
2729 14-11-2014 17:00:00 10.225 C 8.59 g/m*3 10.23 C 2.40833 km/h
2730 14-11-2014 18:00:00 10.175 C 8.62 g/m*3 10.18 C 3.20833 km/h
2731 14-11-2014 19:00:00 10.76667 C 8.7 g/m*3 10.6 C 5.08333 km/h
2732 14-11-2014 20:00:00 10.63333 C 8.62 g/m*3 10.45 C 5.09167 km/h
2733 14-11-2014 21:00:00 10.40833 C 8.6 g/m*3 10.41 C 4.68333 km/h
2734 14-11-2014 22:00:00 10.50833 C 8.72 g/m*3 10.16 C 5.6 km/h
2735 14-11-2014 23:00:00 9.9 C 8.75 g/m*3 9.9 C 1.06667 km/h
2736 15-11-2014 00:00:00 9.38333 C 8.67 g/m*3 9.38 C 0.4 km/h
2737 15-11-2014 01:00:00 8.75 C 8.39 g/m*3 8.75 C 2.4 km/h
2738 15-11-2014 02:00:00 8.10833 C 8.08 g/m*3 8.11 C 1.73333 km/h
2739 15-11-2014 03:00:00 7.86667 C 7.99 g/m*3 7.87 C 0.66667 km/h
2740 15-11-2014 04:00:00 8.1 C 8.15 g/m*3 8.1 C 1.06667 km/h
2741 15-11-2014 05:00:00 8.19167 C 8.2 g/m*3 8.19 C 1.86667 km/h
2742 15-11-2014 06:00:00 8.3 C 8.26 g/m*3 8.3 C 2 km/h
2743 15-11-2014 07:00:00 8.575 C 8.32 g/m*3 8.57 C 1.73333 km/h
2744 15-11-2014 08:00:00 8.75 C 8.42 g/m*3 8.75 C 0.93333 km/h
2745 15-11-2014 09:00:00 9.24167 C 8.57 g/m*3 9.24 C 1.73333 km/h
2746 15-11-2014 10:00:00 10.06667 C 8.59 g/m*3 9.69 C 5.48333 km/h
2747 15-11-2014 11:00:00 10.35 C 8.87 g/m*3 10.35 C 3.06667 km/h
2748 15-11-2014 12:00:00 10.75833 C 8.93 g/m*3 10.76 C 3.74167 km/h
2749 15-11-2014 13:00:00 11.30833 C 9.11 g/m*3 11.31 C 3.46667 km/h
2750 15-11-2014 14:00:00 11.65 C 9.25 g/m*3 11.65 C 3.34167 km/h
Sensor: Nr:Datum:Temp:Abs-Feuchte:Windchill:Wind:
Aussen-T/F 2751 15-11-2014 15:00:00 11.50833 C 9.26 g/m*3 11.51 C 2.13333 km/h
2752 15-11-2014 16:00:00 11.1 C 9.28 g/m*3 11.1 C 0.53333 km/h
2753 15-11-2014 17:00:00 10.95 C 9.13 g/m*3 10.95 C 2.13333 km/h
2754 15-11-2014 18:00:00 10.775 C 9.17 g/m*3 10.78 C 0.8 km/h
2755 15-11-2014 19:00:00 10.35833 C 9.13 g/m*3 10.36 C 0.26667 km/h
2756 15-11-2014 20:00:00 10.325 C 9.11 g/m*3 10.33 C 0.13333 km/h
2757 15-11-2014 21:00:00 10.26667 C 9.17 g/m*3 10.27 C 0.26667 km/h
2758 15-11-2014 22:00:00 9.99167 C 9.11 g/m*3 9.99 C 0.8 km/h
2759 15-11-2014 23:00:00 9.55 C 8.86 g/m*3 9.55 C 0.93333 km/h
2760 16-11-2014 00:00:00 9.325 C 8.8 g/m*3 9.32 C 0.13333 km/h
2761 16-11-2014 01:00:00 9.28333 C 8.8 g/m*3 9.28 C 0.13333 km/h
2762 16-11-2014 02:00:00 9.18333 C 8.74 g/m*3 9.18 C 0.13333 km/h
2763 16-11-2014 03:00:00 8.9 C 8.58 g/m*3 8.9 C 0.13333 km/h
2764 16-11-2014 04:00:00 8.8 C 8.53 g/m*3 8.8 C 2.13333 km/h
2765 16-11-2014 05:00:00 8.725 C 8.42 g/m*3 8.73 C 2.53333 km/h
2766 16-11-2014 06:00:00 8.65833 C 8.37 g/m*3 8.66 C 2.26667 km/h
2767 16-11-2014 07:00:00 8.46667 C 8.26 g/m*3 8.47 C 2.53333 km/h
2768 16-11-2014 08:00:00 8.25 C 8.15 g/m*3 8.25 C 1.06667 km/h
2769 16-11-2014 09:00:00 8.3 C 8.18 g/m*3 8.3 C 0.66667 km/h
2770 16-11-2014 10:00:00 8.43333 C 8.25 g/m*3 8.43 C 0.4 km/h
2771 16-11-2014 11:00:00 8.8 C 8.44 g/m*3 8.8 C 0.13333 km/h
2772 16-11-2014 12:00:00 9.14167 C 8.63 g/m*3 9.14 C 0 km/h
2773 16-11-2014 13:00:00 9.34167 C 8.74 g/m*3 9.34 C 0.53333 km/h
2774 16-11-2014 14:00:00 9.73333 C 8.89 g/m*3 9.73 C 0 km/h
2775 16-11-2014 15:00:00 9.9875 C 9.07 g/m*3 9.99 C 0 km/h
Sensor: Nr:Datum:Temp:Abs-Feuchte:Windchill:Wind:
Aussen-T/F 2776 16-11-2014 16:00:00 9.21 C 8.67 g/m*3 9.21 C 0 km/h
2777 16-11-2014 17:00:00 8.60833 C 8.39 g/m*3 8.61 C 0 km/h
2778 16-11-2014 18:00:00 8.775 C 8.52 g/m*3 8.78 C 0 km/h
2779 16-11-2014 19:00:00 8.7 C 8.48 g/m*3 8.7 C 0 km/h
2780 16-11-2014 20:00:00 8.56667 C 8.4 g/m*3 8.57 C 0 km/h
2781 16-11-2014 21:00:00 8.28333 C 8.25 g/m*3 8.28 C 0 km/h
2782 16-11-2014 22:00:00 8.075 C 8.14 g/m*3 8.07 C 0 km/h
2783 16-11-2014 23:00:00 7.1 C 7.64 g/m*3 7.1 C 0 km/h
2784 17-11-2014 00:00:00 7.6 C 7.94 g/m*3 7.6 C 0 km/h
2785 17-11-2014 01:00:00 7.80833 C 8.02 g/m*3 7.81 C 1.2 km/h
2786 17-11-2014 02:00:00 8.08333 C 8.15 g/m*3 8.08 C 2.93333 km/h
2787 17-11-2014 03:00:00 8.39167 C 8.36 g/m*3 8.39 C 1.06667 km/h
2788 17-11-2014 04:00:00 8.45 C 8.34 g/m*3 8.45 C 1.6 km/h
2789 17-11-2014 05:00:00 8.225 C 8.22 g/m*3 8.23 C 2 km/h
2790 17-11-2014 06:00:00 8.21667 C 8.22 g/m*3 8.22 C 1.73333 km/h
2791 17-11-2014 07:00:00 8.19167 C 8.2 g/m*3 8.19 C 0.93333 km/h
2792 17-11-2014 08:00:00 8.06667 C 8.14 g/m*3 8.07 C 1.06667 km/h
2793 17-11-2014 09:00:00 8.25833 C 8.24 g/m*3 8.26 C 0.66667 km/h
2794 17-11-2014 10:00:00 8.8 C 8.53 g/m*3 8.8 C 0.4 km/h
2795 17-11-2014 11:00:00 9.43333 C 8.84 g/m*3 9.43 C 0.8 km/h
2796 17-11-2014 12:00:00 10.025 C 9.05 g/m*3 10.03 C 0.8 km/h
2797 17-11-2014 13:00:00 9.93333 C 8.97 g/m*3 9.93 C 0.13333 km/h
2798 17-11-2014 14:00:00 10.43333 C 9.12 g/m*3 10.43 C 0.13333 km/h
2799 17-11-2014 15:00:00 10.175 C 9.14 g/m*3 10.18 C 0.26667 km/h
2800 17-11-2014 16:00:00 9.50833 C 8.83 g/m*3 9.51 C 3.6 km/h
Sensor: Nr:Datum:Temp:Abs-Feuchte:Windchill:Wind:
Aussen-T/F 2801 17-11-2014 17:00:00 8.75 C 8.44 g/m*3 8.75 C 4.53333 km/h
2802 17-11-2014 18:00:00 8.66667 C 8.46 g/m*3 8.67 C 3.06667 km/h
2803 17-11-2014 19:00:00 8.30833 C 8.26 g/m*3 8.31 C 2.53333 km/h
2804 17-11-2014 20:00:00 8.44167 C 8.34 g/m*3 8.44 C 2.26667 km/h
2805 17-11-2014 21:00:00 8.48333 C 8.36 g/m*3 8.48 C 0.93333 km/h
2806 17-11-2014 22:00:00 8.50833 C 8.37 g/m*3 8.51 C 0.26667 km/h
2807 17-11-2014 23:00:00 8.31667 C 8.27 g/m*3 8.32 C 1.06667 km/h
2808 18-11-2014 00:00:00 8.15 C 8.18 g/m*3 8.15 C 1.46667 km/h
2809 18-11-2014 01:00:00 7.95833 C 8.08 g/m*3 7.96 C 1.2 km/h
2810 18-11-2014 02:00:00 7.6 C 7.9 g/m*3 7.6 C 1.73333 km/h
2811 18-11-2014 03:00:00 7.75833 C 7.98 g/m*3 7.76 C 0 km/h
2812 18-11-2014 04:00:00 7.8 C 8 g/m*3 7.8 C 0 km/h
2813 18-11-2014 05:00:00 7.775 C 7.99 g/m*3 7.78 C 0 km/h
2814 18-11-2014 06:00:00 7.71667 C 7.95 g/m*3 7.72 C 0 km/h
2815 18-11-2014 07:00:00 7.76667 C 7.98 g/m*3 7.77 C 0 km/h
2816 18-11-2014 08:00:00 7.90833 C 8.05 g/m*3 7.91 C 0 km/h
2817 18-11-2014 09:00:00 8.19167 C 8.2 g/m*3 8.19 C 0 km/h
2818 18-11-2014 10:00:00 8.40833 C 8.32 g/m*3 8.41 C 0 km/h
2819 18-11-2014 11:00:00 8.675 C 8.45 g/m*3 8.68 C 0 km/h
2820 18-11-2014 12:00:00 9.275 C 8.64 g/m*3 9.28 C 0.26667 km/h
2821 18-11-2014 13:00:00 9.74167 C 8.63 g/m*3 9.74 C 0.26667 km/h
2822 18-11-2014 14:00:00 10.07143 C 8.67 g/m*3 10.07 C 0.22857 km/h
2823 18-11-2014 15:00:00 9.8 C 8.67 g/m*3 9.8 C 0.96 km/h
2824 18-11-2014 16:00:00 9.75 C 8.59 g/m*3 9.75 C 3.06667 km/h
2825 18-11-2014 17:00:00 9.6 C 8.53 g/m*3 9.6 C 3.46667 km/h
Sensor: Nr:Datum:Temp:Abs-Feuchte:Windchill:Wind:
Aussen-T/F 2826 18-11-2014 18:00:00 9.35 C 8.53 g/m*3 9.35 C 2.53333 km/h
2827 18-11-2014 19:00:00 9.05 C 8.56 g/m*3 9.05 C 0.93333 km/h
2828 18-11-2014 20:00:00 8.925 C 8.52 g/m*3 8.93 C 1.46667 km/h
2829 18-11-2014 21:00:00 8.9 C 8.58 g/m*3 8.9 C 0 km/h
2830 18-11-2014 22:00:00 8.83333 C 8.55 g/m*3 8.83 C 0 km/h
2831 18-11-2014 23:00:00 8.79167 C 8.53 g/m*3 8.79 C 0 km/h
2832 19-11-2014 00:00:00 8.64167 C 8.44 g/m*3 8.64 C 0 km/h
2833 19-11-2014 01:00:00 8.525 C 8.38 g/m*3 8.53 C 0.26667 km/h
2834 19-11-2014 02:00:00 8.4 C 8.31 g/m*3 8.4 C 0 km/h
2835 19-11-2014 03:00:00 8.31667 C 8.27 g/m*3 8.32 C 0 km/h
2836 19-11-2014 04:00:00 8.26667 C 8.24 g/m*3 8.27 C 0.26667 km/h
2837 19-11-2014 05:00:00 8.25 C 8.23 g/m*3 8.25 C 0.13333 km/h
2838 19-11-2014 06:00:00 8.05 C 8.14 g/m*3 8.05 C 1.6 km/h
2839 19-11-2014 07:00:00 8.1 C 8.2 g/m*3 8.1 C 0.26667 km/h
2840 19-11-2014 08:00:00 8.11667 C 8.18 g/m*3 8.12 C 0.13333 km/h
2841 19-11-2014 09:00:00 8.45833 C 8.41 g/m*3 8.46 C 0 km/h
2842 19-11-2014 10:00:00 8.7 C 8.35 g/m*3 8.7 C 0.26667 km/h
2843 19-11-2014 11:00:00 9.46667 C 8.19 g/m*3 9.47 C 0.13333 km/h
2844 19-11-2014 12:00:00 9.99167 C 8.37 g/m*3 9.99 C 3.73333 km/h
2845 19-11-2014 13:00:00 10.175 C 8.28 g/m*3 10.18 C 2.13333 km/h
2846 19-11-2014 14:00:00 10.1 C 8.41 g/m*3 10.1 C 2.13333 km/h
2847 19-11-2014 15:00:00 8.95833 C 8.28 g/m*3 8.96 C 2.93333 km/h
2848 19-11-2014 16:00:00 8.36667 C 8.04 g/m*3 8.37 C 4.4 km/h
2849 19-11-2014 17:00:00 7.45833 C 7.66 g/m*3 7.46 C 4 km/h
2850 19-11-2014 18:00:00 6.76667 C 7.36 g/m*3 6.77 C 0.4 km/h
Sensor: Nr:Datum:Temp:Abs-Feuchte:Windchill:Wind:
Aussen-T/F 2851 19-11-2014 19:00:00 6.525 C 7.31 g/m*3 6.53 C 0 km/h
2852 19-11-2014 20:00:00 6.8 C 7.49 g/m*3 6.8 C 0 km/h
2853 19-11-2014 21:00:00 6.41667 C 7.26 g/m*3 6.42 C 0 km/h
2854 19-11-2014 22:00:00 5.575 C 6.87 g/m*3 5.58 C 0 km/h
2855 19-11-2014 23:00:00 5.36667 C 6.82 g/m*3 5.37 C 0 km/h
2856 20-11-2014 00:00:00 5.70833 C 6.98 g/m*3 5.71 C 0.26667 km/h
2857 20-11-2014 01:00:00 5.625 C 6.94 g/m*3 5.63 C 1.2 km/h
2858 20-11-2014 02:00:00 5.21667 C 6.76 g/m*3 5.22 C 0.26667 km/h
2859 20-11-2014 03:00:00 5.05 C 6.68 g/m*3 5.05 C 0.4 km/h
2860 20-11-2014 04:00:00 5.225 C 6.76 g/m*3 5.23 C 0.13333 km/h
2861 20-11-2014 05:00:00 5.3 C 6.79 g/m*3 5.3 C 0 km/h
2862 20-11-2014 06:00:00 5.38333 C 6.84 g/m*3 5.38 C 0.26667 km/h
2863 20-11-2014 07:00:00 5.31667 C 6.8 g/m*3 5.32 C 0.53333 km/h
2864 20-11-2014 08:00:00 5.40833 C 6.84 g/m*3 5.41 C 0.4 km/h
2865 20-11-2014 09:00:00 5.56667 C 6.92 g/m*3 5.57 C 2.66667 km/h
2866 20-11-2014 10:00:00 6.1 C 7.2 g/m*3 6.1 C 0.93333 km/h
2867 20-11-2014 11:00:00 6.95833 C 7.51 g/m*3 6.96 C 1.73333 km/h
2868 20-11-2014 12:00:00 8.08333 C 7.67 g/m*3 8.08 C 2.93333 km/h
2869 20-11-2014 13:00:00 8.325 C 7.47 g/m*3 8.32 C 4.69167 km/h
2870 20-11-2014 14:00:00 8.14167 C 7.31 g/m*3 8.14 C 2.93333 km/h
2871 20-11-2014 15:00:00 7.95 C 7.19 g/m*3 7.95 C 3.2 km/h
2872 20-11-2014 16:00:00 7.74167 C 7.26 g/m*3 7.74 C 0.93333 km/h
2873 20-11-2014 17:00:00 7.31667 C 7.2 g/m*3 7.32 C 0.8 km/h
2874 20-11-2014 18:00:00 6.85833 C 7.15 g/m*3 6.86 C 0.53333 km/h
2875 20-11-2014 19:00:00 6.96667 C 7.2 g/m*3 6.97 C 0.13333 km/h
Sensor: Nr:Datum:Temp:Abs-Feuchte:Windchill:Wind:
Aussen-T/F 2876 20-11-2014 20:00:00 6.99167 C 7.13 g/m*3 6.99 C 0.13333 km/h
2877 20-11-2014 21:00:00 7 C 7.06 g/m*3 7 C 0.8 km/h
2878 20-11-2014 22:00:00 6.36667 C 6.89 g/m*3 6.37 C 1.6 km/h
2879 20-11-2014 23:00:00 6.31667 C 6.93 g/m*3 6.32 C 0.4 km/h
2880 21-11-2014 00:00:00 6.23333 C 6.92 g/m*3 6.23 C 0 km/h
2881 21-11-2014 01:00:00 6.075 C 6.83 g/m*3 6.08 C 0.26667 km/h
2882 21-11-2014 02:00:00 6.06667 C 6.85 g/m*3 6.07 C 0 km/h
2883 21-11-2014 03:00:00 5.55833 C 6.62 g/m*3 5.56 C 0.8 km/h
2884 21-11-2014 04:00:00 4.81667 C 6.35 g/m*3 4.82 C 3.73333 km/h
2885 21-11-2014 05:00:00 3.925 C 6.06 g/m*3 3.93 C 3.6 km/h
2886 21-11-2014 06:00:00 3.39167 C 5.89 g/m*3 3.39 C 2.13333 km/h
2887 21-11-2014 07:00:00 3.05833 C 5.79 g/m*3 3.06 C 2.26667 km/h
2888 21-11-2014 08:00:00 2.81667 C 5.7 g/m*3 2.82 C 0.26667 km/h
2889 21-11-2014 09:00:00 3.05 C 5.84 g/m*3 3.05 C 0 km/h
2890 21-11-2014 10:00:00 3.56667 C 6.05 g/m*3 3.57 C 2.53333 km/h
2891 21-11-2014 11:00:00 4.38333 C 6.39 g/m*3 4.38 C 3.33333 km/h
2892 21-11-2014 12:00:00 5.44167 C 6.86 g/m*3 5.44 C 2.8 km/h
2893 21-11-2014 13:00:00 6.16667 C 7.07 g/m*3 6.17 C 3.6 km/h
2894 21-11-2014 14:00:00 6.70833 C 7.23 g/m*3 6.71 C 4.8 km/h
2895 21-11-2014 15:00:00 6.725 C 7.21 g/m*3 6.73 C 4.4 km/h
2896 21-11-2014 16:00:00 7.25833 C 7.49 g/m*3 7.26 C 2.26667 km/h
2897 21-11-2014 17:00:00 7.4 C 7.48 g/m*3 7.4 C 0.8 km/h
2898 21-11-2014 18:00:00 7.55 C 7.35 g/m*3 7.55 C 2 km/h
2899 21-11-2014 19:00:00 7.76667 C 7.29 g/m*3 7.77 C 1.33333 km/h
2900 21-11-2014 20:00:00 6.35 C 6.83 g/m*3 6.35 C 2.4 km/h
Sensor: Nr:Datum:Temp:Abs-Feuchte:Windchill:Wind:
Aussen-T/F 2901 21-11-2014 21:00:00 5.275 C 6.53 g/m*3 5.28 C 3.2 km/h
2902 21-11-2014 22:00:00 4.775 C 6.38 g/m*3 4.78 C 2.8 km/h
2903 21-11-2014 23:00:00 4.39167 C 6.27 g/m*3 4.39 C 1.73333 km/h
2904 22-11-2014 00:00:00 3.98333 C 6.11 g/m*3 3.98 C 2 km/h
2905 22-11-2014 01:00:00 3.825 C 6.1 g/m*3 3.83 C 0.66667 km/h
2906 22-11-2014 02:00:00 3.49167 C 5.96 g/m*3 3.49 C 1.46667 km/h
2907 22-11-2014 03:00:00 3.14167 C 5.82 g/m*3 3.14 C 0.13333 km/h
2908 22-11-2014 04:00:00 3.05833 C 5.81 g/m*3 3.06 C 1.86667 km/h
2909 22-11-2014 05:00:00 3.11667 C 5.87 g/m*3 3.12 C 0.53333 km/h
2910 22-11-2014 06:00:00 3.475 C 6.02 g/m*3 3.48 C 0.53333 km/h
2911 22-11-2014 07:00:00 3.475 C 6.02 g/m*3 3.48 C 0.53333 km/h
2912 22-11-2014 08:00:00 4.23333 C 6.33 g/m*3 4.23 C 1.33333 km/h
2913 22-11-2014 09:00:00 5.36667 C 6.79 g/m*3 5.37 C 1.86667 km/h
2914 22-11-2014 10:00:00 6.525 C 7.18 g/m*3 6.53 C 0.26667 km/h
2915 22-11-2014 11:00:00 6.96667 C 7.33 g/m*3 6.97 C 1.2 km/h
2916 22-11-2014 12:00:00 7.68333 C 7.78 g/m*3 7.68 C 2.13333 km/h
2917 22-11-2014 13:00:00 8.9 C 8.34 g/m*3 8.9 C 1.46667 km/h
2918 22-11-2014 14:00:00 10.44167 C 8.76 g/m*3 10.44 C 1.06667 km/h
2919 22-11-2014 15:00:00 10.25833 C 8.5 g/m*3 10.26 C 2.53333 km/h
2920 22-11-2014 16:00:00 8.8 C 7.91 g/m*3 8.8 C 3.34167 km/h
2921 22-11-2014 17:00:00 7.41667 C 7.52 g/m*3 7.42 C 2.13333 km/h
2922 22-11-2014 18:00:00 7.26667 C 7.46 g/m*3 7.27 C 2.675 km/h
2923 22-11-2014 19:00:00 6.53333 C 7.16 g/m*3 6.53 C 1.46667 km/h
2924 22-11-2014 20:00:00 5.96667 C 6.96 g/m*3 5.97 C 1.46667 km/h
2925 22-11-2014 21:00:00 5.53333 C 6.8 g/m*3 5.53 C 2.66667 km/h
Sensor: Nr:Datum:Temp:Abs-Feuchte:Windchill:Wind:
Aussen-T/F 2926 22-11-2014 22:00:00 5.30833 C 6.73 g/m*3 5.31 C 2 km/h
2927 22-11-2014 23:00:00 5.29167 C 6.77 g/m*3 5.29 C 2.26667 km/h
2928 23-11-2014 00:00:00 5.20833 C 6.73 g/m*3 5.21 C 0.93333 km/h
2929 23-11-2014 01:00:00 4.975 C 6.65 g/m*3 4.97 C 0.4 km/h
2930 23-11-2014 02:00:00 4.875 C 6.6 g/m*3 4.88 C 0 km/h
2931 23-11-2014 03:00:00 4.53333 C 6.46 g/m*3 4.53 C 0.4 km/h
2932 23-11-2014 04:00:00 4.31667 C 6.36 g/m*3 4.32 C 0 km/h
2933 23-11-2014 05:00:00 4.31667 C 6.36 g/m*3 4.32 C 0.4 km/h
2934 23-11-2014 06:00:00 4.50833 C 6.47 g/m*3 4.51 C 0 km/h
2935 23-11-2014 07:00:00 5.19167 C 6.79 g/m*3 5.19 C 1.2 km/h
2936 23-11-2014 08:00:00 5.325 C 6.86 g/m*3 5.33 C 0.66667 km/h
2937 23-11-2014 09:00:00 5.575 C 6.98 g/m*3 5.58 C 0.13333 km/h
2938 23-11-2014 10:00:00 6.45 C 7.4 g/m*3 6.45 C 1.06667 km/h
2939 23-11-2014 11:00:00 6.71667 C 7.45 g/m*3 6.72 C 1.6 km/h
2940 23-11-2014 12:00:00 7.18333 C 7.65 g/m*3 7.18 C 1.06667 km/h
2941 23-11-2014 13:00:00 8.08333 C 7.92 g/m*3 8.08 C 2.53333 km/h
2942 23-11-2014 14:00:00 8.34167 C 7.93 g/m*3 8.34 C 1.2 km/h
2943 23-11-2014 15:00:00 8.25833 C 7.94 g/m*3 8.26 C 0.93333 km/h
2944 23-11-2014 16:00:00 7.55 C 7.59 g/m*3 7.55 C 0.53333 km/h
2945 23-11-2014 17:00:00 6.48333 C 7.19 g/m*3 6.48 C 2.40833 km/h
2946 23-11-2014 18:00:00 7.08333 C 7.35 g/m*3 7.08 C 4.01667 km/h
2947 23-11-2014 19:00:00 6.725 C 7.28 g/m*3 6.73 C 1.73333 km/h
2948 23-11-2014 20:00:00 7.14167 C 7.53 g/m*3 7.14 C 0.53333 km/h
2949 23-11-2014 21:00:00 7.28333 C 7.61 g/m*3 7.28 C 1.6 km/h
2950 23-11-2014 22:00:00 7.49167 C 7.76 g/m*3 7.49 C 1.2 km/h
Sensor: Nr:Datum:Temp:Abs-Feuchte:Windchill:Wind:
Aussen-T/F 2951 23-11-2014 23:00:00 7.60833 C 7.82 g/m*3 7.61 C 0.53333 km/h
2952 24-11-2014 00:00:00 7.6 C 7.81 g/m*3 7.6 C 0 km/h
2953 24-11-2014 01:00:00 7.63333 C 7.83 g/m*3 7.63 C 0.8 km/h
2954 24-11-2014 02:00:00 7.93333 C 7.98 g/m*3 7.93 C 0.4 km/h
2955 24-11-2014 03:00:00 7.90833 C 7.97 g/m*3 7.91 C 0 km/h
2956 24-11-2014 04:00:00 7.95 C 7.99 g/m*3 7.95 C 1.06667 km/h
2957 24-11-2014 05:00:00 8.19167 C 8.05 g/m*3 8.19 C 2.8 km/h
2958 24-11-2014 06:00:00 9.36667 C 8.75 g/m*3 9.37 C 2.93333 km/h
2959 24-11-2014 07:00:00 9.775 C 8.94 g/m*3 9.78 C 4.41667 km/h
2960 24-11-2014 08:00:00 9.85 C 8.78 g/m*3 9.4 C 5.64167 km/h
2961 24-11-2014 09:00:00 9.675 C 8.76 g/m*3 9.68 C 3.2 km/h
2962 24-11-2014 10:00:00 9.70833 C 8.76 g/m*3 9.71 C 3.35833 km/h
2963 24-11-2014 11:00:00 9.83333 C 8.69 g/m*3 9.83 C 2.80833 km/h
2964 24-11-2014 12:00:00 10.025 C 8.49 g/m*3 9.76 C 5.09167 km/h
2965 24-11-2014 13:00:00 9.99167 C 8.03 g/m*3 8.9 C 8.46667 km/h
2966 24-11-2014 14:00:00 10.2 C 7.87 g/m*3 9 C 9.275 km/h
2967 24-11-2014 15:00:00 9.6 C 7.58 g/m*3 9.6 C 3.54 km/h
2968 24-11-2014 16:00:00 6.35 C 6.98 g/m*3 5.4 C 5.6 km/h
2969 24-11-2014 17:00:00 5.85 C 6.82 g/m*3 5.85 C 3.6 km/h
2970 24-11-2014 18:00:00 5.04167 C 6.53 g/m*3 5.04 C 0.66667 km/h
2971 24-11-2014 19:00:00 4.16667 C 6.2 g/m*3 4.17 C 0 km/h
2972 24-11-2014 20:00:00 3.53333 C 5.98 g/m*3 3.53 C 0 km/h
2973 24-11-2014 21:00:00 2.81667 C 5.7 g/m*3 2.82 C 0 km/h
2974 24-11-2014 22:00:00 2.29167 C 5.5 g/m*3 2.29 C 0.13333 km/h
2975 24-11-2014 23:00:00 1.96667 C 5.41 g/m*3 1.97 C 0.26667 km/h
Sensor: Nr:Datum:Temp:Abs-Feuchte:Windchill:Wind:
Aussen-T/F 2976 25-11-2014 00:00:00 1.86667 C 5.4 g/m*3 1.87 C 0.4 km/h
2977 25-11-2014 01:00:00 2.06667 C 5.47 g/m*3 2.07 C 0 km/h
2978 25-11-2014 02:00:00 1.86667 C 5.4 g/m*3 1.87 C 0.26667 km/h
2979 25-11-2014 03:00:00 1.76667 C 5.36 g/m*3 1.77 C 1.2 km/h
2980 25-11-2014 04:00:00 1.55833 C 5.29 g/m*3 1.56 C 0.13333 km/h
2981 25-11-2014 05:00:00 2.1 C 5.5 g/m*3 2.1 C 0.66667 km/h
2982 25-11-2014 06:00:00 2.25 C 5.55 g/m*3 2.25 C 0.66667 km/h
2983 25-11-2014 07:00:00 2.21667 C 5.56 g/m*3 2.22 C 0.4 km/h
2984 25-11-2014 08:00:00 2.175 C 5.53 g/m*3 2.17 C 0 km/h
2985 25-11-2014 09:00:00 2.475 C 5.68 g/m*3 2.48 C 1.33333 km/h
2986 25-11-2014 10:00:00 2.875 C 5.84 g/m*3 2.88 C 2.2 km/h
2987 25-11-2014 11:00:00 3.45833 C 6.05 g/m*3 3.46 C 1.33333 km/h
2988 25-11-2014 12:00:00 3.53333 C 6.04 g/m*3 3.53 C 1.06667 km/h
2989 25-11-2014 13:00:00 3.54167 C 6.04 g/m*3 3.54 C 0.26667 km/h
2990 25-11-2014 14:00:00 3.95556 C 6.21 g/m*3 3.96 C 3.02222 km/h
2991 25-11-2014 15:00:00 4.2 C 6.31 g/m*3 4.2 C 3.2 km/h
2992 25-11-2014 17:00:00 3.4 C 5.92 g/m*3 3.4 C 4.4 km/h
2993 25-11-2014 18:00:00 3.25 C 5.86 g/m*3 3.25 C 4 km/h
2994 25-11-2014 19:00:00 3.35 C 5.96 g/m*3 3.35 C 2.66667 km/h
2995 25-11-2014 20:00:00 4.14167 C 6.29 g/m*3 4.14 C 1.2 km/h
2996 25-11-2014 21:00:00 4.825 C 6.53 g/m*3 4.83 C 1.2 km/h
2997 25-11-2014 22:00:00 5.2 C 6.64 g/m*3 5.2 C 0.53333 km/h
2998 25-11-2014 23:00:00 5.39167 C 6.49 g/m*3 5.39 C 4.68333 km/h
2999 26-11-2014 00:00:00 5.36667 C 6.33 g/m*3 5.37 C 4 km/h
3000 26-11-2014 01:00:00 5.21667 C 6.27 g/m*3 5.22 C 2.93333 km/h
Sensor: Nr:Datum:Temp:Abs-Feuchte:Windchill:Wind:
Aussen-T/F 3001 26-11-2014 02:00:00 4.88333 C 6.14 g/m*3 4.88 C 2 km/h
3002 26-11-2014 03:00:00 4.73333 C 6.04 g/m*3 4.73 C 2.4 km/h
3003 26-11-2014 04:00:00 4.6 C 5.96 g/m*3 3.6 C 5.08333 km/h
3004 26-11-2014 05:00:00 4.40833 C 5.89 g/m*3 4.41 C 1.73333 km/h
3005 26-11-2014 06:00:00 4.35833 C 5.9 g/m*3 4.36 C 0.53333 km/h
3006 26-11-2014 07:00:00 4.35833 C 5.88 g/m*3 4.36 C 0.93333 km/h
3007 26-11-2014 08:00:00 4.4 C 5.88 g/m*3 4.4 C 2 km/h
3008 26-11-2014 09:00:00 4.57143 C 5.87 g/m*3 4.57 C 3.42857 km/h
3009 26-11-2014 11:00:00 5.7 C 6.03 g/m*3 5.7 C 2.88 km/h
3010 26-11-2014 12:00:00 5.66667 C 6.22 g/m*3 5.67 C 2.53333 km/h
3011 26-11-2014 13:00:00 5.875 C 6.41 g/m*3 5.88 C 3.6 km/h
3012 26-11-2014 14:00:00 5.96667 C 6.42 g/m*3 5.97 C 2.53333 km/h
3013 26-11-2014 15:00:00 6.15 C 6.46 g/m*3 6.15 C 3.46667 km/h
3014 26-11-2014 16:00:00 5.94167 C 6.4 g/m*3 5.94 C 1.73333 km/h
3015 26-11-2014 17:00:00 5.85833 C 6.34 g/m*3 5.86 C 2 km/h
3016 26-11-2014 18:00:00 5.75833 C 6.3 g/m*3 5.76 C 0.93333 km/h
3017 26-11-2014 19:00:00 5.7 C 6.35 g/m*3 5.7 C 0.13333 km/h
3018 26-11-2014 20:00:00 5.60833 C 6.35 g/m*3 5.61 C 0 km/h
3019 26-11-2014 21:00:00 5.75 C 6.41 g/m*3 5.75 C 0.26667 km/h
3020 26-11-2014 22:00:00 5.625 C 6.54 g/m*3 5.63 C 0 km/h
3021 26-11-2014 23:00:00 5.3 C 6.58 g/m*3 5.3 C 0 km/h
3022 27-11-2014 00:00:00 5.225 C 6.54 g/m*3 5.23 C 0.26667 km/h
3023 27-11-2014 01:00:00 5.28333 C 6.51 g/m*3 5.28 C 0 km/h
3024 27-11-2014 02:00:00 5.30833 C 6.52 g/m*3 5.31 C 0 km/h
3025 27-11-2014 03:00:00 5.33333 C 6.53 g/m*3 5.33 C 0 km/h
Sensor: Nr:Datum:Temp:Abs-Feuchte:Windchill:Wind:
Aussen-T/F 3026 27-11-2014 04:00:00 5.33333 C 6.51 g/m*3 5.33 C 0 km/h
3027 27-11-2014 05:00:00 5.3 C 6.45 g/m*3 5.3 C 0 km/h
3028 27-11-2014 06:00:00 5.3 C 6.45 g/m*3 5.3 C 0 km/h
3029 27-11-2014 07:00:00 5.14167 C 6.4 g/m*3 5.14 C 0 km/h
3030 27-11-2014 08:00:00 5.26667 C 6.39 g/m*3 5.27 C 0.93333 km/h
3031 27-11-2014 09:00:00 5.71667 C 6.42 g/m*3 5.72 C 2.93333 km/h
3032 27-11-2014 10:00:00 6.08889 C 6.55 g/m*3 6.09 C 1.24444 km/h
3033 27-11-2014 13:00:00 7.4625 C 6.98 g/m*3 7.46 C 1 km/h
3034 27-11-2014 14:00:00 7.50833 C 6.98 g/m*3 7.51 C 3.46667 km/h
3035 27-11-2014 15:00:00 7.275 C 6.95 g/m*3 7.28 C 2.53333 km/h
3036 27-11-2014 16:00:00 6.775 C 7.05 g/m*3 6.78 C 0.8 km/h
3037 27-11-2014 17:00:00 6.3 C 7 g/m*3 6.3 C 1.2 km/h
3038 27-11-2014 18:00:00 6.05 C 6.91 g/m*3 6.05 C 0.8 km/h
3039 27-11-2014 19:00:00 5.825 C 6.82 g/m*3 5.83 C 0.4 km/h
3040 27-11-2014 20:00:00 5.74167 C 6.78 g/m*3 5.74 C 1.06667 km/h
3041 27-11-2014 21:00:00 5.7 C 6.76 g/m*3 5.7 C 0.4 km/h
3042 27-11-2014 22:00:00 5.7 C 6.77 g/m*3 5.7 C 0 km/h
3043 27-11-2014 23:00:00 5.75833 C 6.79 g/m*3 5.76 C 0 km/h
3044 28-11-2014 00:00:00 5.80833 C 6.81 g/m*3 5.81 C 0.13333 km/h
3045 28-11-2014 01:00:00 5.9 C 6.83 g/m*3 5.9 C 0.66667 km/h
3046 28-11-2014 02:00:00 5.675 C 6.61 g/m*3 5.68 C 1.33333 km/h
3047 28-11-2014 03:00:00 4.98333 C 6.37 g/m*3 4.98 C 0.4 km/h
3048 28-11-2014 04:00:00 4.98333 C 6.36 g/m*3 4.98 C 0.93333 km/h
3049 28-11-2014 05:00:00 4.875 C 6.31 g/m*3 4.88 C 0.53333 km/h
3050 28-11-2014 06:00:00 4.75 C 6.27 g/m*3 4.75 C 0.93333 km/h
Sensor: Nr:Datum:Temp:Abs-Feuchte:Windchill:Wind:
Aussen-T/F 3051 28-11-2014 07:00:00 4.86667 C 6.25 g/m*3 4.87 C 1.86667 km/h
3052 28-11-2014 08:00:00 4.96667 C 6.29 g/m*3 4.97 C 2 km/h
3053 28-11-2014 09:00:00 5.6 C 6.46 g/m*3 5.6 C 4.27778 km/h
3054 28-11-2014 10:00:00 6.1 C 6.61 g/m*3 5.3 C 5.09167 km/h
3055 28-11-2014 11:00:00 6.2 C 6.61 g/m*3 6.2 C 4.37273 km/h
3056 28-11-2014 12:00:00 6.5 C 7.5 g/m*3 5.58 C 5.6 km/h
3057 28-11-2014 16:00:00 5.53 C 6.34 g/m*3 5.53 C 4.99 km/h
3058 28-11-2014 17:00:00 5.5 C 6.33 g/m*3 5.5 C 4.675 km/h
3059 28-11-2014 18:00:00 5.45 C 6.32 g/m*3 5.45 C 3.33333 km/h
3060 28-11-2014 19:00:00 5.40833 C 6.29 g/m*3 5.41 C 4 km/h
3061 28-11-2014 20:00:00 5.56667 C 6.35 g/m*3 5.57 C 3.33333 km/h
3062 28-11-2014 21:00:00 5.56667 C 6.35 g/m*3 5.57 C 3.2 km/h
3063 28-11-2014 22:00:00 5.38333 C 6.27 g/m*3 5.38 C 4.4 km/h
3064 28-11-2014 23:00:00 5.275 C 6.21 g/m*3 4.21 C 5.50833 km/h
3065 29-11-2014 00:00:00 5.11667 C 6.16 g/m*3 5.12 C 4.55 km/h
3066 29-11-2014 01:00:00 4.94167 C 6.09 g/m*3 4.94 C 4.95 km/h
3067 29-11-2014 02:00:00 4.75833 C 5.97 g/m*3 3.78 C 5.075 km/h
3068 29-11-2014 03:00:00 4.55 C 5.9 g/m*3 4.55 C 4.675 km/h
3069 29-11-2014 04:00:00 4.43333 C 5.88 g/m*3 4.43 C 1.73333 km/h
3070 29-11-2014 05:00:00 4.375 C 5.8 g/m*3 4.38 C 2.8 km/h
3071 29-11-2014 06:00:00 4.28333 C 5.81 g/m*3 4.28 C 3.06667 km/h
3072 29-11-2014 07:00:00 4.18333 C 5.79 g/m*3 4.18 C 2.53333 km/h
3073 29-11-2014 08:00:00 4.13333 C 5.77 g/m*3 4.13 C 3.55556 km/h
3074 29-11-2014 09:00:00 4.2 C 5.78 g/m*3 4.2 C 4.14167 km/h
3075 29-11-2014 10:00:00 4.23333 C 5.75 g/m*3 3.18 C 5.075 km/h
Sensor: Nr:Datum:Temp:Abs-Feuchte:Windchill:Wind:
Aussen-T/F 3076 29-11-2014 11:00:00 4.41667 C 5.81 g/m*3 4.42 C 4.8 km/h
3077 29-11-2014 12:00:00 4.66667 C 5.86 g/m*3 4.67 C 3.34167 km/h
3078 29-11-2014 13:00:00 4.78333 C 5.89 g/m*3 4.78 C 3.86667 km/h
3079 29-11-2014 14:00:00 4.79167 C 5.9 g/m*3 4.79 C 4.14167 km/h
3080 29-11-2014 15:00:00 4.7 C 5.92 g/m*3 4.7 C 2.66667 km/h
3081 29-11-2014 16:00:00 4.61667 C 5.93 g/m*3 4.62 C 2.13333 km/h
3082 29-11-2014 17:00:00 4.58333 C 5.94 g/m*3 4.58 C 0.8 km/h
3083 29-11-2014 18:00:00 4.45 C 5.84 g/m*3 4.45 C 2.4 km/h
3084 29-11-2014 19:00:00 4.3 C 5.8 g/m*3 4.3 C 2.13333 km/h
3085 29-11-2014 20:00:00 4.25833 C 5.82 g/m*3 4.26 C 3.20833 km/h
3086 29-11-2014 21:00:00 4.175 C 5.79 g/m*3 4.18 C 2.66667 km/h
3087 29-11-2014 22:00:00 4.1 C 5.76 g/m*3 4.1 C 1.86667 km/h
3088 29-11-2014 23:00:00 4.05 C 5.74 g/m*3 4.05 C 2.53333 km/h
3089 30-11-2014 00:00:00 3.9 C 5.68 g/m*3 3.9 C 2 km/h
3090 30-11-2014 01:00:00 3.9 C 5.69 g/m*3 3.9 C 1.73333 km/h
3091 30-11-2014 02:00:00 3.94167 C 5.74 g/m*3 3.94 C 0.8 km/h
3092 30-11-2014 03:00:00 3.975 C 5.78 g/m*3 3.98 C 1.2 km/h
3093 30-11-2014 04:00:00 3.90833 C 5.75 g/m*3 3.91 C 0.4 km/h
3094 30-11-2014 05:00:00 3.9 C 5.75 g/m*3 3.9 C 0.8 km/h
3095 30-11-2014 06:00:00 3.85833 C 5.73 g/m*3 3.86 C 1.86667 km/h
3096 30-11-2014 07:00:00 3.8 C 5.73 g/m*3 3.8 C 2.55 km/h
3097 30-11-2014 08:00:00 3.8 C 5.76 g/m*3 3.8 C 2.26667 km/h
3098 30-11-2014 09:00:00 3.875 C 5.8 g/m*3 3.88 C 2.8 km/h
3099 30-11-2014 10:00:00 4.01667 C 5.85 g/m*3 4.02 C 2.94167 km/h
3100 30-11-2014 11:00:00 4.15 C 5.9 g/m*3 4.15 C 2.8 km/h
Sensor: Nr:Datum:Temp:Abs-Feuchte:Windchill:Wind:
Aussen-T/F 3101 30-11-2014 12:00:00 4.325 C 5.93 g/m*3 4.33 C 2.93333 km/h
3102 30-11-2014 13:00:00 4.30833 C 5.91 g/m*3 4.31 C 2 km/h
3103 30-11-2014 14:00:00 4.20833 C 5.89 g/m*3 4.21 C 2.13333 km/h
3104 30-11-2014 15:00:00 4.075 C 5.87 g/m*3 4.08 C 3.20833 km/h
3105 30-11-2014 16:00:00 3.85 C 5.8 g/m*3 3.85 C 2 km/h
3106 30-11-2014 17:00:00 3.8 C 5.81 g/m*3 3.8 C 0.93333 km/h
3107 30-11-2014 18:00:00 3.75 C 5.8 g/m*3 3.75 C 2.40833 km/h
3108 30-11-2014 19:00:00 3.69167 C 5.79 g/m*3 3.69 C 3.06667 km/h
3109 30-11-2014 20:00:00 3.66667 C 5.78 g/m*3 3.67 C 2.13333 km/h
3110 30-11-2014 21:00:00 3.65833 C 5.79 g/m*3 3.66 C 2 km/h
3111 30-11-2014 22:00:00 3.53333 C 5.79 g/m*3 3.53 C 2.26667 km/h
3112 30-11-2014 23:00:00 3.46667 C 5.77 g/m*3 3.47 C 2.4 km/h
3113 01-12-2014 00:00:00 3.375 C 5.73 g/m*3 3.38 C 3.75 km/h
3114 01-12-2014 01:00:00 3.3 C 5.73 g/m*3 3.3 C 3.2 km/h
3115 01-12-2014 02:00:00 3.3 C 5.76 g/m*3 3.3 C 0.4 km/h
3116 01-12-2014 03:00:00 3.39167 C 5.8 g/m*3 3.39 C 1.46667 km/h
3117 01-12-2014 04:00:00 3.63333 C 5.88 g/m*3 3.63 C 2.4 km/h
3118 01-12-2014 05:00:00 3.83333 C 5.91 g/m*3 3.83 C 1.06667 km/h
3119 01-12-2014 06:00:00 4.13333 C 5.95 g/m*3 4.13 C 4.675 km/h
3120 01-12-2014 07:00:00 4.175 C 5.92 g/m*3 2.42 C 7.11667 km/h
3121 01-12-2014 08:00:00 3.98333 C 5.82 g/m*3 2.55 C 6.025 km/h
3122 01-12-2014 09:00:00 3.73333 C 5.68 g/m*3 0.76 C 11.83333 km/h
3123 01-12-2014 10:00:00 3.78333 C 5.64 g/m*3 1.31 C 9.55 km/h
3124 01-12-2014 11:00:00 3.86667 C 5.62 g/m*3 0.97 C 11.56667 km/h
3125 01-12-2014 12:00:00 3.8 C 5.59 g/m*3 1.17 C 10.225 km/h
Sensor: Nr:Datum:Temp:Abs-Feuchte:Windchill:Wind:
Aussen-T/F 3126 01-12-2014 13:00:00 3.825 C 5.66 g/m*3 3.83 C 3.875 km/h
3127 01-12-2014 14:00:00 3.68333 C 5.62 g/m*3 1.98 C 6.69167 km/h
3128 01-12-2014 15:00:00 3.36667 C 5.48 g/m*3 1.39 C 7.39167 km/h
3129 01-12-2014 16:00:00 3.2 C 5.37 g/m*3 1.95 C 5.23333 km/h
3130 01-12-2014 17:00:00 3 C 5.29 g/m*3 1 C 7.25833 km/h
3131 01-12-2014 18:00:00 2.73333 C 5.21 g/m*3 2.73 C 3.06667 km/h
3132 01-12-2014 19:00:00 2.65833 C 5.22 g/m*3 2.66 C 2.53333 km/h
3133 01-12-2014 20:00:00 2.59167 C 5.21 g/m*3 2.59 C 1.2 km/h
3134 01-12-2014 21:00:00 2.4 C 5.12 g/m*3 2.4 C 2.26667 km/h
3135 01-12-2014 22:00:00 2.2 C 5.02 g/m*3 2.2 C 2 km/h
3136 01-12-2014 23:00:00 2.025 C 4.96 g/m*3 2.03 C 4.69167 km/h
3137 02-12-2014 00:00:00 1.825 C 4.94 g/m*3 1.83 C 1.86667 km/h
3138 02-12-2014 01:00:00 1.75833 C 4.98 g/m*3 1.76 C 0.13333 km/h
3139 02-12-2014 02:00:00 1.7 C 5.01 g/m*3 1.7 C 0.8 km/h
3140 02-12-2014 03:00:00 1.65833 C 5.06 g/m*3 1.66 C 3.2 km/h
3141 02-12-2014 04:00:00 1.5 C 5.03 g/m*3 1.5 C 3.73333 km/h
3142 02-12-2014 05:00:00 1.34167 C 4.97 g/m*3 1.34 C 1.2 km/h
3143 02-12-2014 06:00:00 1.2 C 4.98 g/m*3 1.2 C 0.4 km/h
3144 02-12-2014 07:00:00 1.21667 C 4.99 g/m*3 1.22 C 1.06667 km/h
3145 02-12-2014 08:00:00 1.2 C 4.95 g/m*3 1.2 C 0 km/h
3146 02-12-2014 09:00:00 1.28333 C 4.95 g/m*3 1.28 C 0.8 km/h
3147 02-12-2014 10:00:00 1.56667 C 4.96 g/m*3 1.57 C